[[{"header":{"parameterUnit":"m.s-1","parameterCategory":1,"la1":30.6,"la2":28.766,"lo1":-90.7593,"lo2":-88.6598,"dy":0.0162,"dx":0.0183,"nx":116,"ny":114,"refTime":"2024-02-27T18:00:00:Z","depth":0,"parameterNumber":2,"parameterNumberName":"U-component_of_WINDS"},"data":[0.0,0.0,0.0,0.0,0.0,0.0,0.0,0.0,0.0,0.0,0.0,0.0,0.0,0.0,0.0,0.0,0.0,0.0,0.0,0.0,0.0,0.0,0.0,0.0,0.0,0.0,0.0,0.0,0.0,0.0,0.0,0.0,0.0,0.0,0.0,0.0,0.0,0.0,0.0,0.0,0.0,0.0,0.0,0.0,0.0,0.0,0.0,0.0,0.0,0.0,0.0,0.0,0.0,0.0,0.0,0.0,0.0,0.0,0.0,0.0,0.0,0.0,0.0,0.0,0.0,0.0,0.0,0.0,0.0,0.0,0.0,0.0,0.0,0.0,0.0,0.0,0.0,0.0,0.0,0.0,0.0,0.0,0.0,0.0,0.0,0.0,0.0,0.0,0.0,0.0,0.0,0.0,0.0,0.0,0.0,0.0,0.0,0.0,0.0,0.0,0.0,0.0,0.0,0.0,0.0,0.0,0.0,0.0,0.0,0.0,0.0,0.0,0.0,0.0,0.0,0.0,0.0,0.0,0.0,0.0,0.0,0.0,0.0,0.0,0.0,0.0,0.0,0.0,0.0,0.0,0.0,0.0,0.0,0.0,0.0,0.0,0.0,0.0,0.0,0.0,0.0,0.0,0.0,0.0,0.0,0.0,0.0,0.0,0.0,0.0,0.0,0.0,0.0,0.0,0.0,0.0,0.0,0.0,0.0,0.0,0.0,0.0,0.0,0.0,0.0,0.0,0.0,0.0,0.0,0.0,0.0,0.0,0.0,0.0,0.0,0.0,0.0,0.0,0.0,0.0,0.0,0.0,0.0,0.0,0.0,0.0,0.0,0.0,0.0,0.0,0.0,0.0,0.0,0.0,0.0,0.0,0.0,0.0,0.0,0.0,0.0,0.0,0.0,0.0,0.0,0.0,0.0,0.0,0.0,0.0,0.0,0.0,0.0,0.0,0.0,0.0,0.0,0.0,0.0,0.0,0.0,0.0,0.0,0.0,0.0,0.0,0.0,0.0,0.0,0.0,0.0,0.0,0.0,0.0,0.0,0.0,0.0,0.0,0.0,0.0,0.0,0.0,0.0,0.0,0.0,0.0,0.0,0.0,0.0,0.0,0.0,0.0,0.0,0.0,0.0,0.0,0.0,0.0,0.0,0.0,0.0,0.0,0.0,0.0,0.0,0.0,0.0,0.0,0.0,0.0,0.0,0.0,0.0,0.0,0.0,0.0,0.0,0.0,0.0,0.0,0.0,0.0,0.0,0.0,0.0,0.0,0.0,0.0,0.0,0.0,0.0,0.0,0.0,0.0,0.0,0.0,0.0,0.0,0.0,0.0,0.0,0.0,0.0,0.0,0.0,0.0,0.0,0.0,0.0,0.0,0.0,0.0,0.0,0.0,0.0,0.0,0.0,0.0,0.0,0.0,0.0,0.0,0.0,0.0,0.0,0.0,0.0,0.0,0.0,0.0,0.0,0.0,0.0,0.0,0.0,0.0,0.0,0.0,0.0,0.0,0.0,0.0,0.0,0.0,0.0,0.0,0.0,0.0,0.0,0.0,0.0,0.0,0.0,0.0,0.0,0.0,0.0,0.0,0.0,0.0,0.0,0.0,0.0,0.0,0.0,0.0,0.0,0.0,0.0,0.0,0.0,0.0,0.0,0.0,0.0,0.0,0.0,0.0,0.0,0.0,0.0,0.0,0.0,0.0,0.0,0.0,0.0,0.0,0.0,0.0,0.0,0.0,0.0,0.0,0.0,0.0,0.0,0.0,0.0,0.0,0.0,0.0,0.0,0.0,0.0,0.0,0.0,0.0,0.0,0.0,0.0,0.0,0.0,0.0,0.0,0.0,0.0,0.0,0.0,0.0,0.0,0.0,0.0,0.0,0.0,0.0,0.0,0.0,0.0,0.0,0.0,0.0,0.0,0.0,0.0,0.0,0.0,0.0,0.0,0.0,0.0,0.0,0.0,0.0,0.0,0.0,0.0,0.0,0.0,0.0,0.0,0.0,0.0,0.0,0.0,0.0,0.0,0.0,0.0,0.0,0.0,0.0,0.0,0.0,0.0,0.0,0.0,0.0,0.0,0.0,0.0,0.0,0.0,0.0,0.0,0.0,0.0,0.0,0.0,0.0,0.0,0.0,0.0,0.0,0.0,0.0,0.0,0.0,0.0,0.0,0.0,0.0,0.0,0.0,0.0,0.0,0.0,0.0,0.0,0.0,0.0,0.0,0.0,0.0,0.0,0.0,0.0,0.0,0.0,0.0,0.0,0.0,0.0,0.0,0.0,0.0,0.0,0.0,0.0,0.0,0.0,0.0,0.0,0.0,0.0,0.0,0.0,0.0,0.0,0.0,0.0,0.0,0.0,0.0,0.0,0.0,0.0,0.0,0.0,0.0,0.0,0.0,0.0,0.0,0.0,0.0,0.0,0.0,0.0,0.0,0.0,0.0,0.0,0.0,0.0,0.0,0.0,0.0,0.0,0.0,0.0,0.0,0.0,0.0,0.0,0.0,0.0,0.0,0.0,0.0,0.0,0.0,0.0,0.0,0.0,0.0,0.0,0.0,0.0,0.0,0.0,0.0,0.0,0.0,0.0,0.0,0.0,0.0,0.0,0.0,0.0,0.0,0.0,0.0,0.0,0.0,0.0,0.0,0.0,0.0,0.0,0.0,0.0,0.0,0.0,0.0,0.0,0.0,0.0,0.0,0.0,0.0,0.0,0.0,0.0,0.0,0.0,0.0,0.0,0.0,0.0,0.0,0.0,0.0,0.0,0.0,0.0,0.0,0.0,0.0,0.0,0.0,0.0,0.0,0.0,0.0,0.0,0.0,0.0,0.0,0.0,0.0,0.0,0.0,0.0,0.0,0.0,0.0,0.0,0.0,0.0,0.0,0.0,0.0,0.0,0.0,0.0,0.0,0.0,0.0,0.0,0.0,0.0,0.0,0.0,0.0,0.0,0.0,0.0,0.0,0.0,0.0,0.0,0.0,0.0,0.0,0.0,0.0,0.0,0.0,0.0,0.0,0.0,0.0,0.0,0.0,0.0,0.0,0.0,0.0,0.0,0.0,0.0,0.0,0.0,0.0,0.0,0.0,0.0,0.0,0.0,0.0,0.0,0.0,0.0,0.0,0.0,0.0,0.0,0.0,0.0,0.0,0.0,0.0,0.0,0.0,0.0,0.0,0.0,0.0,0.0,0.0,0.0,0.0,0.0,0.0,0.0,0.0,0.0,0.0,0.0,0.0,0.0,0.0,0.0,0.0,0.0,0.0,0.0,0.0,0.0,0.0,0.0,0.0,0.0,0.0,0.0,0.0,0.0,0.0,0.0,0.0,0.0,0.0,0.0,0.0,0.0,0.0,0.0,0.0,0.0,0.0,0.0,0.0,0.0,0.0,0.0,0.0,0.0,0.0,0.0,0.0,0.0,0.0,0.0,0.0,0.0,0.0,0.0,0.0,0.0,0.0,0.0,0.0,0.0,0.0,0.0,0.0,0.0,0.0,0.0,0.0,0.0,0.0,0.0,0.0,0.0,0.0,0.0,0.0,0.0,0.0,0.0,0.0,0.0,0.0,0.0,0.0,0.0,0.0,0.0,0.0,0.0,0.0,0.0,0.0,0.0,0.0,0.0,0.0,0.0,0.0,0.0,0.0,0.0,0.0,0.0,0.0,0.0,0.0,0.0,0.0,0.0,0.0,0.0,0.0,0.0,0.0,0.0,0.0,0.0,0.0,0.0,0.0,0.0,0.0,0.0,0.0,0.0,0.0,0.0,0.0,0.0,0.0,0.0,0.0,0.0,0.0,0.0,0.0,0.0,0.0,0.0,0.0,0.0,0.0,0.0,0.0,0.0,0.0,0.0,0.0,0.0,0.0,0.0,0.0,0.0,0.0,0.0,0.0,0.0,0.0,0.0,0.0,0.0,0.0,0.0,0.0,0.0,0.0,0.0,0.0,0.0,0.0,0.0,0.0,0.0,0.0,0.0,0.0,0.0,0.0,0.0,0.0,0.0,0.0,0.0,0.0,0.0,0.0,0.0,0.0,0.0,0.0,0.0,0.0,0.0,0.0,0.0,0.0,0.0,0.0,0.0,0.0,0.0,0.0,0.0,0.0,0.0,0.0,0.0,0.0,0.0,0.0,0.0,0.0,0.0,0.0,0.0,0.0,0.0,0.0,0.0,0.0,0.0,0.0,0.0,0.0,0.0,0.0,0.0,0.0,0.0,0.0,0.0,0.0,0.0,0.0,0.0,0.0,0.0,0.0,0.0,0.0,0.0,0.0,0.0,0.0,0.0,0.0,0.0,0.0,0.0,0.0,0.0,0.0,0.0,0.0,0.0,0.0,0.0,0.0,0.0,0.0,0.0,0.0,0.0,0.0,0.0,0.0,0.0,0.0,0.0,0.0,0.0,0.0,0.0,0.0,0.0,0.0,0.0,0.0,0.0,0.0,0.0,0.0,0.0,0.0,0.0,0.0,0.0,0.0,0.0,0.0,0.0,0.0,0.0,0.0,0.0,0.0,0.0,0.0,0.0,0.0,0.0,0.0,0.0,0.0,0.0,0.0,0.0,0.0,0.0,0.0,0.0,0.0,0.0,0.0,0.0,0.0,0.0,0.0,0.0,0.0,0.0,0.0,0.0,0.0,0.0,0.0,0.0,0.0,0.0,0.0,0.0,0.0,0.0,0.0,0.0,0.0,0.0,0.0,0.0,0.0,0.0,0.0,0.0,0.0,0.0,0.0,0.0,0.0,0.0,0.0,0.0,0.0,0.0,0.0,0.0,0.0,0.0,0.0,0.0,0.0,0.0,0.0,0.0,0.0,0.0,0.0,0.0,0.0,0.0,0.0,0.0,0.0,0.0,0.0,0.0,0.0,0.0,0.0,0.0,0.0,0.0,0.0,0.0,0.0,0.0,0.0,0.0,0.0,0.0,0.0,0.0,0.0,0.0,0.0,0.0,0.0,0.0,0.0,0.0,0.0,0.0,0.0,0.0,0.0,0.0,0.0,0.0,0.0,0.0,0.0,0.0,0.0,0.0,0.0,0.0,0.0,0.0,0.0,0.0,0.0,0.0,0.0,0.0,0.0,0.0,0.0,0.0,0.0,0.0,0.0,0.0,0.0,0.0,0.0,0.0,0.0,0.0,0.0,0.0,0.0,0.0,0.0,0.0,0.0,0.0,0.0,0.0,0.0,0.0,0.0,0.0,0.0,0.0,0.0,0.0,0.0,0.0,0.0,0.0,0.0,0.0,0.0,0.0,0.0,0.0,0.0,0.0,0.0,0.0,0.0,0.0,0.0,0.0,0.0,0.0,0.0,0.0,0.0,0.0,0.0,0.0,0.0,0.0,0.0,0.0,0.0,0.0,0.0,0.0,0.0,0.0,0.0,0.0,0.0,0.0,0.0,0.0,0.0,0.0,0.0,0.0,0.0,0.0,0.0,0.0,0.0,0.0,0.0,0.0,0.0,0.0,0.0,0.0,0.0,0.0,0.0,0.0,0.0,0.0,0.0,0.0,0.0,0.0,0.0,0.0,0.0,0.0,0.0,0.0,0.0,0.0,0.0,0.0,0.0,0.0,0.0,0.0,0.0,0.0,0.0,0.0,0.0,0.0,0.0,0.0,0.0,0.0,0.0,0.0,0.0,0.0,0.0,0.0,0.0,0.0,0.0,0.0,0.0,0.0,0.0,0.0,0.0,0.0,0.0,0.0,0.0,0.0,0.0,0.0,0.0,0.0,0.0,0.0,0.0,0.0,0.0,0.0,0.0,0.0,0.0,0.0,0.0,0.0,0.0,0.0,0.0,0.0,0.0,0.0,0.0,0.0,0.0,0.0,0.0,0.0,0.0,0.0,0.0,0.0,0.0,0.0,0.0,0.0,0.0,0.0,0.0,0.0,0.0,0.0,0.0,0.0,0.0,0.0,0.0,0.0,0.0,0.0,0.0,0.0,0.0,0.0,0.0,0.0,0.0,0.0,0.0,0.0,0.0,0.0,0.0,0.0,0.0,0.0,0.0,0.0,0.0,0.0,0.0,0.0,0.0,0.0,0.0,0.0,0.0,0.0,0.0,0.0,0.0,0.0,0.0,0.0,0.0,0.0,0.0,0.0,0.0,-7.7952,-7.787,0.0,0.0,0.0,0.0,0.0,0.0,0.0,0.0,0.0,0.0,0.0,0.0,0.0,0.0,0.0,0.0,0.0,0.0,0.0,0.0,0.0,0.0,0.0,0.0,0.0,0.0,-7.2496,-7.2496,-7.2496,-7.2496,-7.2496,-7.2496,-7.2496,-7.2496,-7.2496,-7.3303,-7.3844,-7.4136,-7.3902,-7.315,-7.1969,-7.2801,-7.3779,-7.4822,0.0,0.0,0.0,0.0,0.0,0.0,0.0,0.0,0.0,0.0,0.0,0.0,0.0,0.0,0.0,0.0,0.0,0.0,0.0,0.0,0.0,0.0,0.0,0.0,0.0,0.0,0.0,0.0,0.0,0.0,0.0,0.0,0.0,0.0,0.0,0.0,0.0,0.0,0.0,0.0,0.0,0.0,0.0,0.0,0.0,0.0,0.0,0.0,0.0,0.0,0.0,0.0,0.0,0.0,0.0,0.0,0.0,0.0,0.0,0.0,0.0,0.0,0.0,0.0,0.0,0.0,0.0,0.0,0.0,0.0,-7.764,-7.7475,0.0,0.0,0.0,0.0,0.0,0.0,0.0,0.0,0.0,0.0,0.0,0.0,0.0,0.0,0.0,0.0,0.0,0.0,0.0,0.0,0.0,0.0,0.0,-7.1176,-7.1628,-7.2585,-7.2658,-7.2658,-7.2658,-7.2553,-7.2496,-7.2496,-7.2496,-7.2496,-7.2496,-7.3413,-7.4006,-7.4185,-7.2801,-7.1596,-7.0475,-7.0683,-7.1495,-7.2943,-7.4499,0.0,0.0,0.0,0.0,0.0,0.0,0.0,0.0,0.0,0.0,0.0,0.0,0.0,0.0,0.0,0.0,0.0,0.0,0.0,0.0,0.0,0.0,0.0,0.0,0.0,0.0,0.0,0.0,0.0,0.0,0.0,0.0,0.0,0.0,0.0,0.0,0.0,0.0,0.0,0.0,0.0,0.0,0.0,0.0,0.0,0.0,0.0,0.0,0.0,0.0,0.0,0.0,0.0,0.0,0.0,0.0,0.0,0.0,0.0,0.0,0.0,0.0,0.0,-7.9977,-7.9438,-7.9107,-7.8606,-7.7434,-7.5902,-7.7023,-7.6776,-7.563,-7.5663,0.0,0.0,0.0,0.0,0.0,0.0,0.0,0.0,0.0,0.0,0.0,0.0,0.0,0.0,0.0,0.0,0.0,0.0,0.0,0.0,0.0,-7.0713,-7.1628,-7.3152,-7.3264,-7.3264,-7.3264,-7.2789,-7.2496,-7.2496,-7.2496,-7.2496,-7.2496,-7.3964,-7.3987,-7.2434,-7.0279,-6.9071,-6.8744,-6.8867,-6.9448,-7.0434,-7.152,0.0,0.0,0.0,0.0,0.0,0.0,0.0,0.0,0.0,0.0,0.0,0.0,0.0,0.0,0.0,0.0,0.0,0.0,0.0,0.0,0.0,0.0,0.0,0.0,0.0,0.0,0.0,0.0,0.0,0.0,0.0,0.0,0.0,0.0,0.0,0.0,0.0,0.0,0.0,0.0,0.0,0.0,0.0,-7.6169,-7.6169,0.0,0.0,0.0,0.0,0.0,0.0,0.0,0.0,0.0,0.0,0.0,0.0,0.0,-8.1131,-8.1246,-8.04,-7.9977,-7.9977,-7.9092,-7.79,-7.6491,-7.6596,-7.5692,-7.401,-7.3634,0.0,-7.4217,-7.3476,0.0,0.0,0.0,0.0,0.0,0.0,0.0,0.0,0.0,0.0,0.0,0.0,0.0,0.0,0.0,0.0,0.0,0.0,0.0,0.0,0.0,-7.0859,-7.1773,-7.3738,-7.4026,-7.3876,-7.3429,-7.325,-7.2973,-7.2532,-7.2496,-7.2496,-7.2496,-7.3193,-7.2778,-7.1208,-6.9918,-6.8973,-6.8398,-6.8646,-6.8979,-6.9383,-7.0498,-7.2295,-7.442,-7.4312,0.0,0.0,0.0,0.0,0.0,0.0,0.0,0.0,0.0,0.0,0.0,0.0,0.0,0.0,0.0,0.0,0.0,0.0,0.0,0.0,0.0,0.0,0.0,0.0,0.0,0.0,0.0,0.0,0.0,0.0,0.0,0.0,0.0,0.0,0.0,0.0,0.0,0.0,0.0,-7.5592,-7.6207,-7.4784,-7.6621,-7.813,0.0,0.0,0.0,0.0,0.0,0.0,0.0,0.0,0.0,-8.1093,-8.1093,-8.1093,-8.1093,-8.0246,-7.9823,-7.9785,-7.7977,-7.6707,-7.5952,-7.4714,-7.3539,-7.2427,-7.1737,-7.1452,-7.1416,-7.1342,-7.0977,-7.0343,0.0,0.0,0.0,0.0,-6.6718,-6.5948,0.0,0.0,0.0,0.0,0.0,0.0,0.0,0.0,0.0,0.0,0.0,0.0,-7.0735,-7.1125,-7.2184,-7.4615,-7.4657,-7.4424,-7.4262,-7.3508,-7.301,-7.2826,-7.2606,-7.2496,-7.2496,-7.195,-7.1057,-6.9872,-6.9298,-6.8706,-6.8065,-6.8586,-6.8924,-6.9211,-7.042,-7.2138,-7.4094,-7.4148,-7.4625,0.0,0.0,0.0,0.0,0.0,0.0,0.0,0.0,0.0,0.0,0.0,0.0,0.0,0.0,0.0,0.0,0.0,0.0,0.0,0.0,0.0,0.0,0.0,0.0,0.0,0.0,0.0,0.0,0.0,0.0,0.0,0.0,0.0,0.0,0.0,0.0,0.0,0.0,-7.5515,-7.6044,-7.3561,-7.6002,-7.7827,0.0,0.0,0.0,0.0,0.0,0.0,-8.138,-8.1374,-8.1244,-8.1108,-8.1093,-8.1093,-8.1093,-8.0015,-7.9477,-7.9438,-7.6899,-7.5438,-7.4952,-7.3025,-7.1678,-7.0712,-6.9845,-6.9123,-6.8693,-6.9385,-6.9151,-6.822,-6.7358,-6.6866,-6.6489,-6.5515,-6.4735,-6.4116,0.0,0.0,0.0,0.0,0.0,0.0,0.0,0.0,0.0,0.0,0.0,-6.7683,-7.066,-7.1501,-7.3053,-7.6027,-7.5064,-7.495,-7.6437,-7.3294,-7.2092,-7.356,-7.2899,-7.2496,-7.2496,-7.0419,-6.896,-6.8118,-6.7539,-6.7205,-6.718,-6.8154,-6.9062,-6.9905,-7.1131,-7.2622,-7.4359,-7.5174,-7.5793,-7.6295,0.0,0.0,0.0,0.0,0.0,0.0,0.0,0.0,0.0,0.0,0.0,0.0,0.0,0.0,0.0,0.0,0.0,0.0,0.0,0.0,0.0,0.0,0.0,0.0,0.0,0.0,0.0,0.0,0.0,0.0,0.0,0.0,0.0,0.0,0.0,0.0,0.0,0.0,0.0,-7.2822,-7.6206,0.0,0.0,0.0,0.0,-8.1571,-8.1475,-8.1352,-8.1407,-8.1214,-8.1108,-8.1093,-8.1093,-8.1093,-8.1093,-7.94,-7.8554,-7.8515,-7.5976,-7.3937,-7.2374,-7.1634,-7.0379,-6.8752,-6.7274,-6.6579,-6.6647,-6.783,-6.7681,-6.6649,-6.5748,-6.4826,-6.3858,-6.2848,-6.246,-6.2307,0.0,0.0,0.0,0.0,0.0,0.0,0.0,0.0,-6.8495,-6.9522,-6.8715,-6.9194,-7.2224,-7.2742,-7.3868,-7.636,-7.5779,-7.5495,-7.6069,-7.4053,-7.3083,-7.367,-7.2936,-7.1762,-7.022,-6.9042,-6.8291,-6.8047,-6.8549,-6.9052,-6.9565,-7.0037,-7.0806,-7.1824,-7.2876,-7.4343,-7.5967,-7.5574,-7.5818,-7.6561,-7.7162,-7.6668,0.0,0.0,0.0,0.0,0.0,0.0,0.0,0.0,0.0,0.0,0.0,0.0,0.0,0.0,0.0,0.0,0.0,0.0,0.0,0.0,0.0,0.0,0.0,0.0,0.0,0.0,0.0,0.0,0.0,0.0,0.0,0.0,0.0,0.0,0.0,0.0,0.0,-7.5813,-7.8271,0.0,-7.9705,-7.9853,-8.025,-8.0997,-8.0974,-8.1065,-8.1391,-8.1336,-8.1242,-8.1108,-8.1093,-8.0823,-8.0285,-7.9092,-7.7938,-7.6861,-7.4899,-7.3053,-7.1321,-6.999,-6.8536,-6.6971,-6.586,-6.5125,-6.4777,-6.5186,-6.5156,-6.4725,-6.3901,-6.3325,-6.2899,-6.1857,-6.1462,-6.1465,0.0,0.0,0.0,0.0,0.0,0.0,0.0,0.0,-6.8164,-6.9522,-6.9229,-6.9968,-7.2708,-7.3491,-7.4711,-7.6919,-7.6081,-7.5776,-7.6569,-7.4284,-7.3266,-7.4074,-7.2826,-7.1066,-6.8804,-6.854,-6.826,-6.794,-6.9138,-6.9821,-7.0052,-7.0783,-7.1489,-7.2219,-7.3833,-7.5501,-7.7118,-7.6987,-7.6929,-7.695,-7.7265,-7.7015,-7.6269,0.0,0.0,0.0,0.0,0.0,0.0,0.0,0.0,0.0,0.0,0.0,0.0,0.0,0.0,0.0,0.0,0.0,0.0,0.0,0.0,0.0,0.0,0.0,0.0,0.0,0.0,0.0,0.0,0.0,0.0,0.0,0.0,0.0,0.0,-7.5311,-7.678,-7.7215,-7.9746,-8.1304,-8.0863,-8.1206,-8.1478,-8.157,-8.1524,-8.146,-8.1403,-8.1349,-8.1242,-8.1108,-8.1093,-8.0669,-7.9823,-7.8669,-7.74,-7.5976,-7.3707,-7.1898,-7.0437,-6.8436,-6.6817,-6.5515,-6.4394,-6.3651,-6.3216,-6.2905,-6.2797,-6.2766,-6.2653,-6.2424,-6.2049,-6.1275,-6.0997,-6.1048,0.0,0.0,0.0,0.0,0.0,0.0,0.0,-6.8715,-6.7981,-6.8825,-6.8972,-6.9794,-7.2013,-7.3689,-7.5508,-7.7702,-7.5907,-7.5701,-7.8096,-7.3951,-7.2393,-7.4735,-7.2467,-7.0337,-6.8501,-6.894,-6.866,-6.7616,-6.9026,-6.9321,-6.85,-7.0129,-7.0937,-7.1131,-7.381,-7.5957,-7.775,-7.9381,-7.9176,-7.7705,-7.7666,-7.7512,-7.7109,0.0,0.0,0.0,0.0,0.0,0.0,0.0,0.0,0.0,0.0,0.0,0.0,0.0,0.0,0.0,0.0,0.0,0.0,0.0,0.0,0.0,0.0,0.0,0.0,0.0,0.0,0.0,0.0,0.0,0.0,0.0,0.0,0.0,-7.3538,-7.5721,-7.719,-7.6848,-8.0489,-8.2535,-8.1288,-8.3437,-8.4446,-8.3401,-8.3111,-8.2512,-8.1484,-8.1224,-8.1093,-8.1093,-8.1054,-8.0631,-7.9746,-7.8092,-7.6784,-7.5784,-7.2476,-7.0437,-6.9513,-6.7051,-6.5397,-6.4474,-6.2832,-6.2101,-6.1985,-6.1127,-6.0781,-6.0927,-6.2075,-6.2017,-6.1253,-6.1073,-6.0988,-6.0991,0.0,0.0,0.0,0.0,0.0,0.0,0.0,-6.8348,-6.8201,-6.9596,-7.0293,-7.1332,-7.3074,-7.4724,-7.6175,-7.7345,-7.5871,-7.5351,-7.6604,-7.4375,-7.3083,-7.3156,-7.0293,0.0,-6.7941,-6.8263,-6.826,-6.7978,-6.9697,-7.0437,-7.0206,-7.0667,-7.166,-7.306,-7.4414,-7.6295,-7.8541,-7.9652,-8.0087,-8.0088,-7.9432,-7.8169,-7.6547,0.0,0.0,0.0,0.0,0.0,0.0,0.0,0.0,0.0,0.0,0.0,0.0,0.0,0.0,0.0,0.0,0.0,0.0,0.0,0.0,0.0,0.0,0.0,0.0,0.0,0.0,0.0,0.0,0.0,0.0,0.0,-7.3707,-7.4361,-7.4361,-7.6173,-7.843,-8.0933,-8.2395,-8.3643,-8.4687,-8.471,-8.4486,-8.3994,-8.3193,-8.2518,-8.2082,-8.1462,-8.1093,-8.1093,-8.0477,-7.9477,-7.8015,-7.6899,-7.4976,-7.2283,-7.136,-6.9821,-6.7782,-6.6474,-6.5089,-6.3589,-6.2551,-6.1755,-6.1127,-6.0896,-6.0781,-6.0843,-6.1162,-6.1136,-6.0933,-6.0899,-6.0828,-6.0856,0.0,0.0,0.0,0.0,0.0,0.0,0.0,-6.7981,-6.8164,-6.9412,-7.0881,-7.2312,-7.356,-7.5139,-7.6276,-7.6754,-7.5322,-7.4735,-7.5542,-7.4074,0.0,0.0,0.0,-6.8299,-6.8539,-6.8569,-6.8734,-6.8943,-7.0264,-7.0744,-7.0398,-7.1129,-7.2058,-7.321,-7.5103,-7.6984,-7.876,-7.9983,-8.0747,-8.1038,-8.0229,-7.9124,-7.778,-7.6369,-7.5456,-7.4744,-7.3167,-7.3195,-7.3634,-7.1908,0.0,0.0,0.0,0.0,0.0,0.0,0.0,0.0,0.0,0.0,0.0,0.0,0.0,0.0,0.0,0.0,0.0,0.0,0.0,0.0,0.0,0.0,0.0,0.0,-7.4855,-7.6015,-7.6746,-7.783,-7.9594,-8.2495,-8.3571,-8.4565,-8.5789,-8.5663,-8.5266,-8.466,-8.4028,-8.327,-8.2355,-8.1862,-8.1439,-8.1093,-8.0246,-7.9015,-7.7323,-7.6053,-7.4091,-7.1437,-7.036,-6.909,-6.759,-6.5667,-6.4282,-6.3231,-6.205,-6.1281,-6.0781,-6.0781,-6.0781,0.0,0.0,0.0,0.0,0.0,-6.0242,-6.0319,0.0,0.0,0.0,0.0,0.0,0.0,0.0,-6.7787,-6.7981,-6.8788,-7.0991,-7.2789,-7.3487,-7.5065,-7.6093,-7.6093,-7.4698,-7.4147,-7.4845,0.0,0.0,-7.044,-6.9596,-6.9342,-6.9731,-6.9616,-6.9815,-7.0293,-7.0814,-7.0744,-7.0167,-7.1552,-7.236,-7.2783,-7.5899,-7.7784,-7.8746,-8.04,-8.1093,-8.1061,-8.0352,-8.001,-7.9624,-7.7446,-7.6704,-7.6632,-7.5182,-7.3964,-7.2899,-7.2018,0.0,0.0,0.0,0.0,0.0,0.0,0.0,0.0,0.0,0.0,0.0,0.0,0.0,0.0,0.0,0.0,0.0,0.0,0.0,0.0,0.0,0.0,0.0,0.0,-7.6564,-7.813,-7.9708,-8.0208,-8.1012,-8.2687,-8.4273,-8.5358,-8.5732,-8.6363,-8.6418,-8.5536,-8.5204,-8.4287,-8.2532,-8.2285,0.0,0.0,0.0,-7.8861,-7.7169,-7.5438,-7.363,-7.1745,-6.9475,-6.8321,-6.8013,-6.4769,-6.3308,-6.3205,-6.1512,-6.0781,-6.0781,-6.0781,-6.0704,-6.0435,-5.9781,-5.9435,-5.9396,-5.9473,-5.9511,-5.9627,0.0,0.0,0.0,0.0,0.0,0.0,0.0,-6.8128,-6.7981,-6.8788,-7.0991,-7.2569,-7.2716,-7.4735,-7.6093,-7.6093,-7.5212,-7.4735,0.0,0.0,-7.1688,-7.2018,-7.1284,-7.0569,-7.0035,-7.0877,-7.1374,-7.1476,-7.1772,-7.2245,-7.2783,-7.236,-7.3283,-7.5322,-7.6669,-7.813,-7.9631,-8.0669,-8.1093,-8.1061,-8.0352,-7.9409,-7.8239,-7.6667,-7.575,-7.5124,-7.3545,-7.4441,-7.6136,-7.4698,-7.5129,-7.6201,-7.5487,0.0,0.0,0.0,0.0,0.0,0.0,0.0,0.0,0.0,0.0,0.0,0.0,0.0,0.0,0.0,0.0,0.0,0.0,0.0,0.0,-7.6457,-7.8022,-7.9669,-8.0708,-8.2631,-8.4096,-8.4623,-8.497,-8.5835,-8.7453,-8.698,-8.6735,-8.7177,-8.5169,-8.3765,-8.3378,-8.2054,-8.1246,-8.1093,-7.9554,-7.7938,-7.6284,-7.4591,-7.2168,-6.9129,0.0,0.0,-6.632,-6.4243,-6.3308,-6.3205,-6.1512,-6.0781,-6.0781,-6.0781,-6.0012,-5.8819,-5.9319,-5.9088,-5.8627,-5.9281,-5.9511,-5.9511,0.0,0.0,0.0,0.0,0.0,0.0,0.0,-6.8311,-6.8605,-6.9412,-7.0917,-7.2202,-7.301,-7.4184,-7.4882,-7.4882,-7.4147,0.0,0.0,-7.2569,0.0,-7.3083,-7.2349,-7.1908,-7.1908,-7.2664,-7.3048,-7.3048,-7.3308,-7.3668,-7.4091,-7.4091,-7.4784,-7.6053,-7.7784,-7.9015,-7.9862,-8.0746,-8.0888,-8.0517,-7.9908,-7.9063,-7.8091,-7.7386,-7.6653,-7.5989,-7.5212,-7.5689,-7.6594,-7.5715,-7.5968,-7.667,-7.6579,-7.6285,-7.6015,0.0,0.0,0.0,0.0,0.0,0.0,0.0,0.0,0.0,0.0,0.0,0.0,0.0,0.0,-7.7387,-7.5924,0.0,-7.7186,-7.7319,-7.9075,-8.09,-8.217,-8.417,-8.5405,-8.5101,-8.5786,-8.6669,-8.7655,-8.7677,-8.7601,-8.7562,-8.63,-8.5132,-8.4286,-8.3054,-8.2131,-8.1708,-7.9631,-7.79,-7.6669,-7.4553,-7.2437,-7.0283,-6.9013,-6.7975,-6.709,-6.4936,-6.3705,-6.3231,-6.1973,-6.1204,-6.0781,-6.0781,-6.005,-5.8934,-5.9358,-5.8473,-5.7088,-5.7934,-5.8511,-5.8973,0.0,0.0,0.0,0.0,0.0,0.0,0.0,-6.8348,-6.9009,-6.9963,-7.0807,-7.1872,-7.3303,-7.3597,-7.3707,-7.3707,0.0,0.0,0.0,0.0,0.0,0.0,0.0,-7.3413,-7.3927,-7.435,-7.4673,-7.4784,-7.4927,-7.5157,-7.5438,-7.6015,-7.6438,-7.6823,-7.89,-7.99,-8.0077,-8.0651,-8.0608,-8.0028,-7.9313,-7.8729,-7.8282,-7.8146,-7.7768,-7.7273,-7.7273,-7.668,-7.5919,-7.627,-7.608,-7.595,-7.7017,-7.7696,-7.7861,-7.6976,-7.7977,0.0,0.0,0.0,0.0,0.0,0.0,0.0,0.0,0.0,-7.7393,-7.6919,-7.7,-7.7001,-7.6319,-7.6737,-7.7508,-7.8511,-8.0295,-8.2131,-8.3632,-8.5286,-8.6094,-8.5478,-8.6748,-8.7632,-8.7632,-8.8286,-8.8402,-8.7709,-8.7325,-8.6478,-8.4978,-8.3901,-8.3016,-8.2324,-7.9823,-7.8092,-7.7323,-7.4784,-7.2899,-7.1668,-6.9475,-6.8231,-6.7859,-6.5628,-6.4128,-6.3231,-6.2281,-6.1447,-6.0781,-6.0781,-6.0281,-5.9511,-5.9511,-5.8165,-5.628,-5.6973,-5.778,-5.8588,0.0,0.0,0.0,0.0,0.0,0.0,0.0,0.0,-6.8385,-6.9889,-7.0807,-7.1651,-7.2532,-7.3266,-7.3707,-7.3707,0.0,0.0,0.0,0.0,0.0,0.0,0.0,0.0,0.0,0.0,-7.5894,-7.6444,-7.6197,-7.6786,-7.8054,-7.7438,-7.7938,-7.94,-7.9669,-8.0246,-8.0907,-8.0425,-8.0163,-7.9989,-7.8878,-7.8389,-7.8228,-7.7622,-7.7365,-7.7273,-7.7273,-7.6319,-7.5331,-7.7357,-7.7417,-7.7127,-7.9949,-8.0782,-8.0516,-7.9631,0.0,-7.713,-7.513,-7.3707,-7.3437,-7.6169,-7.5399,-7.5053,0.0,0.0,-7.8407,-7.8579,-7.8765,-7.8647,-7.7838,-7.836,-7.938,-8.0766,-8.2312,-8.367,-8.4632,-8.6209,-8.7209,-8.7132,-8.7979,-8.8556,-8.8556,-8.8632,-8.8671,-8.8556,-8.7132,-8.5863,-8.4939,-8.3324,-8.2401,-8.2285,-7.9823,-7.8092,-7.7323,-7.4784,-7.2322,-6.9975,-6.8898,-6.7628,-6.6128,-6.5089,-6.4128,-6.3205,-6.1627,-6.0896,-6.0781,-6.0781,-6.0281,-5.9511,-5.9511,-5.8896,-5.8011,-5.8127,-5.8665,-5.9281,0.0,0.0,0.0,0.0,0.0,0.0,0.0,0.0,0.0,0.0,-7.011,-7.0917,-7.1725,-7.2532,-7.301,0.0,0.0,0.0,0.0,0.0,0.0,0.0,0.0,0.0,0.0,0.0,0.0,0.0,0.0,0.0,-7.8756,-7.9291,-7.9592,-7.9862,-8.1362,-8.1716,-8.1208,-8.0984,-8.0444,-7.9663,-7.8697,-7.8072,-7.768,-7.7426,-7.698,-7.6607,-7.6607,-7.6398,0.0,0.0,-7.7636,-7.8385,-8.0558,-8.0833,-8.0285,-7.99,-7.9285,0.0,-7.5438,-7.4553,-7.4399,0.0,-7.5361,-7.6976,-7.9092,-7.94,-7.921,-7.9102,-7.9153,-7.8968,-7.8279,-7.915,-8.0257,0.0,-8.3075,-8.4632,-8.5478,-8.7094,-8.7979,-8.744,-8.9017,-8.994,-8.944,-8.9863,-8.9748,-8.8748,-8.7555,-8.6286,-8.4978,-8.3247,-8.2285,-8.2285,-7.9823,-7.8092,-7.7323,-7.4784,-7.2706,-7.1129,-6.9283,-6.8052,-6.7321,-6.5974,-6.4589,-6.3205,-6.1512,-6.0781,-6.0781,-6.0781,-6.0589,-6.0242,-6.0242,-6.005,-5.9627,-5.8665,-5.8819,-5.9435,0.0,0.0,0.0,0.0,0.0,0.0,0.0,0.0,0.0,0.0,-6.9412,-7.0146,-7.1183,-7.2018,0.0,0.0,0.0,0.0,0.0,0.0,0.0,0.0,0.0,0.0,0.0,0.0,0.0,0.0,0.0,0.0,0.0,0.0,0.0,0.0,0.0,-8.3456,-8.203,-8.2136,-8.1245,-7.9772,-7.9019,-7.8293,-7.7635,-7.7127,-7.6607,-7.6093,-7.6093,-7.6048,0.0,0.0,-7.7248,-7.8197,-8.0158,-8.0323,-7.9708,-7.9246,-7.8784,-7.79,-7.5668,0.0,0.0,-7.4284,-7.6399,-7.8977,-7.9438,-8.0075,-8.0366,-7.969,-7.9397,-7.9141,-7.8651,-7.9628,-8.0817,-8.1843,-8.3815,-8.5517,-8.6324,-8.7748,-8.8479,-8.7825,-8.9171,-9.0094,-8.994,-9.071,-9.0517,-8.8825,-8.8132,-8.6901,-8.5016,-8.3478,-8.2554,-8.2324,-7.9823,-7.8092,-7.7323,-7.4784,-7.2822,-7.1475,-6.9398,-6.8167,-6.7667,-6.5974,-6.4359,-6.2897,-6.1435,-6.0781,-6.0781,-6.0781,-6.0781,-6.0781,-6.0781,-6.0781,-6.0666,-5.9435,-5.9358,-5.9819,0.0,0.0,0.0,0.0,0.0,0.0,0.0,0.0,0.0,0.0,0.0,0.0,0.0,0.0,0.0,0.0,0.0,0.0,0.0,0.0,0.0,0.0,0.0,0.0,0.0,0.0,0.0,0.0,0.0,0.0,0.0,0.0,0.0,0.0,0.0,0.0,0.0,-8.4036,-8.2784,-8.0619,-8.0026,-7.9281,-7.8369,-7.6754,-7.613,-7.6093,-7.6093,0.0,0.0,0.0,-7.6093,-7.5844,-7.8891,-7.9823,0.0,-7.7861,-7.6169,-7.5014,-7.5745,0.0,-7.6361,-7.79,-7.9054,-8.0208,-8.1823,-8.2353,-8.2119,-8.0719,-7.9954,-7.9444,-7.9208,-7.9901,-8.1176,-8.3214,-8.4978,-8.6363,-8.7248,-8.8132,-8.8671,-8.8671,-8.7979,-8.8132,0.0,-9.071,-9.0517,-8.8825,-8.8671,-8.7555,-8.5016,-8.4055,-8.317,-8.2324,-7.9823,-7.8092,-7.7323,-7.4784,-7.2245,-6.9744,-6.8859,-6.7552,-6.5936,-6.4166,-6.2935,-6.2101,-6.1166,-6.0781,-6.0781,-6.0781,-6.0781,-6.0781,-6.0781,-6.0781,-6.0781,-6.0742,-6.0742,-6.0627,0.0,0.0,0.0,0.0,0.0,0.0,0.0,0.0,0.0,0.0,0.0,0.0,0.0,0.0,0.0,0.0,0.0,0.0,0.0,0.0,0.0,0.0,0.0,0.0,0.0,0.0,0.0,0.0,0.0,0.0,0.0,0.0,0.0,0.0,0.0,0.0,0.0,0.0,0.0,0.0,-7.9742,-7.8846,-7.8479,-7.7341,-7.624,-7.5345,0.0,0.0,0.0,0.0,0.0,-7.677,-7.7831,-7.813,-7.7784,-7.6092,-7.5553,-7.5399,-7.4553,-7.6399,-7.8515,-7.8477,-8.0439,-8.2747,-8.4439,-8.4114,-8.3223,-8.233,-8.0329,-7.8633,-7.838,-7.9108,-8.0363,-8.2424,-8.4632,-8.6401,-8.7286,-8.8594,-8.9094,-8.7979,-8.8556,0.0,0.0,0.0,0.0,-8.8709,-8.7132,-8.5555,-8.4093,-8.2708,-8.1823,-8.1516,-7.9554,-7.7823,-7.6438,-7.4476,-7.2206,-6.9667,-6.7705,-6.6128,-6.4974,-6.3281,-6.237,-6.2062,-6.1166,-6.0781,-6.0781,-6.0781,-6.0781,-6.0781,-6.0781,-6.0781,-6.0781,-6.0781,-6.0781,-6.0777,0.0,0.0,0.0,0.0,0.0,0.0,0.0,0.0,0.0,0.0,0.0,0.0,0.0,0.0,0.0,0.0,0.0,0.0,0.0,0.0,0.0,0.0,0.0,0.0,0.0,0.0,0.0,0.0,0.0,0.0,0.0,0.0,0.0,0.0,0.0,0.0,0.0,0.0,0.0,0.0,0.0,0.0,-7.8002,-7.657,-7.5395,0.0,0.0,0.0,0.0,0.0,0.0,-7.6492,-7.6492,-7.5972,-7.5277,-7.4948,-7.5034,-7.5273,-7.5278,-7.7707,-8.0285,-8.0323,-8.2401,-8.4863,-8.6247,-8.5475,-8.4164,-8.3214,-8.0479,-7.8096,-7.7565,-7.7883,-7.8917,-8.1058,-8.3285,-8.5363,-8.7132,-8.8055,-8.8479,-8.8325,-8.844,-8.8363,0.0,0.0,0.0,-8.7709,-8.6555,-8.5016,-8.3208,-8.2093,-8.14,-8.1093,-7.9131,-7.74,-7.6015,-7.3707,-7.1283,-6.8744,-6.6513,-6.4974,-6.4089,-6.2704,-6.1947,-6.1601,-6.105,-6.0781,-6.0781,-6.0781,-6.0781,-6.0781,-6.0781,-6.0781,-6.0781,-6.0781,-6.0781,-6.0827,0.0,0.0,0.0,0.0,0.0,0.0,0.0,0.0,0.0,0.0,0.0,0.0,0.0,0.0,0.0,0.0,0.0,0.0,0.0,0.0,0.0,0.0,0.0,0.0,0.0,0.0,0.0,0.0,0.0,0.0,0.0,0.0,0.0,0.0,0.0,0.0,0.0,0.0,0.0,0.0,0.0,0.0,-7.709,-7.4771,0.0,0.0,0.0,0.0,0.0,0.0,0.0,0.0,-7.513,-7.3686,-7.246,-7.4543,-7.4669,-7.4771,-7.777,-7.9862,-8.1631,-8.3324,-8.4978,-8.644,-8.7286,-8.6417,-8.497,-8.328,-8.0366,-7.7797,0.0,0.0,-7.7049,-7.9399,-8.1323,-8.3632,-8.694,-8.6786,-8.7248,0.0,0.0,0.0,0.0,0.0,0.0,-8.594,0.0,-8.5709,-8.2477,-8.2247,-8.1862,-8.1054,-7.8592,-7.6823,-7.5861,-7.2437,-6.9475,-6.709,-6.5359,-6.4089,-6.3281,-6.2397,-6.1601,-6.0781,-6.0781,-6.0781,-6.0781,-6.0781,-6.0781,-6.0781,-6.0781,-6.0781,-6.0781,-6.0781,-6.0781,-6.0827,0.0,0.0,0.0,0.0,0.0,0.0,0.0,0.0,0.0,0.0,0.0,0.0,0.0,0.0,0.0,0.0,0.0,0.0,0.0,0.0,0.0,0.0,0.0,0.0,0.0,0.0,0.0,0.0,0.0,0.0,0.0,0.0,0.0,0.0,0.0,0.0,0.0,0.0,0.0,0.0,0.0,0.0,-7.8148,0.0,0.0,0.0,0.0,0.0,0.0,0.0,0.0,0.0,0.0,-7.5276,-7.5247,-7.5836,-7.6637,-7.7623,-7.9062,-8.117,-8.3362,-8.5055,-8.6748,-8.8094,-8.8325,-8.7217,-8.5312,-8.242,-7.9305,-7.6572,0.0,0.0,0.0,-7.9438,-8.2785,0.0,-8.7171,-8.8825,0.0,-8.9094,0.0,-8.8632,-8.7825,-8.7132,0.0,0.0,-8.3824,-8.3208,-8.2362,-8.1747,-8.1016,-8.0169,-7.8284,-7.6284,-7.4168,-7.009,-6.7744,-6.7051,-6.4743,-6.3512,-6.3231,-6.1781,-6.1012,-6.0781,-6.0781,-6.0781,-6.0781,-6.0781,-6.0781,-6.0781,-6.0781,-6.0781,-6.0781,-6.0781,-6.0781,-6.0823,0.0,0.0,0.0,0.0,0.0,0.0,0.0,0.0,0.0,0.0,0.0,0.0,0.0,0.0,0.0,0.0,0.0,0.0,0.0,0.0,0.0,0.0,0.0,0.0,0.0,0.0,0.0,0.0,0.0,0.0,0.0,0.0,0.0,0.0,0.0,0.0,0.0,0.0,0.0,0.0,0.0,0.0,0.0,0.0,0.0,0.0,0.0,0.0,0.0,0.0,0.0,-7.5167,-7.562,-7.5652,-7.5842,-7.7173,0.0,-7.9117,-8.0968,-8.3054,-8.5093,-8.6824,-8.8248,-8.8965,-8.7942,-8.6737,-8.4677,-8.0718,-7.7779,0.0,-7.3571,-7.4278,0.0,0.0,0.0,0.0,-8.7055,-8.8632,-8.9594,0.0,-8.9556,0.0,-8.7517,-8.6748,-8.5401,0.0,-8.2939,-8.2554,-8.1823,-8.1362,-8.0708,-7.9823,-7.7784,-7.4976,-7.1321,-6.8475,-6.6898,-6.6551,-6.4359,-6.3308,-6.3231,-6.155,-6.0781,-6.0781,0.0,-6.0781,-6.0781,-6.0781,-6.0781,-6.0781,-6.0781,-6.0781,-6.0781,-6.0781,-6.0781,-6.0834,0.0,0.0,0.0,0.0,0.0,0.0,0.0,0.0,0.0,0.0,0.0,0.0,0.0,0.0,0.0,0.0,0.0,0.0,0.0,0.0,0.0,0.0,0.0,0.0,0.0,0.0,0.0,0.0,0.0,0.0,0.0,0.0,0.0,0.0,0.0,0.0,0.0,0.0,0.0,0.0,0.0,0.0,0.0,0.0,0.0,0.0,0.0,0.0,0.0,0.0,-7.5761,-7.5288,-7.6155,-7.6152,-7.6381,-7.8945,-7.9803,-8.054,-8.3358,-8.517,-8.6709,-8.844,-8.9286,-8.9143,-8.685,-8.5604,-8.3555,-7.8788,0.0,-7.446,-7.2761,-7.3108,-7.4553,-7.7207,0.0,-8.2901,-8.7132,-8.7748,-8.8594,-9.0941,-8.9825,-8.8479,-8.7478,-8.5901,-8.417,-8.2439,-8.2901,-8.2631,-8.117,-8.1093,-8.0554,-7.9323,-7.6707,-7.3091,-6.8462,-6.7436,-6.659,-6.5859,-6.4128,-6.3308,-6.3231,-6.155,-6.0781,-6.0781,-6.0781,-6.0781,-6.0781,-6.0781,-6.0781,-6.0781,-6.0781,-6.0781,-6.0781,-6.0781,-6.0781,-6.0834,0.0,0.0,0.0,0.0,0.0,0.0,0.0,0.0,0.0,0.0,-7.0917,0.0,0.0,0.0,0.0,0.0,0.0,0.0,0.0,0.0,0.0,0.0,0.0,0.0,0.0,0.0,0.0,0.0,0.0,0.0,0.0,0.0,0.0,0.0,0.0,0.0,0.0,0.0,0.0,0.0,0.0,0.0,0.0,0.0,0.0,0.0,0.0,0.0,0.0,0.0,-7.7469,-7.7965,-7.8106,-8.0181,-8.251,-8.233,-8.3513,-8.5126,-8.6385,-8.694,-8.7594,-8.9286,-8.9286,-8.8298,-8.6029,-8.4669,0.0,0.0,-7.5642,-7.4243,-7.2553,-7.3457,-7.5553,-7.8861,0.0,0.0,0.0,-8.9479,-8.9902,0.0,-9.0325,-8.9094,-8.7555,-8.5901,0.0,0.0,-8.1823,-8.14,-8.1131,-8.1093,-7.9746,-7.6746,-7.3476,-7.0706,-6.8436,-6.6898,-6.6051,-6.5859,-6.4128,-6.3308,-6.3231,-6.155,-6.0781,-6.0781,-6.0781,0.0,-6.0781,-6.0781,-6.0781,-6.0781,-6.0781,-6.0781,-6.0781,-6.0781,-6.0781,-6.0834,0.0,0.0,0.0,0.0,0.0,0.0,0.0,0.0,0.0,-7.3964,-7.334,-7.2716,0.0,0.0,0.0,0.0,0.0,0.0,0.0,0.0,0.0,0.0,0.0,0.0,0.0,0.0,0.0,0.0,0.0,0.0,0.0,0.0,0.0,0.0,0.0,0.0,0.0,0.0,0.0,0.0,0.0,0.0,0.0,0.0,0.0,0.0,0.0,0.0,0.0,0.0,-7.8185,-7.9286,-7.9727,-8.1242,-8.2971,-8.3448,-8.4795,-8.6478,-8.8248,-8.8709,-8.9094,-9.0825,-8.9979,-8.7875,-8.4672,0.0,0.0,0.0,-7.4533,-7.3707,-7.2437,0.0,0.0,0.0,0.0,0.0,0.0,0.0,0.0,0.0,-8.9402,-8.794,0.0,-8.4555,-8.3016,-8.1785,-8.1323,-8.1093,-8.1093,-7.9823,-7.7746,-7.4784,-7.1822,-6.9436,-6.7744,-6.6051,-6.5205,-6.5205,-6.3474,-6.2666,-6.2627,-6.1358,-6.0781,-6.0781,-6.0781,-6.0781,-6.0781,-6.0781,-6.0781,-6.0781,-6.0781,-6.0781,-6.0858,-6.132,-6.1166,-6.0888,0.0,0.0,0.0,0.0,0.0,0.0,0.0,-7.1431,-7.2055,-7.6093,-7.5946,-7.5139,-7.4294,-7.3487,-7.2899,0.0,0.0,0.0,0.0,0.0,0.0,0.0,0.0,0.0,0.0,0.0,0.0,-7.7734,0.0,0.0,0.0,0.0,0.0,0.0,0.0,0.0,0.0,0.0,0.0,0.0,0.0,0.0,0.0,0.0,0.0,0.0,0.0,0.0,0.0,0.0,-7.8185,-7.9391,-8.0173,-8.1243,-8.2443,-8.3599,-8.5214,-8.7132,-8.9325,-9.0171,-9.0787,-9.2172,-9.0485,-8.7461,-8.3563,-8.1645,0.0,0.0,-7.3958,-7.3553,-7.286,0.0,0.0,0.0,0.0,0.0,0.0,0.0,0.0,0.0,0.0,0.0,-8.5055,-8.3324,0.0,-8.117,-8.0821,-8.069,-8.0823,-7.8246,-7.5745,-7.3591,-7.0667,-6.8475,-6.709,-6.5243,-6.4436,-6.4589,-6.2897,-6.2101,-6.2062,-6.1204,-6.0781,-6.0781,-6.0781,-6.0781,-6.0781,-6.0781,-6.0781,-6.0781,-6.0781,-6.0896,-6.1166,-6.187,-6.1678,-6.1212,0.0,0.0,0.0,0.0,0.0,0.0,0.0,-7.2386,-7.3744,-7.7818,-7.7635,-7.676,-7.5983,-7.5175,-7.4111,0.0,0.0,0.0,0.0,0.0,0.0,0.0,0.0,0.0,0.0,0.0,0.0,-7.6926,-7.968,0.0,0.0,0.0,0.0,0.0,0.0,-7.7273,0.0,0.0,0.0,0.0,0.0,0.0,0.0,0.0,0.0,0.0,0.0,0.0,0.0,0.0,0.0,-7.7616,-7.8256,-8.0986,-8.3839,-8.3222,0.0,0.0,-8.9633,-9.1056,-9.2287,-9.2441,-9.0148,-8.6885,-8.3484,0.0,0.0,-7.5567,-7.4763,-7.4591,-7.4476,0.0,0.0,0.0,0.0,0.0,0.0,0.0,0.0,0.0,0.0,0.0,0.0,-8.3324,-8.1977,-8.117,-7.9863,-7.9351,-7.9885,-7.6746,-7.4514,-7.3538,-6.9475,-6.7244,-6.709,-6.4666,-6.382,-6.4589,-6.2897,-6.2101,-6.2062,-6.1204,-6.0781,-6.0781,-6.0781,-6.0781,0.0,-6.0781,-6.0781,-6.0781,-6.0781,-6.1293,-6.1985,-6.2062,-6.2062,-6.2021,0.0,0.0,0.0,0.0,0.0,0.0,0.0,-7.312,-7.4331,-7.9396,-7.8919,-7.8148,-7.8295,-7.7598,-7.5873,0.0,0.0,0.0,0.0,0.0,0.0,0.0,0.0,0.0,0.0,0.0,-7.7583,-7.824,-8.0157,0.0,0.0,0.0,0.0,0.0,0.0,-7.7273,-7.7273,0.0,0.0,0.0,0.0,0.0,0.0,0.0,0.0,0.0,0.0,0.0,0.0,0.0,0.0,0.0,-7.6736,-7.8079,0.0,0.0,-8.4767,-8.8209,-8.9556,-9.1518,-9.3138,-9.2735,-8.9794,-8.6344,-8.39,0.0,0.0,-7.664,-7.5488,-7.4707,-7.4707,0.0,0.0,0.0,0.0,0.0,0.0,0.0,0.0,0.0,0.0,0.0,0.0,0.0,-8.0306,-7.9118,-7.7564,-7.6406,-7.5817,-7.4278,-7.2517,-7.05,-6.7782,-6.5859,-6.482,-6.332,-6.2743,-6.3089,-6.1897,-6.132,-6.132,-6.0973,-6.0781,-6.0781,-6.0781,-6.0781,0.0,-6.0781,-6.0781,-6.0781,-6.0781,-6.132,-6.2178,-6.2627,-6.2512,-6.219,0.0,0.0,0.0,0.0,0.0,0.0,-7.4147,-7.3597,-7.4625,-7.9653,-7.9066,-7.8699,-8.0021,-7.8772,-7.69,-7.4515,0.0,0.0,0.0,0.0,0.0,0.0,0.0,0.0,0.0,0.0,-7.7998,-7.9091,-8.0458,-8.0445,0.0,0.0,-7.8525,-7.7273,0.0,0.0,0.0,0.0,0.0,0.0,0.0,0.0,0.0,0.0,0.0,0.0,0.0,0.0,0.0,0.0,0.0,0.0,0.0,0.0,0.0,0.0,-8.3463,-8.7094,-8.9017,-9.1402,-9.3291,-9.3037,-8.9714,-8.6004,0.0,0.0,0.0,-7.7001,-7.5938,-7.5091,-7.5091,0.0,0.0,0.0,0.0,0.0,0.0,0.0,0.0,0.0,0.0,-7.9631,0.0,-7.9746,-7.8459,-7.7071,-7.5456,-7.3878,-7.2297,-7.1333,-6.9925,-6.7875,-6.5846,-6.4282,-6.3308,-6.2243,-6.1831,-6.2101,-6.1216,-6.0781,-6.0781,-6.0781,-6.0781,-6.0781,-6.0781,-6.0781,0.0,-6.0781,-6.0781,-6.0819,-6.1089,-6.1704,-6.2512,-6.3089,-6.2935,-6.2524,0.0,0.0,0.0,0.0,0.0,0.0,0.0,-7.3707,-7.4882,-7.8185,-7.7855,-7.8227,-8.0718,-7.8075,-7.679,-7.8405,0.0,0.0,0.0,0.0,0.0,0.0,0.0,0.0,0.0,0.0,-7.8904,-7.8904,-8.04,-8.0445,-7.9198,-7.9198,-7.8525,-7.7273,0.0,0.0,0.0,0.0,0.0,0.0,0.0,0.0,-7.7273,0.0,0.0,0.0,0.0,0.0,0.0,0.0,0.0,0.0,0.0,0.0,0.0,0.0,-8.1778,-8.5478,-8.8017,-9.0556,-9.271,-9.348,-9.0072,-8.599,0.0,0.0,0.0,-7.6233,-7.6015,-7.5976,-7.5976,0.0,0.0,0.0,0.0,0.0,0.0,0.0,0.0,0.0,0.0,-7.5438,-7.7169,-7.7323,-7.6747,-7.5333,-7.3853,0.0,-7.023,-6.7997,-6.6654,-6.6434,-6.3641,-6.2512,-6.3269,-6.1666,-6.1243,-6.2101,-6.1216,-6.0781,-6.0781,-6.0781,-6.0781,-6.0781,-6.0781,-6.0781,0.0,-6.0781,-6.0781,-6.0896,-6.1755,-6.2589,-6.3269,-6.3308,-6.3269,-6.3202,0.0,0.0,0.0,0.0,0.0,0.0,0.0,-7.1578,-7.2386,-7.5652,-7.5359,-7.5983,-7.9029,-7.7414,-7.6533,-7.7635,0.0,0.0,0.0,0.0,0.0,0.0,0.0,0.0,0.0,-7.7941,-7.9171,-7.9705,-8.0651,-8.0445,-7.9198,-7.9198,-7.8525,-7.7273,-7.7273,-7.7273,0.0,0.0,0.0,0.0,0.0,-7.7273,-7.7273,0.0,0.0,0.0,0.0,0.0,0.0,0.0,0.0,0.0,0.0,0.0,0.0,-7.7313,-8.0344,-8.3439,-8.4824,-8.7517,-8.9717,-8.8863,-8.6676,-8.4248,-8.2435,0.0,0.0,-7.7001,-7.6399,-7.6015,-7.6015,0.0,0.0,0.0,0.0,0.0,0.0,0.0,0.0,0.0,0.0,-7.7938,0.0,0.0,-7.5277,-7.3795,-7.1325,-6.9162,-6.7396,-6.5326,-6.4489,-6.5175,-6.3155,-6.1935,-6.1589,-6.105,-6.0935,-6.1204,-6.0935,-6.0781,-6.0781,-6.0781,-6.0781,-6.0781,-6.0781,-6.0781,-6.0781,-6.0781,-6.0781,-6.0896,-6.1755,-6.2589,-6.3308,-6.3308,-6.3308,-6.3178,0.0,0.0,0.0,0.0,0.0,0.0,0.0,-7.0403,-7.0917,-7.3266,-7.312,-7.4147,-7.7745,-7.6644,-7.635,-7.8112,0.0,0.0,0.0,0.0,0.0,0.0,0.0,0.0,-7.673,-7.8714,-8.0116,-8.094,-8.1392,-8.0965,-7.9712,-7.9728,-7.8895,-7.7273,-7.7273,-7.7273,0.0,0.0,0.0,0.0,-7.7273,-7.7273,-7.7273,0.0,0.0,0.0,0.0,0.0,0.0,0.0,0.0,0.0,0.0,0.0,0.0,0.0,-7.8746,-8.1246,0.0,-8.5632,-8.7564,-8.6853,-8.4997,0.0,0.0,0.0,0.0,0.0,0.0,0.0,0.0,0.0,0.0,0.0,0.0,0.0,0.0,0.0,0.0,-7.4394,0.0,0.0,0.0,-7.4002,-7.2775,-7.1438,-6.8713,-6.6613,-6.5416,-6.3573,-6.2905,-6.3641,-6.232,-6.137,-6.0819,-6.0781,-6.0627,-6.0319,-6.0627,-6.0627,-6.0319,-6.0666,-6.0781,-6.0781,-6.0781,-6.0781,0.0,-6.0781,-6.0973,-6.1331,-6.1908,-6.2589,-6.3281,-6.2974,-6.2858,-6.2716,0.0,0.0,0.0,0.0,0.0,0.0,0.0,0.0,0.0,0.0,-7.1211,-7.265,-7.6466,-7.5586,-7.6019,0.0,0.0,0.0,0.0,0.0,0.0,0.0,0.0,0.0,-7.7019,-7.966,-8.1391,-8.2122,-8.2225,-8.1621,-8.0358,-8.0469,-7.9377,-7.7273,-7.7273,-7.7273,0.0,0.0,0.0,-7.7273,-7.7273,-7.7273,0.0,0.0,0.0,0.0,0.0,0.0,0.0,0.0,0.0,0.0,0.0,0.0,0.0,0.0,0.0,0.0,0.0,-8.4429,-8.5868,-8.6671,-8.4462,-8.183,0.0,0.0,0.0,0.0,0.0,0.0,0.0,0.0,0.0,0.0,0.0,0.0,0.0,-7.087,0.0,0.0,-7.2437,0.0,-7.1405,-7.0591,-6.9683,-6.8599,-6.6187,-6.4593,-6.4237,-6.2617,-6.1804,-6.2,-6.1216,-6.0781,-6.0704,-6.0704,-6.0281,-5.9435,-6.0281,-6.0281,-5.9511,-6.0396,-6.0781,0.0,-6.0781,-6.0781,-6.0781,-6.0781,-6.132,-6.2101,-6.2101,-6.2589,-6.3192,-6.2397,-6.2101,-6.1982,0.0,0.0,0.0,0.0,0.0,0.0,0.0,0.0,0.0,0.0,-7.0,-7.0991,-7.254,-7.2936,-7.3891,0.0,0.0,0.0,0.0,0.0,0.0,0.0,0.0,0.0,-7.9071,-7.991,-8.041,-8.0601,-8.0178,-7.9595,-7.8835,-7.8874,-7.8302,-7.7273,-7.7273,-7.7273,0.0,0.0,-7.7273,-7.7273,-7.7273,-7.6907,0.0,0.0,0.0,0.0,-7.5175,-7.4661,0.0,0.0,0.0,0.0,0.0,0.0,0.0,0.0,-7.7707,-7.8723,-7.9716,0.0,-8.1496,-8.159,-8.0618,-7.9448,0.0,0.0,0.0,0.0,0.0,0.0,0.0,0.0,0.0,0.0,0.0,0.0,-7.1788,0.0,0.0,-7.4077,-7.4707,-7.3883,-7.0789,-6.9927,-6.9028,-6.7718,-6.4914,-6.3311,-6.3295,-6.1749,-6.0947,-6.1115,-6.0896,-6.0473,-5.9819,-5.9819,-5.9396,-5.8588,-5.9396,-5.9704,-5.9511,-6.0396,-6.0781,-6.0781,-6.0781,-6.0781,-6.0781,-6.0781,-6.132,-6.2101,-6.2101,-6.2589,-6.3192,-6.2397,-6.2101,-6.187,0.0,0.0,0.0,0.0,0.0,0.0,0.0,0.0,0.0,0.0,0.0,0.0,0.0,0.0,0.0,0.0,0.0,0.0,0.0,0.0,0.0,0.0,0.0,-7.8213,-7.934,-7.9838,-8.0315,-8.0697,-8.0141,-7.9538,-7.883,-7.8981,-7.8389,-7.7273,-7.7273,-7.7273,-7.7273,-7.7273,-7.7273,-7.7273,-7.7273,0.0,0.0,0.0,0.0,0.0,-7.4918,-7.4147,0.0,-7.356,-7.3971,-7.4369,0.0,0.0,0.0,0.0,-7.7339,-7.8122,-7.8236,-7.9152,-8.0068,-7.996,-7.909,-7.8157,-7.7462,0.0,0.0,0.0,0.0,0.0,0.0,0.0,0.0,0.0,-7.0337,0.0,0.0,0.0,-7.3245,-7.4053,-7.333,-7.1953,0.0,-6.8294,-6.6752,-6.5319,-6.3026,-6.1781,-6.1883,-6.0317,-5.9694,-6.0181,-5.9858,-5.9781,-6.0089,-5.9704,-5.9088,-5.8319,-5.9127,-5.9319,-5.8973,-6.0242,-6.0781,-6.0781,-6.0781,-6.0781,-6.0781,-6.0781,-6.132,-6.2062,-6.1678,-6.2012,-6.2666,-6.182,-6.1243,-6.0781,0.0,0.0,0.0,0.0,0.0,0.0,0.0,0.0,0.0,0.0,0.0,0.0,0.0,0.0,0.0,0.0,0.0,0.0,0.0,0.0,0.0,0.0,0.0,-7.829,-7.9207,-7.9705,-8.0311,-8.1035,-8.0716,-8.0199,-7.9549,-7.9701,-7.8919,-7.731,-7.742,-7.742,-7.7273,-7.7273,-7.7273,-7.7273,-7.7273,0.0,0.0,0.0,0.0,0.0,0.0,0.0,0.0,-7.2933,-7.3552,-7.4202,-7.487,0.0,0.0,0.0,0.0,0.0,-7.751,-7.8633,-7.974,-7.9626,-7.8252,-7.6903,-7.6815,0.0,0.0,0.0,0.0,0.0,0.0,-7.0194,0.0,0.0,0.0,0.0,-7.1126,-7.1283,-7.1783,-7.3129,-7.0808,0.0,-6.8846,-6.6448,-6.4262,-6.2745,-6.1299,-6.0537,-6.0583,-5.9084,-5.8593,-5.945,-5.8704,-5.8973,-6.0396,-5.955,-5.8704,-5.7896,-5.8742,-5.8742,-5.8165,-5.9819,-6.0589,-6.0589,0.0,0.0,-6.0819,-6.0935,-6.1435,-6.2024,-6.1293,-6.1447,-6.1985,-6.1127,-6.0319,-5.9677,0.0,0.0,0.0,0.0,0.0,0.0,0.0,0.0,0.0,0.0,0.0,0.0,0.0,0.0,0.0,0.0,0.0,0.0,0.0,0.0,0.0,-7.747,-7.8067,-7.9114,-8.0728,-7.985,-7.9411,-7.9524,-7.9799,-7.9841,-7.9762,-7.979,-7.8919,-7.731,-7.8075,-7.8002,-7.7273,-7.7273,-7.7273,-7.7273,-7.7273,0.0,0.0,0.0,0.0,0.0,0.0,0.0,0.0,-7.0557,-7.1589,-7.3191,-7.3061,0.0,0.0,0.0,0.0,0.0,-7.7075,-7.7758,-7.8148,-7.7408,-7.5628,-7.4131,-7.4351,0.0,0.0,0.0,0.0,0.0,0.0,-7.005,-6.9588,0.0,0.0,-7.2035,0.0,0.0,-7.2937,-7.2476,0.0,-6.9022,-6.6409,-6.5436,-6.4025,-6.1936,-6.1291,-6.0866,-6.0601,-5.9381,-5.8942,-5.9462,-5.8704,-5.8434,-5.8665,-5.7819,-5.6934,-5.6126,-5.6983,-5.733,-5.7253,-5.8934,-5.9704,-5.9742,0.0,-6.0781,-6.0858,-6.1601,-6.1985,-6.2101,-6.1947,-6.1985,-6.1985,-6.1127,-6.0704,-6.0426,0.0,0.0,0.0,0.0,0.0,0.0,0.0,0.0,0.0,0.0,0.0,0.0,0.0,0.0,0.0,0.0,0.0,0.0,0.0,0.0,0.0,-7.7551,-7.8306,-7.9237,-8.0346,-7.9599,-7.9651,-8.0495,-8.0451,-8.0681,-8.1085,-8.0204,-7.9351,-7.8483,-7.8075,-7.7878,-7.7826,-7.745,-7.7273,-7.7273,0.0,0.0,0.0,0.0,0.0,0.0,0.0,0.0,0.0,0.0,-7.192,-7.3116,-7.3763,0.0,0.0,0.0,0.0,0.0,-7.5134,-7.5068,-7.5119,-7.5544,-7.5716,-7.5622,-7.4733,0.0,0.0,0.0,0.0,0.0,0.0,0.0,-7.0758,-7.1663,0.0,-6.9891,-7.102,-7.0703,-7.004,0.0,0.0,-6.7051,-6.539,-6.4338,-6.2962,-6.1104,-6.1048,-6.0536,-5.9319,-5.8555,-5.8156,-5.8154,-5.7319,-5.6896,-5.6896,-5.6511,-5.6329,-5.6406,-5.728,-5.7703,-5.7742,-5.9435,-6.0204,-6.0204,0.0,-6.0781,-6.0819,-6.1243,-6.1408,-6.1408,-6.1408,-6.1408,-6.1243,-5.9935,-5.9435,-5.9243,0.0,0.0,0.0,0.0,0.0,0.0,0.0,0.0,0.0,0.0,0.0,0.0,0.0,0.0,0.0,0.0,0.0,0.0,0.0,0.0,-7.682,-7.7284,-7.8332,-7.915,-7.9668,-7.9778,-8.0442,-8.1658,-8.2177,-8.2614,-8.2955,-8.1518,-8.043,-7.9679,-7.8372,-7.7974,-7.8255,-7.7599,-7.7273,-7.7273,0.0,0.0,0.0,0.0,0.0,0.0,0.0,0.0,0.0,0.0,0.0,0.0,0.0,0.0,0.0,-7.4961,-7.4642,-7.416,-7.3398,-7.297,-7.2918,-7.3885,0.0,0.0,-7.5494,-7.4272,0.0,0.0,0.0,0.0,0.0,-7.0493,0.0,-7.1541,-6.9704,-6.8527,-6.9582,-6.8753,-6.778,-6.7089,-6.6086,-6.5223,-6.465,-6.3366,-6.1924,-6.0529,-6.0678,-6.0013,-5.8206,-5.7757,-5.7429,-5.7011,-5.6126,-5.5703,-5.5703,-5.5703,-5.6049,-5.6714,-5.7357,-5.7819,-5.805,-5.955,-6.0319,-6.0512,-6.0704,-6.0781,-6.0819,-6.1204,-6.1166,-6.0819,-6.1243,-6.1166,-6.0627,-5.9127,-5.8473,-5.8126,0.0,0.0,0.0,0.0,0.0,0.0,0.0,0.0,0.0,0.0,0.0,0.0,0.0,0.0,0.0,0.0,0.0,0.0,0.0,0.0,-7.699,-7.6407,-7.8008,-7.8993,-7.9222,-8.0863,-8.1764,-8.1876,-8.5037,-8.6148,-8.5343,-8.4421,-8.2723,-8.0396,-7.9669,-7.8962,-7.8255,-7.7599,-7.7273,-7.7237,-7.6497,0.0,0.0,0.0,0.0,0.0,0.0,0.0,0.0,0.0,0.0,0.0,0.0,0.0,-7.5017,-7.4506,-7.3949,-7.3338,-7.2742,-7.2933,-7.3143,-7.2472,-7.1292,0.0,-7.538,-7.3832,-7.2138,-7.4119,0.0,0.0,0.0,-6.9573,-6.9013,-6.884,-7.0113,-7.1114,-7.1225,0.0,-6.8868,-6.7774,-6.6027,-6.4635,-6.3867,-6.2516,-6.1337,-6.0456,-6.0159,-5.9435,-5.8168,-5.7757,-5.7429,-5.7011,-5.6126,-5.5703,-5.5703,-5.5703,-5.5742,-5.578,-5.5857,-5.6319,-5.7137,-5.805,-5.8896,-5.9627,-6.0435,-6.0781,-6.0935,-6.2474,-6.2204,-6.0935,-6.2512,-6.2166,-6.0704,-5.9742,-5.8934,-5.8203,0.0,0.0,0.0,0.0,0.0,0.0,0.0,0.0,0.0,0.0,0.0,0.0,0.0,0.0,0.0,0.0,0.0,0.0,0.0,-7.6322,-7.687,-7.5842,-7.7392,-7.7739,-7.654,-8.0061,-8.2908,-8.4889,-8.5816,-8.6291,-8.6229,-8.3392,-8.1667,-8.0937,-7.9441,-7.851,-7.8016,-7.6992,-7.6276,-7.5769,-7.5506,-7.4882,0.0,0.0,0.0,0.0,0.0,0.0,0.0,0.0,-7.2088,-7.3233,0.0,0.0,0.0,-7.4358,-7.3615,-7.2567,-7.1332,-7.1545,-7.205,-7.1935,-7.0794,0.0,0.0,-7.4615,-7.39,-7.4542,-7.3937,-7.2537,-7.0135,0.0,-6.7814,-6.7755,-6.8105,-6.8166,-6.7703,-6.7014,-6.5956,-6.4123,-6.3553,-6.291,-6.1763,-6.1174,-6.0529,-5.9698,-5.9344,-5.8612,-5.7418,-5.6781,-5.6335,-5.6192,-5.5638,-5.5435,-5.5703,-5.5703,-5.5703,-5.5703,-5.6252,-5.6676,-5.706,-5.8434,-5.9204,-5.955,-6.0435,-6.0781,-6.0858,-6.1473,-6.1358,-6.0858,-6.1512,-6.1358,-6.0627,-5.9281,-5.855,-5.8126,0.0,0.0,0.0,0.0,0.0,0.0,0.0,0.0,0.0,0.0,0.0,0.0,0.0,0.0,0.0,0.0,0.0,0.0,-7.4668,-7.6322,-7.6748,-7.5544,-7.6799,-7.7067,-7.6086,-7.9697,-8.2816,-8.5306,-8.5869,-8.6057,-8.5806,-8.2509,-8.1061,-8.1136,-7.8803,-7.789,-7.7907,-7.6356,-7.5395,-7.4882,-7.4625,-7.4184,0.0,0.0,0.0,0.0,0.0,0.0,0.0,0.0,-7.2601,0.0,0.0,0.0,0.0,0.0,-7.3115,-7.1835,-7.0477,-7.033,-7.0595,-7.0721,0.0,0.0,-7.3934,-7.4519,-7.4514,-7.5101,-7.3691,-7.1606,-6.9246,0.0,0.0,0.0,-6.5875,-6.5632,-6.4537,-6.4076,-6.3146,-6.1325,-6.147,-6.13,-6.0136,-6.0015,-5.9685,-5.8877,-5.8378,-5.7635,-5.6589,-5.586,-5.5527,-5.5682,-5.5287,-5.5275,-5.5703,-5.5703,-5.5703,-5.5703,-5.6291,-5.6868,-5.7434,-5.8588,-5.9396,-5.9935,-6.055,-6.0781,-6.0819,-6.1089,-6.1204,-6.1166,-6.0589,-6.0396,-6.0204,-5.8511,-5.7896,-5.7741,0.0,0.0,0.0,0.0,0.0,0.0,0.0,0.0,0.0,0.0,0.0,0.0,0.0,0.0,0.0,0.0,0.0,0.0,-7.4707,-7.6322,-7.6748,-7.5544,-7.6233,-7.7267,-7.851,-8.0131,-8.1379,-8.2223,-8.5416,-8.5973,-8.3941,-8.2321,-8.1381,-8.0946,-7.8017,-7.7161,-7.7832,-7.5764,-7.4882,-7.4808,-7.4001,-7.367,-7.3597,0.0,0.0,0.0,0.0,0.0,0.0,0.0,-7.3198,-7.3516,0.0,0.0,0.0,0.0,-7.2378,-7.1109,-7.0293,-6.9522,-6.884,0.0,0.0,0.0,-7.317,-7.3295,-7.3392,-7.5853,-7.24,-6.8641,-6.7747,-6.5851,0.0,-6.2519,-6.3742,-6.4286,-6.2609,-6.1888,-6.1171,-6.0108,-6.0225,-6.0052,-5.9258,-5.9184,-5.8854,-5.8033,-5.7262,-5.6487,-5.5722,-5.5228,-5.5195,-5.5671,-5.5326,-5.5313,-5.5703,-5.5703,-5.5703,-5.5703,-5.5703,-5.6626,-5.828,-5.8319,-5.9204,-6.0781,-6.0781,-6.0781,-6.0858,-6.1716,-6.2101,-6.1908,-6.0165,-5.9511,-5.9319,-5.7638,-5.6983,-5.6904,0.0,0.0,0.0,0.0,0.0,0.0,0.0,0.0,0.0,0.0,0.0,0.0,0.0,0.0,0.0,0.0,0.0,0.0,-7.4707,-7.5354,-7.5417,-7.4692,-7.5028,-7.4938,-7.4324,-7.646,-7.991,-8.4719,-8.4572,-8.375,-8.2246,-8.0094,-7.9125,-7.9215,-7.8093,-7.7108,-7.6097,-7.4061,-7.2899,-7.232,-7.2129,-7.2018,-7.2112,0.0,0.0,0.0,0.0,0.0,0.0,0.0,0.0,0.0,0.0,0.0,0.0,0.0,-7.1971,-7.0999,-6.9633,-6.9486,0.0,-6.9422,0.0,0.0,0.0,-7.2509,0.0,0.0,-7.1368,-6.9087,-6.693,-6.5857,0.0,-6.1417,-6.1882,-6.2016,-6.037,-6.0023,-5.9572,-5.871,-5.8662,-5.8621,-5.84,-5.8364,-5.8033,-5.7226,-5.6418,-5.5987,-5.6071,-5.5104,-5.5062,-5.6091,-5.5736,-5.5583,-5.5703,-5.5703,-5.5703,-5.5703,-5.5703,-5.628,-5.7407,-5.8011,-5.8896,-5.9935,-6.0512,-6.0781,-6.0819,-6.1089,-6.1166,-6.105,-5.9935,-5.9511,-5.9319,-5.7638,-5.6983,-5.6904,0.0,0.0,0.0,0.0,0.0,0.0,0.0,0.0,0.0,0.0,-7.5103,-7.5014,0.0,0.0,0.0,0.0,0.0,0.0,0.0,-7.5123,-7.4866,-7.4315,-7.4185,-7.3909,-7.345,-7.6166,-7.8993,-8.1929,-8.1305,-8.0526,-7.9632,-7.8157,-7.7852,-7.8485,-7.7789,-7.6768,-7.5403,-7.3384,-7.1872,-7.0844,-7.0844,-7.0844,-7.0965,0.0,0.0,0.0,0.0,0.0,0.0,0.0,0.0,0.0,0.0,0.0,0.0,-7.1706,-7.1129,-7.0624,-6.9633,-6.9265,0.0,-7.0041,-7.0077,-7.0161,-7.1012,0.0,0.0,0.0,-7.0593,-6.83,-6.6687,-6.4957,0.0,-6.0611,-6.0451,-6.0199,-5.8914,-5.8731,-5.8547,-5.807,-5.7997,-5.7997,-5.7997,-5.7703,-5.7189,-5.6381,-5.5574,-5.5296,-5.5712,-5.488,-5.5135,-5.6768,-5.6087,-5.5888,-5.6203,-5.5549,-5.5395,-5.5703,-5.5395,-5.6011,-5.7511,-5.805,-5.8934,-6.005,-6.055,-6.0781,-6.0781,-6.0781,-6.0589,-6.0204,-5.9358,-5.8819,-5.8319,-5.6983,-5.6508,-5.6541,0.0,0.0,0.0,0.0,0.0,0.0,0.0,0.0,0.0,0.0,-7.4865,-7.5014,0.0,0.0,0.0,0.0,0.0,0.0,0.0,0.0,-7.4828,-7.4315,-7.3651,-7.3818,-7.4882,-7.7671,-7.8038,-7.5763,-7.6717,-7.6968,-7.6565,-7.661,-7.7204,-7.8231,-7.7123,-7.6142,-7.5283,-7.3098,-7.1321,-7.0,-7.0,-7.0018,-7.0155,-7.0735,0.0,0.0,0.0,0.0,0.0,0.0,0.0,0.0,0.0,0.0,0.0,-7.055,-7.0146,-7.0183,0.0,0.0,0.0,-7.0524,-7.0474,0.0,-6.8921,-7.0729,-7.2679,-7.3022,0.0,-6.6857,-6.6495,-6.3651,-6.1018,-5.9987,-5.9479,-5.8914,-5.8107,-5.7997,-5.7997,-5.7997,-5.7997,-5.7997,-5.7997,-5.7262,-5.6477,-5.5735,-5.5,-5.4732,-5.5099,-5.4831,-5.5563,-5.7528,-5.6419,-5.6139,-5.6813,-5.5346,-5.4934,-5.5588,-5.5011,-5.5972,-5.8319,-5.8319,-5.9204,-6.0781,-6.0781,-6.0781,-6.0781,-6.0781,-6.0281,-5.9435,-5.8627,-5.778,-5.6907,-5.6011,-5.5798,-5.5909,0.0,0.0,0.0,0.0,0.0,0.0,0.0,0.0,0.0,0.0,0.0,0.0,0.0,0.0,0.0,0.0,0.0,0.0,0.0,0.0,-7.4422,-7.4293,-7.3275,-7.3403,-7.4882,-7.4368,-7.3817,-7.3266,-7.5359,-7.6143,-7.578,-7.5809,-7.6169,-7.6764,-7.6107,-7.511,-7.3703,-7.086,-6.9486,-6.9155,-6.9155,-6.9405,-6.993,-7.1126,-7.246,0.0,0.0,0.0,0.0,0.0,0.0,0.0,-7.1673,-7.1872,-7.2165,-7.055,-7.055,0.0,0.0,0.0,0.0,0.0,-7.142,-7.1479,-7.0659,-6.9957,-6.9047,-6.7479,-6.7668,-6.7216,-6.42,-6.3393,-6.2293,-5.978,-5.9278,-5.8914,-5.8107,-5.7997,-5.7997,-5.7997,-5.7997,-5.7997,-5.7997,-5.7262,-5.6595,-5.6129,-5.5949,-5.5934,-5.5955,-5.6509,-5.7017,-5.7454,-5.6938,-5.6261,-5.5453,-5.5428,-5.5203,-5.478,-5.5906,-5.7088,-5.8319,-5.8319,-5.9204,-6.0781,-6.0781,-6.0781,-6.0781,-6.0781,-6.0281,-5.9435,-5.8627,-5.778,-5.6907,-5.6011,-5.5798,-5.5909,0.0,0.0,0.0,0.0,0.0,0.0,0.0,0.0,0.0,0.0,0.0,0.0,0.0,0.0,0.0,0.0,-7.413,-7.4476,-7.5322,-7.4593,-7.4048,-7.3888,-7.3367,-7.3303,-7.3744,-7.2936,-7.2312,-7.1945,-7.2422,-7.2896,-7.3339,-7.3371,-7.3894,-7.4768,-7.462,-7.3672,-7.2149,-7.0253,-6.9045,-6.8338,-6.8609,-6.8865,-6.9239,-7.0488,-7.1711,-7.2796,-7.3292,0.0,0.0,0.0,0.0,0.0,0.0,0.0,-7.2165,-7.055,0.0,0.0,0.0,0.0,0.0,0.0,0.0,0.0,0.0,-6.9036,-6.7345,-6.468,-6.5324,-6.5657,-6.3222,-6.2435,-6.1468,-5.9512,-5.8854,-5.8474,-5.807,-5.7997,-5.7997,-5.7997,-5.7997,-5.7997,-5.7997,-5.7262,-5.6713,-5.6515,-5.6377,-5.6343,-5.6483,-5.7121,-5.7484,-5.7464,-5.7094,-5.6289,-5.5042,-5.5086,-5.4895,-5.4511,-5.578,-5.7242,-5.8896,-5.9319,-5.9973,-6.0781,-6.0781,-6.0781,-6.0781,-6.0781,-6.005,-5.8896,-5.8473,-5.7511,-5.6329,-5.5857,-5.5834,-5.6078,0.0,0.0,0.0,0.0,0.0,0.0,0.0,0.0,0.0,0.0,0.0,0.0,0.0,0.0,-7.3283,0.0,0.0,0.0,-7.4437,-7.3892,-7.3388,-7.3066,-7.3056,-7.2899,-7.2496,-7.2239,-7.1762,-7.1101,-6.9486,-6.9421,-7.0808,-7.0931,-7.1756,-7.309,-7.3011,-7.2187,-7.0772,-6.9895,-6.8715,-6.7547,-6.7913,-6.8134,-6.8339,-6.9473,-7.0451,-7.1407,-7.1977,-7.2839,-7.3589,-7.2989,0.0,0.0,0.0,0.0,-7.1798,-7.033,0.0,0.0,0.0,0.0,0.0,0.0,0.0,0.0,0.0,0.0,0.0,-6.3429,-6.3392,-6.3539,-6.2401,-6.1117,-5.9942,-5.9111,-5.8437,-5.7997,-5.7997,-5.7997,-5.7997,-5.7997,-5.7997,-5.7997,-5.7997,-5.7262,-5.6853,-5.7014,-5.6709,-5.6637,-5.702,-5.7468,-5.7593,-5.7401,-5.6908,-5.6069,-5.477,-5.4603,-5.4434,-5.428,-5.5549,-5.7396,-5.9742,-6.0473,-6.0781,-6.0781,-6.0781,-6.0781,-6.0781,-6.0627,-5.9665,-5.828,-5.8127,-5.7088,-5.5703,-5.5703,-5.5887,-5.6158,0.0,0.0,0.0,0.0,0.0,0.0,0.0,0.0,0.0,0.0,-7.3206,-7.336,0.0,-7.2437,-7.236,-7.236,-7.236,-7.2745,-7.3591,0.0,0.0,-7.1591,-7.0937,-7.1174,-7.2459,-7.1138,-7.0367,-7.0257,-6.8641,-6.8598,-6.9975,-7.0656,-7.171,-7.2967,-7.1851,-7.0907,-7.0091,-6.7888,-6.6843,-6.6639,-6.6405,-6.6603,-6.716,-6.8479,-6.9788,-7.106,-7.1885,-7.2441,-7.2675,-7.214,-7.1636,0.0,0.0,0.0,-7.022,-6.9339,0.0,0.0,0.0,0.0,0.0,0.0,0.0,0.0,0.0,0.0,0.0,0.0,-6.289,-6.2328,-6.0065,-5.9515,-5.9074,-5.829,-5.807,-5.7997,-5.7997,-5.7997,-5.7997,-5.7997,-5.7997,-5.7997,-5.7997,-5.7262,-5.7106,-5.7863,-5.7547,-5.749,-5.7917,-5.8313,-5.8025,-5.6919,-5.6183,-5.5002,-5.339,-5.4127,-5.4126,-5.3395,-5.6511,-5.8896,-6.0627,-6.0742,-6.0781,-6.0781,-6.0781,-6.0781,-6.0742,-5.9973,-5.9127,-5.8204,-5.7473,-5.656,-5.5703,-5.5703,-5.5817,-5.5947,0.0,0.0,0.0,0.0,0.0,0.0,0.0,0.0,0.0,0.0,0.0,-7.2629,0.0,-7.1745,-7.1475,-7.1475,-7.1475,-7.1699,-7.2279,-7.1978,-7.1584,-7.1161,-7.0477,-7.044,-7.1138,-7.0036,-6.9449,-6.9449,-6.8274,-6.8166,-6.9094,-6.9582,-7.0472,-7.1593,-6.9731,-6.8801,-6.8419,-6.6596,-6.5985,-6.6234,-6.6372,-6.6462,-6.666,-6.8059,-6.8939,-6.9629,-7.0475,-7.1478,-7.2215,-7.1369,-7.1218,-7.1214,-6.9948,0.0,0.0,0.0,0.0,0.0,0.0,0.0,0.0,0.0,0.0,0.0,0.0,0.0,0.0,0.0,-6.2144,-6.1814,-6.075,-6.0199,-5.9612,-5.8804,-5.829,-5.7997,-5.7997,-5.7997,-5.7997,-5.7997,-5.7997,-5.7997,-5.7997,-5.7943,-5.8029,-5.8409,-5.8521,-5.8521,-5.8447,-5.8609,-5.7996,-5.6504,-5.5919,-5.4705,-5.2826,-5.3943,-5.5011,-5.6088,-5.805,-5.9627,-6.0781,-6.0781,-6.0781,-6.0781,-6.0781,-6.0781,-6.0742,-5.9858,-5.905,-5.8204,-5.7319,-5.6483,-5.5703,-5.5703,-5.5798,-5.5893,0.0,0.0,0.0,0.0,0.0,0.0,0.0,0.0,0.0,0.0,0.0,0.0,0.0,0.0,0.0,0.0,-7.0244,-7.0306,-7.0434,-7.0895,-7.0831,-7.0062,-6.9864,-6.9706,-6.9486,-6.9119,-6.8715,-6.8311,-6.7467,-6.7686,-6.8809,-6.8393,-6.916,-7.0822,-6.8665,-6.7603,-6.7319,-6.5874,-6.5435,-6.5702,-6.5793,-6.5666,-6.5496,-6.6905,-6.759,-6.7898,-6.8975,-7.0321,-7.1439,-7.0479,-7.0633,-7.0971,-6.9832,-6.9486,0.0,0.0,0.0,0.0,0.0,0.0,0.0,0.0,0.0,0.0,0.0,0.0,0.0,0.0,0.0,-6.1887,-6.1887,-6.0896,-5.9905,-5.9294,-5.851,-5.7997,-5.7997,-5.7997,-5.7997,-5.7997,-5.7997,-5.7997,-5.7997,-5.8418,-5.8713,-5.8713,-5.9009,-5.9047,-5.8733,-5.8591,-5.7806,-5.6233,-5.5801,-5.4738,-5.2908,-5.4166,-5.5972,-5.8319,-5.9127,-6.0089,-6.1127,-6.0896,-6.0935,-6.1089,-6.0666,-6.0473,-6.0396,-5.9319,-5.8511,-5.7896,-5.7022,-5.6406,-5.6011,-5.578,-5.5914,-5.6149,0.0,0.0,0.0,0.0,0.0,0.0,0.0,0.0,0.0,0.0,0.0,0.0,-6.9898,-6.9783,-6.9436,-6.859,-6.8552,-6.8311,-6.7807,-6.883,-6.8817,-6.7445,-6.8399,0.0,-6.7834,-6.8531,-6.8164,-6.6623,-6.5815,-6.69,-6.9676,-6.7319,-6.8219,-7.1648,-6.9693,-6.8402,-6.7557,-6.5962,-6.5103,-6.4689,-6.3705,-6.3072,-6.294,-6.4295,-6.532,-6.6244,-6.7898,-6.9052,-6.9788,-6.9474,-6.9388,-6.9219,-6.8169,-6.7797,-6.7687,0.0,0.0,0.0,0.0,0.0,0.0,0.0,0.0,0.0,0.0,0.0,0.0,0.0,0.0,0.0,-6.2768,-6.0835,-5.9258,-5.9184,-5.851,-5.7997,-5.7997,-5.7997,-5.7997,-5.7997,-5.7997,-5.7997,-5.7997,-5.8418,-5.8713,-5.8713,-5.8696,-5.8753,-5.8713,-5.8282,-5.7478,-5.6233,-5.5801,-5.5003,-5.3746,-5.5021,-5.6511,-5.8319,-5.9127,-6.0396,-6.1985,-6.1166,-6.1243,-6.1947,-6.0281,-5.9588,-5.9435,-5.778,-5.7099,-5.6983,-5.6088,-5.6252,-5.683,-5.6011,-5.6214,-5.6845,0.0,0.0,0.0,0.0,0.0,0.0,0.0,0.0,0.0,0.0,0.0,0.0,0.0,-6.8859,-6.8744,-6.8436,-6.8898,-6.9002,-6.8395,-6.847,-6.8124,-6.7258,-6.7292,-6.7467,0.0,0.0,0.0,0.0,-6.6219,-6.6349,-6.69,-6.653,-6.7099,-6.8383,-6.8049,-6.7432,-6.6603,-6.5443,-6.4786,-6.4457,-6.383,-6.336,-6.3104,-6.3578,-6.3974,-6.4397,-6.5551,-6.6859,-6.8048,-6.8176,-6.8319,-6.8453,-6.8254,-6.7982,-6.754,-6.6733,0.0,0.0,0.0,0.0,0.0,0.0,0.0,0.0,0.0,0.0,0.0,0.0,0.0,0.0,0.0,-6.2034,-6.075,-6.075,-6.0089,-5.9538,-5.9538,-5.9098,-5.8767,-5.8767,-5.8327,-5.7997,-5.7997,-5.8713,-5.9215,-5.9458,-5.9289,-5.9253,-5.9458,-5.8534,-5.7571,-5.6683,-5.5994,-5.539,-5.5036,-5.6044,-5.7396,-5.9088,-5.9935,-6.0666,-6.1243,-6.0935,-6.0666,-6.0358,-5.9242,-5.9011,-5.9358,-5.7703,-5.6983,-5.6983,-5.6676,-5.6714,-5.7022,-5.728,-5.7203,-5.6956,0.0,0.0,0.0,-7.4841,0.0,-7.165,-7.1741,-7.0591,-6.959,-6.9321,0.0,0.0,0.0,0.0,-6.7859,-6.759,-6.8321,-6.852,-6.7875,-6.7728,-6.7492,-6.7083,-6.6975,0.0,0.0,0.0,0.0,0.0,0.0,0.0,0.0,-6.5558,-6.5962,-6.6502,-6.6593,-6.6492,-6.6182,-6.5514,-6.4865,-6.4313,-6.365,-6.3375,-6.3281,-6.3012,-6.3243,-6.382,-6.4397,-6.5513,-6.673,-6.7056,-6.7265,-6.7486,-6.792,-6.7716,-6.7173,-6.6659,-6.6696,0.0,-6.688,0.0,0.0,0.0,0.0,0.0,0.0,0.0,0.0,0.0,0.0,0.0,0.0,0.0,0.0,-6.1667,-6.0933,-6.0419,-6.0419,-5.9942,-5.9588,-5.9588,-5.8914,-5.851,-5.8767,-5.9272,-5.9719,-6.0039,-5.9996,0.0,-5.9668,-5.8864,-5.7931,-5.6928,-5.6102,-5.5782,-5.6126,-5.7011,-5.8127,-5.9511,-6.0396,-6.0935,-6.1243,-6.0935,-6.0473,-5.9896,-5.8781,-5.8434,-5.855,-5.7137,-5.656,-5.6599,-5.6907,-5.7176,-5.7511,-5.8088,-5.8088,-5.778,-7.5784,-7.5284,-7.4707,-7.4668,-7.3283,-7.1898,-7.1014,-7.0167,-6.936,-6.8475,0.0,0.0,0.0,0.0,0.0,-6.6051,-6.6667,-6.6782,-6.5974,-6.6459,-6.6785,-6.684,-6.7332,0.0,0.0,0.0,0.0,0.0,0.0,0.0,0.0,0.0,-6.4897,-6.6402,-6.5632,-6.5705,-6.6381,-6.6071,-6.5315,-6.4162,-6.3041,-6.2853,-6.3166,-6.2358,-6.3051,-6.4474,-6.4512,-6.5089,-6.5884,-6.6178,-6.6287,-6.6425,-6.6999,-6.6877,-6.6512,-6.6476,-6.5962,-6.5705,0.0,0.0,0.0,0.0,0.0,0.0,0.0,0.0,0.0,0.0,0.0,0.0,0.0,0.0,0.0,0.0,0.0,-6.0529,-6.0529,-6.0529,-6.0529,-6.0529,-5.9795,-5.9588,-6.0382,-6.0137,-6.0076,-6.043,-6.0863,-6.0596,-5.9378,-5.9231,-5.8508,-5.6949,-5.6155,-5.6165,-5.7022,-5.7896,-5.8704,-5.955,-6.0396,-6.1243,-6.2024,-6.1166,-6.0781,-6.0627,-5.9011,-5.778,-5.6907,-5.6088,-5.5703,-5.578,-5.6714,-5.7588,-5.8319,-5.8357,-5.8858,-5.9396,-7.513,-7.5361,-7.5245,-7.4053,-7.2937,-7.1706,-7.0244,-6.9321,-6.8436,0.0,0.0,0.0,-6.6244,-6.6244,-6.6628,-6.7628,-6.7321,-6.7013,-6.6782,-6.6598,-6.6768,-6.7359,-6.678,-6.7035,0.0,0.0,0.0,0.0,0.0,0.0,0.0,0.0,0.0,-6.4751,-6.453,-6.42,-6.3847,-6.4492,-6.4253,-6.335,-6.2562,-6.2311,-6.232,-6.1473,-6.1435,-6.1935,-6.2551,-6.332,-6.4231,-6.555,-6.6154,-6.6425,-6.6999,-6.6877,-6.6402,-6.5815,-6.6292,-6.688,-6.6145,0.0,0.0,0.0,0.0,0.0,-6.6402,-6.5888,-6.5485,0.0,0.0,0.0,0.0,0.0,0.0,0.0,0.0,0.0,0.0,0.0,-6.3062,-6.3062,-6.1814,-6.1006,-6.1263,-6.0952,-6.1152,0.0,-6.147,-6.13,-6.1802,-6.0189,-5.8521,-5.6945,-5.6741,-5.7049,-5.7934,-5.8165,-5.9011,-6.0435,-6.0666,-6.0935,-6.1127,-6.0896,-6.0127,-5.8973,-5.8511,-5.7434,-5.6088,-5.6483,-5.6291,-5.5895,-5.7973,-5.8588,-5.8434,-5.9665,-5.9858,-5.9396,-7.5284,-7.5361,-7.5168,-7.4168,-7.3283,-7.2168,-7.0475,-6.9475,-6.8513,0.0,0.0,0.0,-6.5897,-6.6205,-6.6667,-6.7321,-6.6898,-6.659,-6.659,-6.613,-6.6243,-6.7011,-6.6293,0.0,0.0,0.0,0.0,0.0,0.0,0.0,0.0,0.0,0.0,-6.3539,-6.3209,-6.2768,-6.2328,-6.3014,-6.3219,-6.3065,-6.2383,-6.2524,-6.3012,-6.1781,-6.1781,-6.2397,-6.2551,-6.3128,-6.4012,-6.5013,-6.5796,-6.6345,-6.6487,-6.663,-6.6616,-6.5599,-6.5962,-6.6628,-6.6247,-6.5965,-6.6075,-6.7246,0.0,0.0,-6.5059,-6.4861,-6.4824,0.0,0.0,0.0,0.0,0.0,0.0,0.0,0.0,0.0,0.0,0.0,0.0,0.0,-6.3429,-6.2768,-6.3099,-6.2643,-6.2788,-6.3785,-6.3234,-6.2919,-6.3121,-6.0711,-5.8971,-5.8278,-5.7775,-5.7934,-5.8781,-5.8819,-5.9473,-6.0781,-6.0781,-6.0781,-6.0781,-6.0435,-5.955,-5.828,-5.7934,-5.6973,-5.578,-5.6637,-5.6483,-5.5895,-5.7742,-5.8396,-5.8473,-5.9781,-6.0165,-5.9935,0.0,-7.5091,-7.4591,-7.4668,-7.4053,-7.2937,-7.1283,-7.0283,-6.9167,0.0,-6.6821,-6.632,-6.632,-6.6782,-6.6859,-6.6244,-6.6013,-6.5897,-6.5897,-6.5523,-6.5696,0.0,0.0,0.0,0.0,0.0,0.0,0.0,0.0,0.0,0.0,0.0,0.0,-6.2658,-6.1924,-6.1532,-6.1456,-6.1651,-6.2218,-6.2851,-6.2333,-6.2974,-6.4166,-6.2678,-6.2974,-6.4089,-6.3512,-6.3743,-6.4359,-6.4436,-6.5144,-6.5977,-6.5765,-6.6387,-6.6951,-6.5865,-6.5588,-6.5925,-6.6993,-6.6164,-6.5344,-6.6963,-6.6545,0.0,-6.3321,-6.3443,-6.3723,-6.2989,0.0,0.0,0.0,0.0,0.0,0.0,0.0,0.0,0.0,0.0,0.0,0.0,0.0,0.0,-6.5375,-6.4714,-6.4567,-6.5375,-6.5375,-6.4807,-6.3661,-6.1036,-5.9748,-6.0089,-5.9037,-5.8781,-5.9473,-5.9511,-5.9935,-6.0781,-6.0781,-6.0781,-6.0781,-6.0012,-5.9165,-5.828,-5.7473,-5.6599,-5.5742,-5.656,-5.6406,-5.578,-5.6791,-5.7627,-5.8396,-5.9204,-5.9973,-6.055,-7.4091,-7.386,-7.3937,-7.4591,-7.4053,-7.3168,0.0,-7.0667,-6.9821,-7.0129,-6.9475,-6.8975,-6.8975,-6.7859,-6.7321,-6.7859,-6.6667,-6.5897,-6.5897,-6.6423,0.0,0.0,0.0,0.0,0.0,0.0,0.0,0.0,0.0,0.0,0.0,0.0,0.0,0.0,-6.1667,-6.1084,-6.028,-6.0698,-6.1183,-6.1759,-6.2017,-6.2293,-6.2563,-6.2216,-6.187,-6.1704,-6.2897,-6.2974,-6.2666,-6.3358,-6.388,-6.4496,-6.577,-6.6483,-6.6879,-6.6909,-6.7354,-6.7787,-6.7407,-6.6574,-6.6105,-6.7518,-6.5956,0.0,-6.355,-6.3245,-6.3025,0.0,0.0,0.0,0.0,0.0,0.0,0.0,0.0,0.0,0.0,0.0,0.0,0.0,0.0,0.0,-6.6256,-6.5558,-6.5411,-6.6219,-6.5668,-6.4807,-6.3661,-6.2162,-6.0959,-6.0127,-5.9574,-5.9358,-5.9511,-5.9511,-5.9935,-6.0781,-6.0781,-6.0781,-6.0781,-6.0627,-5.9704,-5.828,-5.8127,-5.7165,-5.5703,-5.5857,-5.5857,-5.5857,-5.7434,-5.8165,-5.8396,-5.9204,-5.9627,-5.9742,-7.3591,-7.3514,-7.3745,-7.4553,-7.4053,-7.336,0.0,0.0,-7.0283,-7.0283,-6.959,-6.8898,-6.8436,-6.7628,-6.709,-6.7167,-6.6397,-6.5897,-6.5897,-6.6282,0.0,0.0,0.0,0.0,0.0,0.0,0.0,0.0,0.0,0.0,0.0,0.0,0.0,0.0,0.0,-6.0231,-5.9942,-6.0454,-6.1174,-6.1993,-6.162,-6.1716,-6.2101,-6.2101,-6.1831,-6.1589,-6.2858,-6.3051,-6.2743,-6.3166,-6.3706,-6.4436,-6.5855,-6.6709,-6.7164,-6.7071,-6.7653,-6.8093,-6.712,-6.6539,-6.637,-6.7049,-6.5765,0.0,0.0,-6.2678,-6.2776,-6.2137,0.0,0.0,0.0,0.0,0.0,0.0,0.0,0.0,0.0,0.0,0.0,0.0,0.0,0.0,-6.7687,-6.732,-6.71,-6.71,-6.6602,-6.6142,-6.5811,-6.4293,-6.3106,-6.2372,-6.135,-6.0589,-6.0165,-6.0165,-6.0358,-6.0781,-6.0781,-6.055,-6.0127,-5.9742,-5.8858,-5.7627,-5.7203,-5.6511,-5.5703,-5.5703,-5.5972,-5.6445,-5.7319,-5.7934,-5.8357,-5.8742,-5.9165,-5.9396,-7.2745,-7.2783,-7.3014,-7.3822,0.0,0.0,0.0,0.0,0.0,-6.9321,-6.8912,-6.8295,-6.7255,-6.6998,-6.6574,-6.5753,-6.5512,-6.5474,-6.5628,-6.582,-6.5897,0.0,0.0,-6.6359,0.0,0.0,0.0,0.0,0.0,0.0,0.0,0.0,0.0,0.0,0.0,0.0,0.0,0.0,0.0,-6.2156,-6.1172,-6.1512,-6.2563,-6.2216,-6.2101,-6.2178,-6.2666,-6.282,-6.282,-6.282,-6.3397,-6.4347,-6.5588,-6.6567,-6.7213,-6.7031,-6.7468,-6.7789,-6.6869,-6.651,-6.6412,-6.6506,-6.581,-6.4481,0.0,0.0,0.0,0.0,0.0,0.0,0.0,0.0,0.0,0.0,0.0,0.0,0.0,0.0,0.0,0.0,0.0,0.0,-6.8678,-6.8825,-6.8568,-6.776,-6.7444,-6.7516,-6.799,-6.6146,-6.4938,-6.4615,-6.2974,-6.1678,-6.0819,-6.0781,-6.0781,-6.0781,-6.0781,-6.0435,-5.9742,-5.9088,-5.8319,-5.7445,-5.6549,-5.6088,-5.5934,-5.578,-5.6088,-5.6791,-5.6945,-5.7627,-5.8511,-5.8357,-5.8704,-5.9088,-6.9975,-7.0129,-7.0398,0.0,0.0,0.0,0.0,0.0,0.0,-6.759,-6.876,-6.9136,-6.7539,-6.667,-6.5867,-6.4996,-6.4127,-6.3935,-6.4705,-6.5474,-6.5897,0.0,0.0,0.0,-6.6051,0.0,0.0,0.0,0.0,0.0,0.0,0.0,0.0,0.0,-6.0048,0.0,0.0,0.0,-6.0488,0.0,-6.0846,-6.2204,0.0,-6.2678,-6.2101,-6.2024,-6.132,-6.1089,-6.1089,0.0,-6.1666,-6.2666,-6.427,-6.5372,-6.6266,-6.7229,-6.7593,-6.7647,-6.7507,-6.6897,-6.6421,-6.6905,-6.6059,-6.4626,-6.2855,0.0,-6.2635,-6.0979,0.0,0.0,0.0,0.0,0.0,0.0,0.0,0.0,0.0,0.0,0.0,0.0,0.0,0.0,0.0,-6.8495,-6.8568,-6.776,-6.7444,-6.7516,-6.799,-6.6146,-6.4938,-6.4615,-6.2974,-6.1678,-6.0819,-6.0781,-6.0781,-6.0781,-6.0781,-6.0742,-6.0666,-6.055,-6.005,-5.9165,-5.8357,-5.755,-5.6791,-5.6011,-5.5742,-5.5934,-5.6714,-5.7973,-5.9281,-5.855,-5.8357,-5.8396,-6.8859,-6.8936,0.0,0.0,0.0,0.0,0.0,0.0,0.0,0.0,0.0,-6.9285,-6.7673,-6.7239,-6.647,-6.5095,-6.4464,-6.4121,-6.4033,-6.4725,-6.5166,0.0,0.0,0.0,0.0,0.0,0.0,0.0,-6.4799,0.0,0.0,0.0,0.0,0.0,-5.9557,0.0,-5.9424,0.0,-6.0671,0.0,0.0,-6.2012,0.0,-6.2551,-6.2101,-6.1985,-6.1089,-6.0781,-6.0781,0.0,-6.1358,0.0,0.0,0.0,0.0,-6.6479,-6.7305,-6.7841,-6.6883,-6.6691,-6.6696,-6.6474,-6.5985,-6.5168,-6.3688,-6.3673,-6.3566,-6.2059,0.0,0.0,0.0,0.0,0.0,0.0,-6.4672,0.0,0.0,0.0,0.0,0.0,0.0,0.0,0.0,0.0,0.0,0.0,-6.7444,-6.7741,-6.8706,-6.7344,-6.6391,-6.6038,-6.4436,-6.3128,-6.2243,-6.2243,-6.2012,-6.155,-6.155,-6.0781,-5.9358,-5.9819,-5.9319,-5.805,-5.8242,-5.7819,-5.6983,-5.6599,-5.6742,-5.7203,-5.706,-5.7742,-5.8781,-5.8434,-5.8319,-5.8165,-6.7667,-6.7705,-6.7898,0.0,0.0,0.0,0.0,0.0,0.0,0.0,-6.8545,-6.8482,-6.713,-6.7036,-6.6379,-6.4616,-6.4309,-6.3959,-6.3322,-6.3938,-6.4209,-6.3978,-6.5216,-6.5667,-6.5205,0.0,0.0,0.0,0.0,0.0,0.0,0.0,0.0,0.0,0.0,-5.9383,-5.9647,0.0,-6.107,-6.1678,-6.105,-6.1512,-6.2589,-6.2243,-6.1947,-6.1678,-6.1012,-6.0781,-6.0781,-6.0781,-6.1216,0.0,-6.2704,-6.382,-6.4897,0.0,0.0,0.0,-6.5513,0.0,0.0,-6.532,-6.5205,-6.4911,-6.3977,-6.3999,-6.3911,-6.27,-6.3424,0.0,0.0,0.0,0.0,-6.4181,0.0,-6.4806,0.0,0.0,0.0,0.0,0.0,0.0,0.0,0.0,0.0,-6.71,-6.7185,-6.7711,-6.8688,-6.8032,-6.74,-6.6891,-6.5385,-6.4166,-6.3308,-6.3308,-6.2897,-6.2101,-6.2101,-6.1012,-5.9011,-5.9588,-5.9204,-5.8061,-5.8473,-5.828,-5.7638,-5.7176,-5.7511,-5.8204,-5.7319,-5.7511,-5.828,-5.805,-5.8088,-5.805,-6.582,-6.5974,-6.5974,-6.6013,0.0,0.0,0.0,0.0,0.0,-6.6303,-6.6495,-6.6375,-6.5478,-6.5445,-6.4782,-6.3023,-6.2732,-6.2645,-6.2555,-6.323,-6.3254,-6.2403,-6.4629,-6.5128,-6.3423,0.0,0.0,0.0,0.0,0.0,0.0,0.0,0.0,0.0,0.0,-6.0437,-6.0156,-6.148,-6.1589,-6.0819,-6.0819,-6.0819,-6.0973,0.0,-6.1601,-6.0819,-6.0819,0.0,0.0,-6.0781,-6.0819,0.0,0.0,0.0,0.0,0.0,0.0,0.0,0.0,0.0,0.0,-6.3397,0.0,0.0,0.0,0.0,-6.3115,-6.2269,-6.2769,-6.2938,-6.162,-6.2387,-6.3012,-6.2444,0.0,0.0,0.0,0.0,0.0,0.0,0.0,0.0,0.0,0.0,-6.7063,-6.5521,-6.6555,-6.7342,-6.7342,-6.7506,-6.7218,-6.6341,-6.52,-6.4166,-6.3308,-6.3308,-6.2897,-6.2101,-6.2101,-6.1639,-6.0704,-6.0742,-6.0742,-6.0627,-5.9819,-5.9435,-5.9281,-5.7676,-5.7511,-5.8204,-5.7319,-5.7511,-5.8204,-5.7368,-5.7588,-5.805,-6.4974,-6.4589,-6.4551,-6.5705,-6.5436,-6.5356,0.0,-6.6515,-6.6295,-6.5651,-6.6689,-6.6751,-6.4834,-6.5189,-6.4837,-6.3079,-6.28,-6.2473,-6.1885,-6.304,-6.333,-6.2475,-6.4754,-6.5505,-6.4335,-6.5341,0.0,0.0,0.0,0.0,0.0,0.0,0.0,0.0,0.0,-5.9961,0.0,0.0,0.0,0.0,0.0,-6.0781,-6.0819,0.0,-6.105,-6.0781,-6.0781,-6.0781,0.0,-6.0781,-6.0781,-6.0858,-6.1127,-6.1639,-6.2139,-6.2435,-6.2897,0.0,0.0,0.0,-6.3308,-6.3308,0.0,0.0,0.0,0.0,0.0,0.0,0.0,0.0,0.0,-6.2322,-6.2867,-6.3245,-6.3006,0.0,0.0,0.0,0.0,0.0,0.0,0.0,0.0,0.0,0.0,-6.5375,-6.5237,-6.5816,-6.7221,-6.6646,-6.6552,-6.7164,-6.6044,-6.5551,-6.582,-6.5282,-6.4589,-6.3743,-6.3166,-6.1858,-5.9973,-6.055,-6.0473,-5.9973,-6.0242,-6.0012,-5.9396,-5.8319,-5.8357,-5.8896,-5.6896,-5.7011,-5.8204,-5.733,-5.755,-5.828,-6.5051,-6.4128,-6.3858,-6.559,-6.5457,-6.5363,-6.6003,-6.6212,-6.6043,-6.539,-6.6324,-6.635,-6.4492,-6.4805,-6.457,-6.3125,-6.292,-6.2514,-6.1616,-6.3023,-6.3385,-6.2216,-6.4471,-6.5183,-6.3922,-6.496,-6.5507,0.0,0.0,-6.5276,0.0,0.0,0.0,0.0,0.0,-6.022,-6.0403,-6.1005,-6.1089,0.0,0.0,-6.0781,0.0,0.0,-6.0781,-6.0781,0.0,-6.0781,-6.0781,-6.0781,-6.0781,-6.0781,-6.0781,-6.1166,-6.1639,-6.1639,-6.1781,-6.2012,-6.232,-6.1973,0.0,-6.2281,-6.2166,0.0,-6.2743,0.0,-6.282,0.0,0.0,0.0,0.0,0.0,0.0,0.0,0.0,0.0,0.0,-6.5668,0.0,0.0,0.0,0.0,0.0,-6.6072,-6.5632,-6.4494,-6.4237,-6.4843,0.0,0.0,-6.6428,-6.7288,-6.6969,-6.6898,-6.709,-6.659,-6.5743,-6.4589,-6.3743,-6.2127,-5.9973,-6.055,-6.0473,-5.9973,-6.055,-6.0473,-5.9896,-5.8781,-5.8781,-5.9281,-5.7049,-5.7049,-5.8165,-5.6973,-5.7088,-5.8011,-6.5795,-6.4525,-6.396,-6.5576,-6.5936,-6.6041,-6.6108,-6.6351,-6.6226,-6.537,-6.542,-6.5195,-6.4258,-6.418,-6.3828,-6.3008,-6.2969,-6.2656,-6.1836,-6.3297,-6.3419,-6.1705,-6.3901,-6.4284,-6.24,-6.4009,-6.476,-6.4551,0.0,0.0,0.0,0.0,0.0,0.0,-6.1758,0.0,-6.0935,-6.1793,-6.1666,-6.0858,-6.0858,-6.0819,-6.0781,-6.0781,-6.0781,-6.0781,-6.0781,-6.0781,-6.0781,-6.0781,-6.0781,-6.0781,-6.0781,-6.0781,-6.0781,-6.0781,-6.0204,-5.9742,-6.0512,-5.9588,-5.8742,-6.0281,-6.0089,0.0,0.0,0.0,-6.2243,0.0,0.0,0.0,0.0,0.0,0.0,0.0,0.0,0.0,0.0,0.0,-6.5595,0.0,0.0,0.0,-6.5448,-6.5264,-6.4567,-6.289,-6.3576,0.0,0.0,0.0,-6.6765,-6.6858,-6.7867,-6.8013,-6.7244,-6.7128,-6.6282,-6.4666,-6.3743,-6.2435,-6.0781,-6.0781,-6.0781,-6.0781,-6.0781,-6.0781,-6.0666,-5.905,-5.8819,-5.9358,-5.7715,-5.755,-5.8088,-5.6472,-5.6406,-5.7291,-6.4022,-6.474,-6.5314,-6.5121,-6.5103,-6.5458,-6.6351,-6.6042,-6.5429,-6.4642,-6.4609,-6.4062,-6.2539,-6.2383,-6.2265,-6.2031,-6.2617,-6.289,-6.2695,-6.4256,-6.4723,-6.3629,-6.5262,-6.5353,-6.3443,-6.495,-6.509,-6.3628,0.0,0.0,-6.4092,0.0,0.0,0.0,0.0,0.0,-6.1831,-6.2627,-6.2512,-6.1793,-6.1793,-6.1358,-6.0781,0.0,-6.0781,-6.0781,-6.0781,-6.0781,-6.0781,-6.0781,-6.0781,-6.0781,-6.0781,-6.0781,-6.0781,-6.0781,-6.0627,-6.0358,-5.9935,-5.9511,-5.9165,-5.8973,-5.9204,-5.9627,0.0,0.0,0.0,0.0,0.0,0.0,0.0,0.0,0.0,0.0,0.0,0.0,-6.5031,-6.5175,-6.5375,-6.5595,-6.5778,-6.5742,-6.5338,-6.4751,-6.3943,-6.2853,-6.3025,0.0,0.0,0.0,0.0,-6.767,-6.8135,-6.859,-6.9013,-6.7744,-6.659,-6.5551,-6.4051,-6.2435,-6.0781,-6.0781,-6.0781,-6.0781,-6.0781,-6.0781,-6.0704,-5.9627,-5.9319,-5.9396,-5.8357,-5.8088,-5.8319,-5.8473,-5.828,-5.8204,-6.4183,-6.5243,-6.6097,-6.5647,-6.5265,-6.525,-6.5936,-6.5709,0.0,-6.3906,-6.3711,0.0,-6.1836,-6.1719,-6.1719,-6.1719,-6.25,-6.3008,-6.3008,-6.4648,-6.5195,-6.4336,-6.5499,-6.546,-6.396,-6.4694,-6.4558,-6.345,0.0,0.0,-6.3556,0.0,0.0,0.0,0.0,-6.1275,0.0,-6.2435,-6.2512,-6.2101,-6.2101,-6.1601,0.0,-6.0781,-6.0781,-6.0781,-6.0781,-6.0781,-6.0781,-6.0781,-6.0781,-6.0781,-6.0781,-6.0781,-6.0781,-6.0781,-6.0281,-5.9665,-5.955,-5.8704,-5.7896,-5.8204,-5.8627,-5.9088,-5.9435,-6.0165,-6.105,0.0,-6.1408,-6.1166,0.0,0.0,0.0,0.0,0.0,0.0,-6.5216,-6.5766,-6.5964,-6.5364,-6.5301,-6.5154,-6.4824,-6.4347,-6.3723,-6.2879,-6.278,0.0,0.0,0.0,0.0,-6.7464,-6.8801,-6.9552,-6.9706,-6.8359,-6.7051,-6.5859,-6.4128,-6.2435,-6.0781,-6.0781,-6.0781,-6.0781,-6.0781,-6.0781,-6.0742,-5.9858,-5.9511,-5.9473,-5.9011,-5.905,-5.9435,-5.9896,-5.955,-5.9011,-6.5058,-6.5738,-6.6463,-6.6564,-6.5884,-6.5304,0.0,-6.5304,0.0,-6.3203,0.0,-6.2656,-6.1797,-6.1719,-6.1719,-6.1719,-6.25,-6.3008,-6.3008,-6.4648,-6.5273,-6.4492,-6.5312,-6.5307,-6.4281,-6.4052,-6.385,0.0,0.0,0.0,0.0,0.0,0.0,0.0,0.0,0.0,0.0,-6.1935,-6.2216,-6.2101,-6.2101,-6.1601,-6.0781,-6.0781,-6.0781,-6.0781,-6.0781,-6.0781,-6.0781,-6.0781,-6.0781,-6.0781,-6.0781,-6.0781,-6.0781,-6.0781,-5.9704,-5.8588,-5.9165,-5.7627,-5.6203,-5.7627,-5.805,-5.8357,-5.9165,-6.0012,-6.0896,-6.1908,-6.1408,-6.1281,0.0,0.0,0.0,0.0,0.0,-6.6362,-6.5823,-6.663,-6.6786,-6.5452,-6.5379,0.0,-6.4189,-6.398,-6.3613,-6.2853,0.0,0.0,0.0,0.0,0.0,-6.6973,-6.9543,-7.0514,-6.9706,0.0,-6.7513,-6.5705,-6.4089,-6.2435,-6.0781,-6.0781,-6.0781,-6.0781,-6.0781,-6.0781,-6.0742,-5.9973,-5.9665,-5.9665,-5.955,-6.0012,-6.0781,-6.0781,-6.0319,-5.9781,-6.3959,-6.5397,-6.656,-6.6613,-6.6036,-6.531,-6.4568,-6.4492,-6.414,-6.3125,-6.3008,-6.2656,-6.1797,-6.1719,-6.1719,-6.1719,-6.25,0.0,0.0,0.0,0.0,-6.539,-6.6211,-6.6205,-6.5181,-6.4992,-6.444,0.0,0.0,0.0,0.0,0.0,0.0,0.0,0.0,0.0,-6.2858,-6.3051,0.0,-6.2101,-6.2101,-6.1601,-6.0781,-6.0781,-6.0781,-6.0781,-6.0781,-6.0781,-6.0781,-6.0781,-6.0781,-6.0781,-6.0781,-6.0781,-6.0781,-6.0781,-6.0089,-5.9165,-5.8665,-5.7665,-5.6676,-5.6242,-5.6703,-5.7434,-5.8319,-5.9127,-6.0165,-6.1793,-6.1408,-6.1089,-6.2127,0.0,0.0,0.0,0.0,0.0,-6.6673,-6.6989,-6.6786,-6.5452,-6.5632,-6.5419,-6.4214,-6.3466,-6.2989,0.0,0.0,0.0,0.0,0.0,0.0,0.0,-6.9849,0.0,0.0,0.0,-6.7205,-6.482,-6.3782,-6.2435,-6.0781,-6.0781,-6.0781,-6.0781,-6.0781,-6.0781,-6.0781,-6.0627,-6.055,-6.0512,-5.9781,-6.0012,-6.0781,-6.0781,-6.0704,-6.0589,-6.4677,-6.5829,-6.6743,-6.6743,-6.5739,0.0,0.0,-6.3515,-6.2812,-6.2383,-6.2344,-6.2187,-6.1758,-6.1719,-6.1719,-6.1719,-6.25,-6.3008,-6.3008,-6.4219,-6.5117,-6.5586,-6.6015,-6.6209,-6.6198,-6.503,-6.4409,-6.4396,0.0,0.0,0.0,0.0,0.0,0.0,0.0,-6.1897,0.0,0.0,0.0,-6.2101,-6.2101,-6.1601,-6.0781,-6.0781,-6.0781,-6.0781,-6.0781,-6.0781,-6.0781,-6.0781,-6.0781,-6.0781,-6.0781,-6.0781,-6.0781,-6.0781,-5.9896,-5.8781,-5.8396,-5.7319,-5.6214,-5.578,-5.6368,-5.7253,-5.8088,-5.8934,-5.9858,-6.1166,-6.1089,-6.105,-6.1947,-6.3089,0.0,0.0,0.0,0.0,-6.8109,-6.8972,-6.8975,-6.716,-6.6914,-6.6408,-6.526,0.0,0.0,0.0,0.0,0.0,0.0,0.0,0.0,0.0,0.0,0.0,0.0,0.0,0.0,-6.4795,-6.3758,-6.2435,-6.0781,-6.0781,-6.0781,-6.0781,-6.0781,-6.0781,-6.0781,-6.0781,-6.0781,-6.0742,-6.0319,-6.0435,-6.0781,-6.0781,-6.0781,-6.0781,-6.5312,-6.5898,-6.6367,0.0,-6.5078,-6.4023,-6.4023,-6.2695,-6.1719,-6.1719,-6.1719,-6.1719,-6.1719,-6.1719,-6.1719,-6.1719,-6.2344,-6.2734,-6.2734,-6.3555,-6.4336,-6.5039,-6.5234,-6.5742,-6.6601,-6.4648,-6.4093,0.0,0.0,0.0,0.0,0.0,0.0,0.0,0.0,0.0,0.0,0.0,-6.1947,-6.2101,-6.1908,-6.1408,-6.0781,-6.0781,-6.0781,-6.0781,-6.0781,-6.0781,-6.0781,-6.0781,-6.0781,-6.0781,-6.0781,-6.0781,-6.0781,-6.0781,-5.9627,-5.8319,-5.8319,-5.7049,-5.5703,-5.5703,-5.6214,-5.6934,-5.7819,-5.8665,-5.9473,-6.0358,-6.0666,-6.1127,-6.2166,-6.3012,0.0,0.0,0.0,0.0,0.0,-7.1023,-7.1141,-6.8937,-6.8219,-6.7404,-6.6119,0.0,0.0,0.0,0.0,0.0,0.0,0.0,0.0,0.0,0.0,-6.9704,-6.9828,0.0,-6.7046,-6.4724,-6.3756,-6.2435,-6.0781,-6.0781,-6.0781,-6.0781,-6.0781,-6.0781,-6.0781,-6.0781,-6.0781,-6.0781,-6.0781,-6.0781,-6.0781,-6.0781,-6.0781,-6.0781,-6.4414,0.0,0.0,0.0,0.0,-6.3125,-6.3125,-6.2305,-6.1719,-6.1719,-6.1719,-6.1719,-6.1719,-6.1719,-6.1719,-6.1719,-6.1758,-6.1836,-6.1836,-6.2656,-6.3164,-6.3242,-6.3984,-6.4844,-6.5703,-6.3876,-6.3635,0.0,0.0,-6.1466,0.0,0.0,0.0,0.0,0.0,0.0,0.0,-6.1243,-6.1358,-6.2024,-6.1243,-6.0858,-6.0781,-6.0781,-6.0781,-6.0781,-6.0781,-6.0781,-6.0781,-6.0781,-6.0781,-6.0781,-6.0781,-6.0781,-6.0781,-6.0781,-5.9627,-5.8319,-5.8319,-5.7049,-5.5703,-5.5703,-5.5742,-5.6049,-5.6907,-5.778,-5.8627,-5.9435,-6.0242,-6.1281,-6.2897,-6.3897,-6.5282,0.0,0.0,0.0,0.0,0.0,-7.1712,-6.9481,-6.8906,-6.7881,-6.5859,-6.4933,0.0,0.0,-6.4365,0.0,0.0,0.0,0.0,-6.6861,0.0,-6.8489,-6.8934,-6.809,-6.6412,-6.3908,-6.3487,-6.2435,-6.0781,-6.0781,-6.0781,-6.0781,-6.0781,-6.0781,-6.0781,-6.0781,-6.0781,-6.0781,-6.0781,-6.0781,-6.0781,-6.0781,-6.0781,-6.0781,0.0,0.0,0.0,0.0,0.0,0.0,0.0,-6.2265,-6.1719,-6.1719,-6.1719,-6.1719,-6.1719,-6.1719,-6.1719,-6.1719,-6.1719,-6.1719,-6.1719,-6.2031,-6.2461,-6.2969,-6.332,-6.3945,-6.4805,-6.349,-6.3292,0.0,0.0,0.0,0.0,0.0,0.0,0.0,0.0,-6.1835,-6.2101,-6.1716,-6.1793,-6.2024,-6.1127,-6.1089,-6.1524,-6.1012,-6.0781,-6.0781,-6.0781,-6.0781,-6.0781,-6.0781,-6.0781,-6.0781,-6.0781,-6.0781,-6.0781,-6.0781,-5.9627,-5.8319,-5.8319,-5.7049,-5.5703,-5.5703,-5.5703,-5.5934,-5.6791,-5.7665,-5.855,-5.9319,-6.0204,-6.1166,-6.2358,-6.3705,-6.5243,-6.7282,0.0,0.0,0.0,0.0,0.0,-6.9984,-6.9323,-6.8433,-6.6967,-6.622,0.0,0.0,0.0,0.0,0.0,0.0,0.0,-6.6899,0.0,-6.9039,-6.9599,-6.8579,-6.7163,-6.528,-6.3948,-6.2704,-6.1562,-6.105,-6.0781,-6.0781,-6.0781,-6.0781,-6.0781,-6.0781,-6.0781,-6.0781,-6.0781,-6.0781,-6.0781,-6.0781,-6.0781,-6.0781,-6.3125,0.0,-6.3555,0.0,-6.3047,-6.2617,-6.2617,-6.2109,-6.1719,-6.1719,-6.1719,-6.1719,-6.1719,-6.1719,-6.1719,-6.1719,-6.1719,-6.1719,-6.1719,-6.1719,-6.1953,-6.2578,-6.2617,0.0,-6.3906,-6.2956,-6.2945,-6.3886,-6.264,0.0,0.0,0.0,0.0,0.0,-6.2269,-6.2364,-6.2397,-6.1947,-6.187,-6.2024,-6.1127,-6.1166,-6.1639,-6.1012,-6.0781,-6.0781,-6.0781,-6.0781,-6.0781,-6.0781,-6.0781,-6.0781,-6.0781,-6.0781,-6.0781,-6.0781,-5.9627,-5.8319,-5.8319,-5.7049,-5.5703,-5.5703,-5.5703,-5.5857,-5.6483,-5.7473,-5.8588,-5.9665,-6.0358,-6.105,-6.1947,-6.3474,-6.5166,-6.6821,0.0,0.0,0.0,-7.1713,0.0,-7.0129,-6.9386,-6.8555,-6.7569,-6.6999,0.0,0.0,0.0,0.0,0.0,0.0,0.0,0.0,0.0,0.0,0.0,-6.8931,-6.7538,-6.6287,-6.4523,-6.3243,-6.2397,-6.155,-6.105,-6.0781,-6.0781,-6.0781,-6.0781,-6.0781,-6.0781,-6.0781,-6.0781,-6.0781,-6.0781,-6.0781,-6.0781,-6.0781,-6.3008,-6.2305,-6.1719,-6.1719,-6.1719,-6.1719,-6.1719,-6.1719,-6.1719,-6.1719,-6.1719,-6.1719,-6.1719,-6.1719,-6.1719,-6.1719,-6.1719,-6.1719,-6.1719,-6.1719,-6.1719,0.0,0.0,-6.2109,-6.3008,-6.2148,-6.2494,-6.4082,0.0,0.0,-6.2573,0.0,-6.2475,-6.2296,-6.2284,-6.2684,-6.3166,-6.1512,-6.132,-6.2024,-6.1127,-6.0819,-6.0819,-6.0781,-6.0781,-6.0781,-6.0781,-6.0781,-6.0781,-6.0781,-6.0781,-6.0781,-6.0781,-6.0781,-6.0781,-6.0781,-5.9627,-5.8319,-5.8319,-5.7049,-5.5703,-5.5703,-5.5703,-5.5703,-5.5703,-5.7049,-5.8781,-6.0435,-6.0781,-6.105,-6.1947,-6.3474,-6.5166,-6.6821,0.0,0.0,0.0,-7.0898,0.0,-6.9808,-6.8962,-6.8077,-6.7205,-6.6681,0.0,0.0,0.0,0.0,0.0,0.0,0.0,-6.9277,-6.856,0.0,-7.1353,-6.8858,-6.7164,-6.6287,-6.5137,-6.4128,-6.3281,-6.2435,-6.1589,-6.0781,-6.0781,-6.0781,-6.0781,-6.0781,-6.0781,-6.0781,-6.0781,-6.0781,-6.0781,-6.0781,-6.0781,-6.0781,-6.2109,-6.1875,-6.1719,-6.1719,-6.1719,-6.1719,-6.1719,-6.1719,-6.1719,-6.1719,-6.1719,-6.1719,-6.1719,-6.1719,-6.1719,0.0,-6.1719,-6.1719,0.0,-6.1719,-6.1719,-6.1719,-6.1719,-6.1836,-6.2109,-6.1836,-6.1908,-6.2323,0.0,0.0,0.0,-6.1816,-6.2001,-6.2343,-6.3006,-6.3029,-6.2474,-6.2512,-6.2358,-6.2024,-6.1127,-6.1166,-6.1639,-6.1012,-6.0781,-6.0781,-6.0781,-6.0781,-6.0781,-6.0781,-6.0781,-6.0781,-6.0781,-6.0781,-6.0781,-6.0781,-6.0012,-5.9127,-5.9127,-5.7896,-5.6599,-5.6599,-5.6126,-5.5857,-5.6445,-5.7896,-5.9435,-6.055,-6.0781,-6.1243,-6.2666,-6.432,-6.6013,-6.7705,-6.9629,0.0,-7.0167,0.0,-6.9552,-6.809,-6.8205,-6.8052,-6.7167,-6.6959,0.0,0.0,0.0,0.0,0.0,0.0,0.0,0.0,-6.9721,0.0,-7.1059,-6.9141,-6.8014,-6.7707,-6.5602,-6.4128,-6.3269,-6.3051,-6.2474,-6.1678,-6.1678,-6.137,-6.0781,-6.0781,-6.0781,-6.0781,-6.0781,-6.0781,-6.0781,-6.0781,-6.0781,-6.0781,-6.1719,-6.1719,-6.1719,-6.1719,-6.1719,-6.1719,-6.1719,-6.1719,-6.1719,-6.1719,-6.1719,-6.1719,-6.1719,-6.1719,0.0,-6.1719,-6.1719,-6.1719,-6.1719,-6.1719,-6.1719,-6.1719,-6.1719,-6.1719,-6.1719,-6.1719,0.0,-6.2047,-6.2047,-6.1832,-6.1471,-6.1874,-6.2372,-6.297,-6.3249,-6.3099,-6.2645,-6.2444,-6.205,-6.1562,-6.1012,-6.1127,-6.155,-6.1012,-6.0781,-6.0781,-6.0781,-6.0781,-6.0781,-6.0781,-6.0781,-6.0781,-6.0781,-6.0781,-6.0781,-6.0781,-6.0165,-5.9511,-5.9511,-5.8511,-5.7473,-5.7473,-5.7088,-5.6896,-5.7742,-5.8742,-5.9742,-6.0627,-6.0781,-6.1127,-6.2166,-6.4012,-6.5859,-6.7244,-6.8859,-6.9783,-6.9283,0.0,-6.8436,0.0,0.0,0.0,0.0,-6.809,-6.8035,0.0,0.0,0.0,0.0,0.0,0.0,-6.9285,-7.0548,0.0,-7.1398,-6.9398,-6.8244,-6.7898,-6.5667,-6.432,-6.3782,-6.3474,-6.2858,-6.2101,-6.1755,-6.1281,-6.0781,-6.0781,-6.0781,-6.0781,-6.0781,-6.0781,-6.0781,-6.0781,-6.0781,-6.0781,-6.1719,-6.1719,-6.1719,0.0,-6.1719,0.0,-6.1719,-6.1719,-6.1719,-6.1719,-6.1719,-6.1719,-6.1719,-6.1719,-6.1719,-6.1719,0.0,0.0,0.0,-6.1719,-6.1719,-6.1719,-6.1719,-6.1719,-6.1719,-6.1719,-6.2109,-6.289,-6.289,-6.25,-6.1719,-6.2539,-6.3273,-6.3878,-6.299,-6.291,-6.3312,-6.161,-6.0858,-6.0781,-6.0781,-6.0781,-6.0781,-6.0781,-6.0781,-6.0781,-6.0781,-6.0781,-6.0781,-6.0781,-6.0781,-6.0781,-6.0781,-6.0781,-6.0781,-6.0781,-6.0242,-5.9588,-5.9588,-5.9011,-5.8396,-5.8396,-5.8396,-5.8588,-5.9319,-5.955,-5.9819,-6.0627,-6.0781,-6.0819,-6.0858,-6.2858,-6.482,-6.5743,-6.7244,-6.8321,-6.8321,-6.7628,-6.7398,0.0,0.0,0.0,-6.9629,-6.9706,-6.9398,0.0,0.0,0.0,0.0,0.0,-6.8848,-7.1239,-7.1044,-7.1245,-7.2014,-6.9552,-6.7859,-6.6898,-6.5359,-6.4589,-6.4589,-6.3782,-6.2935,-6.2139,-6.1281,-6.0858,-6.0781,-6.0781,-6.0781,-6.0781,-6.0781,-6.0781,-6.0781,-6.0781,-6.0781,-6.0781,0.0,0.0,-6.1719,-6.1719,-6.1719,-6.1719,-6.1719,-6.1719,-6.1719,-6.1719,-6.1719,-6.1719,-6.1719,-6.1719,-6.1719,-6.1719,-6.1719,-6.1719,-6.1719,-6.1719,-6.1719,-6.1719,-6.1719,-6.1719,-6.1719,-6.1719,-6.1797,-6.1992,-6.1992,-6.1914,-6.1719,-6.1914,-6.2062,-6.2122,-6.2401,-6.2203,-6.1608,-6.1726,-6.1408,-6.0781,-6.0781,-6.0781,-6.0781,-6.0781,-6.0781,-6.0781,-6.0781,-6.0781,-6.0781,-6.0781,-6.0781,-6.0781,-6.0781,-6.0781,-6.0781,-6.0781,-6.0666,-6.0473,-6.0473,-5.9858,-5.9204,-5.9204,-5.9204,-5.9281,-5.9473,-6.0012,-6.055,-6.0742,-6.0781,-6.1012,-6.1678,-6.2781,-6.4128,-6.5628,-6.6744,-6.7398,-6.7398,-6.7244,-6.7167,0.0,-6.8013,-6.8744,-6.9629,-6.9706,-6.986,0.0,0.0,0.0,0.0,-6.9659,-6.9551,-7.0379,-7.0737,-7.0706,-7.0283,-6.8359,-6.6667,-6.5205,-6.4782,-6.4589,-6.4589,-6.4397,-6.382,-6.2974,-6.2127,-6.1408,-6.0781,-6.0781,-6.0781,-6.0781,-6.0781,-6.0781,-6.0781,-6.0781,-6.0781,-6.0781,-6.1719,-6.1719,-6.1719,-6.1719,-6.1719,-6.1719,-6.1719,-6.1719,-6.1719,-6.1719,-6.1719,-6.1719,-6.1719,-6.1719,-6.1719,-6.1719,-6.1719,-6.1719,-6.1719,-6.1719,-6.1719,-6.1719,-6.1719,-6.1719,-6.1719,-6.1719,-6.1719,-6.1719,-6.1719,-6.1719,-6.1719,-6.1634,-6.1821,-6.2168,-6.2041,-6.1856,-6.1718,-6.164,-6.1302,-6.0781,-6.0781,-6.0781,-6.0781,-6.0781,-6.0781,-6.0781,-6.0781,-6.0781,-6.0858,-6.1243,-6.1127,-6.0858,-6.1281,-6.1127,-6.0781,-6.0781,-6.0781,-6.0781,-6.0781,-6.0435,-6.0089,-6.0089,-6.0089,-6.0089,-6.0089,-6.0473,-6.0781,-6.0781,-6.0781,-6.105,-6.1947,-6.2474,-6.332,-6.5013,-6.5359,-6.5628,-6.6436,-6.6205,-6.6397,-6.7552,-6.8129,-6.8898,-7.0129,-7.0244,-7.0437,-7.086,-7.0052,0.0,-7.0321,-6.9937,-6.9917,-7.044,-7.0762,-7.0514,-6.9706,-6.7205,-6.5705,-6.5166,-6.4397,-6.4436,-6.5166,-6.4359,-6.3743,-6.3231,-6.2012,-6.1243,-6.0781,-6.0781,-6.0781,-6.0781,-6.0781,-6.0781,-6.0781,-6.0781,-6.105,-6.1408,-6.1719,-6.1719,-6.1719,-6.1719,-6.1719,-6.1719,-6.1719,-6.1719,-6.1719,-6.1719,-6.1719,-6.1719,-6.1719,-6.1719,-6.1719,-6.1719,-6.1719,-6.1719,-6.1719,-6.1719,-6.1719,-6.1719,-6.1719,-6.1719,-6.1719,-6.1719,-6.1719,-6.1719,-6.1719,-6.1719,-6.1719,-6.1573,-6.1967,-6.2773,-6.1703,-6.1693,-6.2334,-6.1375,-6.0895,-6.0781,-6.0781,-6.0781,-6.0781,-6.0781,-6.0781,-6.0781,-6.0781,-6.0858,-6.1089,-6.187,-6.1678,-6.1281,-6.1908,-6.1601,-6.0973,-6.0819,-6.0781,-6.0781,-6.0781,-6.0781,-6.0781,-6.0781,-6.0781,-6.0781,-6.0781,-6.0781,-6.0781,-6.0781,-6.0781,-6.1012,-6.1793,-6.1908,-6.2397,-6.3974,-6.3589,-6.3705,-6.5474,0.0,-6.5705,-6.8115,-6.8513,-6.9206,-7.0744,-7.0898,-7.086,-7.0744,-7.0706,-7.036,-6.9552,-6.9513,-6.9821,-7.0514,-7.0514,-7.0129,-6.9321,-6.6167,-6.4974,-6.5705,-6.4205,-6.4282,-6.5628,-6.4051,-6.3308,-6.3205,-6.1512,-6.0781,-6.0781,-6.0781,-6.0781,-6.0781,-6.0781,-6.0781,-6.0781,-6.0781,-6.137,-6.2101,-6.1719,-6.1719,-6.1719,-6.1719,-6.1719,-6.1719,-6.1719,-6.1719,-6.1719,-6.1719,-6.1719,-6.1719,-6.1719,-6.1719,-6.1719,-6.1719,-6.1719,-6.1719,-6.1719,-6.1719,-6.1719,-6.1719,-6.1719,-6.1719,-6.1719,-6.1719,-6.1719,-6.1719,-6.1719,-6.1719,-6.1719,-6.1573,-6.1655,-6.1875,-6.1295,-6.1228,-6.1466,-6.1032,-6.0827,-6.0781,-6.0781,-6.0781,-6.0781,-6.0781,-6.0781,-6.0781,-6.0781,-6.1281,-6.1908,-6.2062,-6.2474,-6.282,-6.2281,-6.2024,-6.1755,-6.1012,-6.0781,-6.0781,-6.0781,-6.0781,-6.0781,-6.0781,-6.0781,-6.0781,-6.0781,-6.0781,-6.0781,-6.0781,-6.0781,-6.0819,-6.0973,-6.1012,-6.132,-6.2332,-6.237,-6.2858,-6.4551,0.0,-6.6359,-6.8205,-6.9052,-6.986,-7.0821,-7.0898,-7.0629,-6.9937,-6.9898,-6.9513,-6.8667,-6.859,-6.8667,-6.8783,-6.8783,-6.8359,-6.7513,-6.5551,-6.4666,-6.4782,-6.4551,-6.4551,-6.4782,-6.3782,-6.3308,-6.3205,-6.1512,-6.0781,-6.0781,-6.0781,-6.0781,-6.0781,-6.0781,-6.0781,-6.0781,-6.0781,-6.137,-6.2101,-6.1719,-6.1719,-6.1719,-6.1719,-6.1719,-6.1719,-6.1719,-6.1719,-6.1719,-6.1719,-6.1719,-6.1719,-6.1719,-6.1719,-6.1719,-6.1719,-6.1719,-6.1719,-6.1719,-6.1719,-6.1719,-6.1719,-6.1719,-6.1719,-6.1719,-6.1719,-6.1719,-6.1719,-6.1632,-6.1584,-6.1582,-6.1334,-6.131,-6.1485,-6.114,-6.1056,-6.1135,-6.0963,-6.086,-6.0781,-6.0781,-6.0781,-6.0781,-6.0781,-6.0781,-6.0858,-6.132,-6.1755,-6.2255,-6.3128,-6.3089,-6.2666,-6.2743,-6.2127,-6.132,-6.0935,-6.0781,-6.0781,-6.0781,-6.0781,-6.0781,-6.0781,-6.0781,-6.0781,-6.0781,-6.0781,-6.0781,-6.0781,-6.0781,-6.1089,-6.1973,-6.1781,-6.1781,-6.2589,-6.2358,0.0,0.0,-6.4666,-6.582,-6.7513,-6.8475,-6.9167,-6.9513,-6.9552,-6.9398,-6.9052,-6.9013,-6.8821,-6.8436,-6.7936,-6.7705,-6.7705,-6.7705,-6.7513,-6.709,-6.5436,-6.4859,-6.5282,-6.482,-6.4859,-6.5243,-6.3897,-6.3308,-6.3231,-6.2012,-6.1512,-6.1512,-6.1512,-6.1512,-6.1447,-6.0973,-6.0781,-6.0858,-6.132,-6.2012,-6.282,-6.1719,-6.1719,-6.1719,-6.1719,-6.1719,-6.1719,-6.1719,-6.1719,-6.1719,-6.1719,-6.1719,-6.1719,-6.1719,-6.1719,-6.1719,-6.1719,-6.1719,-6.1719,-6.1719,-6.1719,-6.1719,-6.1719,-6.1719,-6.1719,-6.1719,-6.1678,-6.1638,-6.1638,-6.1515,-6.1432,-6.1471,-6.1182,-6.1158,-6.1277,-6.1097,-6.0997,-6.0997,-6.0982,-6.0874,-6.0781,-6.0781,-6.0781,-6.0781,-6.0781,-6.0935,-6.1166,-6.187,-6.237,-6.2858,-6.4166,-6.3858,-6.3012,-6.3243,-6.2435,-6.1281,-6.0896,-6.0781,-6.0781,-6.0781,-6.0781,-6.0858,-6.105,-6.0935,-6.0858,-6.105,-6.0935,-6.0858,-6.105,-6.0935,-6.132,-6.3012,-6.2627,-6.2293,-6.2935,0.0,0.0,0.0,-6.4397,-6.5743,-6.7244,-6.8359,-6.8898,-6.8744,-6.8706,-6.8552,-6.8129,-6.809,-6.8013,-6.7821,-6.7167,-6.6821,-6.6821,-6.6821,-6.6898,-6.709,-6.5628,-6.5243,-6.5897,-6.5205,-6.5243,-6.5859,-6.432,-6.3512,-6.3281,-6.2666,-6.2293,-6.2101,-6.2101,-6.2101,-6.2024,-6.1127,-6.0935,-6.1166,-6.187,-6.2743,-6.3705,-6.1719,-6.1719,-6.1719,-6.1719,-6.1719,-6.1719,-6.1719,-6.1719,-6.1719,-6.1719,-6.1719,-6.1719,-6.1719,-6.1719,-6.1719,-6.1719,-6.1719,-6.1719,-6.1719,-6.1719,-6.1719,-6.1719,-6.1719,-6.1719,-6.1719,-6.158,-6.1512,-6.1512,-6.1373,-6.1301,-6.1301,-6.1277,-6.1277,-6.1277,-6.1097,-6.0997,-6.0988,-6.086,-6.0804,-6.0781,-6.0781,-6.0781,-6.0781,-6.0781,-6.1281,-6.2024,-6.2101,-6.3089,-6.4436,-6.4551,-6.5051,-6.5359,-6.3782,-6.3243,-6.282,-6.1243,-6.0781,-6.0781,-6.0781,-6.0781,-6.0973,-6.1793,-6.1408,-6.1012,-6.1831,-6.1358,-6.1012,-6.1831,-6.1358,-6.132,-6.3012,-6.2627,-6.2139,-6.2178,0.0,0.0,-6.3269,-6.5397,-6.7244,-6.8205,-6.9744,-7.0437,-6.9667,-6.959,-6.8936,-6.7321,-6.7205,-6.6859,-6.6128,-6.6013,-6.5974,-6.5974,-6.5974,-6.6359,-6.709,-6.6244,-6.582,-6.5897,-6.582,-6.582,-6.5859,-6.4936,-6.4051,-6.3308,-6.3243,-6.2781,-6.2101,-6.2101,-6.2101,-6.2024,-6.1127,-6.1281,-6.2024,-6.2101,-6.3128,-6.4512,-6.1719,-6.1719,-6.1719,-6.1719,-6.1719,-6.1719,-6.1719,-6.1719,-6.1719,-6.1719,-6.1719,-6.1719,-6.1719,-6.1719,-6.1719,-6.1719,-6.1719,-6.1719,-6.1719,-6.1719,-6.1719,-6.1719,-6.1719,-6.1719,-6.1719,-6.1577,-6.1525,-6.1632,-6.1279,-6.1201,-6.1409,-6.1195,-6.112,-6.112,-6.104,-6.0954,-6.0871,-6.0839,-6.0781,-6.0781,-6.0781,-6.0781,-6.0781,-6.0781,-6.1331,-6.2178,-6.2666,-6.3589,-6.4666,-6.5205,-6.5282,-6.4974,-6.432,-6.3743,-6.3089,-6.1935,-6.1601,-6.1601,-6.1601,-6.1601,-6.1678,-6.2024,-6.187,-6.1678,-6.2024,-6.1831,-6.1562,-6.1331,-6.1858,-6.2551,-6.3192,-6.3474,-6.3666,-6.3666,0.0,-6.4128,-6.4128,-6.5397,-6.6474,-6.6821,-6.7859,-6.8244,-6.7436,-6.7321,-6.7051,-6.6397,-6.6359,-6.6436,-6.6628,-6.6628,-6.6397,-6.5897,-6.5897,-6.6051,-6.6359,-6.6051,-6.5897,-6.5897,-6.5897,-6.5897,-6.5859,-6.5013,-6.4128,-6.332,-6.3858,-6.3628,-6.2858,-6.2858,-6.2858,-6.2743,-6.1935,-6.1831,-6.2216,-6.3281,-6.4051,-6.4666,-6.2031,-6.1875,-6.1719,-6.1719,-6.1719,-6.1719,-6.1719,-6.1719,-6.1719,-6.1719,-6.1953,-6.1992,-6.1719,-6.1953,-6.2109,-6.2109,-6.1875,-6.1836,-6.2109,-6.1836,-6.1719,-6.1719,-6.1719,-6.1719,-6.1719,-6.1577,-6.1566,-6.1634,-6.1273,-6.1195,-6.1417,-6.1188,-6.1065,-6.0997,-6.0997,-6.0935,-6.0781,-6.0781,-6.0781,-6.0781,-6.0781,-6.0781,-6.0819,-6.1089,-6.1743,-6.2589,-6.3397,-6.4282,-6.5089,-6.5705,-6.532,-6.4589,-6.4589,-6.4012,-6.3205,-6.2627,-6.2474,-6.2474,-6.2474,-6.2666,-6.2897,-6.2897,-6.2666,-6.2551,-6.282,-6.2666,-6.2358,-6.205,-6.2704,-6.3462,-6.4012,-6.4397,-6.4589,-6.4589,-6.482,-6.4897,-6.4628,-6.5551,-6.6282,-6.6282,-6.7013,-6.7167,-6.6359,-6.6282,-6.6167,-6.5897,-6.5897,-6.6128,-6.6667,-6.6705,-6.6474,-6.5897,-6.5897,-6.5897,-6.5897,-6.5897,-6.5897,-6.5897,-6.5897,-6.5897,-6.5859,-6.5282,-6.4551,-6.3782,-6.4628,-6.4512,-6.3705,-6.3705,-6.3705,-6.3628,-6.2781,-6.2627,-6.3012,-6.4166,-6.4782,-6.5089,-6.2812,-6.2305,-6.1719,-6.1719,-6.1719,-6.1719,-6.1719,-6.1719,-6.1719,-6.1719,-6.2461,-6.2656,-6.1797,-6.2461,-6.3008,-6.3008,-6.2226,-6.207,-6.2969,-6.2187,-6.1719,-6.1719,-6.1719,-6.1719,-6.1719,-6.1575,-6.1504,-6.1504,-6.1393,-6.1322,-6.1322,-6.1322,-6.1193,-6.0997,-6.0997,-6.0935,-6.0781,-6.0781,-6.0781,-6.0781,-6.0819,-6.0819,-6.0896,-6.1793,-6.2589,-6.3423,-6.4282,-6.5166,-6.5897,-6.5897,-6.532,-6.4628,-6.4628,-6.4012,-6.3308,-6.3308,-6.3308,-6.3308,-6.3308,-6.3935,-6.4628,-6.4589,-6.3935,-6.3538,-6.4397,-6.3935,-6.3551,-6.4397,-6.3897,-6.3858,-6.5551,-6.5205,-6.4628,-6.4628,-6.532,-6.559,-6.4743,-6.6051,-6.709,-6.709,-6.7859,-6.8052,-6.7167,-6.709,-6.6782,-6.5974,-6.5897,-6.5897,-6.5897,-6.5897,-6.5897,-6.5897,-6.5897,-6.5897,-6.5897,-6.5897,-6.5897,-6.5897,-6.5897,-6.5897,-6.5897,-6.5897,-6.5436,-6.4666,-6.5513,-6.5397,-6.4589,-6.4589,-6.4589,-6.4512,-6.3666,-6.3858,-6.4589,-6.4628,-6.5166,-6.5897,-6.2031,-6.1875,-6.1719,-6.1719,-6.1719,-6.1719,-6.1719,-6.1719,-6.1719,-6.1719,-6.1914,-6.1992,-6.1719,-6.1914,-6.2344,-6.2969,-6.2773,-6.2969,-6.3867,-6.3672,-6.3515,-6.3515,-6.293,-6.2617,-6.2617,-6.2932,-6.3185,-6.3335,-6.2323,-6.1953,-6.2133,-6.2043,-6.1638,-6.1036,-6.1655,-6.1514,-6.0781,-6.0781,-6.0781,-6.0858,-6.1485,-6.137,-6.0973,-6.2397,-6.3089,-6.3423,-6.4282,-6.5166,-6.5897,-6.5897,-6.5743,-6.5513,-6.5513,-6.4897,-6.4205,-6.4205,-6.4205,-6.4205,-6.4205,-6.4859,-6.5359,-6.4743,-6.4397,-6.4282,-6.4551,-6.4397,-6.4128,-6.3782,-6.4436,-6.5089,-6.5013,-6.5282,-6.5513,-6.5513,-6.5743,-6.582,-6.5551,-6.5936,-6.6244,-6.6244,-6.6974,-6.7167,-6.632,-6.6782,-6.6782,-6.5974,-6.6397,-6.7013,-6.7628,-6.7051,-6.6744,-6.6744,-6.6205,-6.6167,-6.6744,-6.6167,-6.5897,-6.5897,-6.5897,-6.5897,-6.5897,-6.5897,-6.5436,-6.4666,-6.5513,-6.5397,-6.4589,-6.4589,-6.4589,-6.4589,-6.432,-6.4359,-6.4666,-6.5282,-6.5667,-6.5897,-6.3164,-6.2969,-6.2734,-6.2734,-6.2734,-6.2734,-6.2734,-6.2734,-6.2734,-6.2734,-6.3047,-6.3125,-6.2773,-6.3047,-6.3437,-6.3984,-6.4023,-6.4101,-6.4297,-6.4297,-6.4297,-6.4297,-6.414,-6.3867,-6.3515,-6.3797,-6.3978,-6.4115,-6.3216,-6.2878,-6.3022,-6.2873,-6.2537,-6.2034,-6.251,-6.2365,-6.1781,-6.1781,-6.1781,-6.182,-6.2358,-6.2243,-6.1935,-6.332,-6.382,-6.3935,-6.4782,-6.5436,-6.5859,-6.5513,-6.5397,-6.532,-6.4974,-6.4974,-6.5128,-6.5128,-6.5359,-6.559,-6.559,-6.6244,-6.6667,-6.582,-6.5089,-6.4705,-6.5051,-6.4859,-6.4551,-6.4359,-6.5166,-6.5743,-6.5205,-6.5551,-6.5897,-6.5897,-6.5897,-6.5897,-6.5897,-6.5897,-6.5897,-6.5897,-6.659,-6.6782,-6.5974,-6.6628,-6.6782,-6.5974,-6.6628,-6.7321,-6.7859,-6.7705,-6.7628,-6.7628,-6.7128,-6.7128,-6.7628,-6.7128,-6.6705,-6.6359,-6.6359,-6.6205,-6.5897,-6.5897,-6.559,-6.5128,-6.5667,-6.559,-6.5128,-6.5128,-6.5128,-6.5128,-6.5128,-6.532,-6.559,-6.582,-6.609,-6.6359,-6.5312,-6.4844,-6.4297,-6.4297,-6.4297,-6.4297,-6.4297,-6.4297,-6.4297,-6.4297,-6.5,-6.5195,-6.4375,-6.5,-6.5508,-6.5586,-6.5664,-6.539,-6.457,-6.4531,-6.4531,-6.4531,-6.5273,-6.5351,-6.453,-6.4377,-6.4297,-6.4297,-6.4004,-6.387,-6.3864,-6.3761,-6.3661,-6.3574,-6.3476,-6.3346,-6.3308,-6.3308,-6.3308,-6.3308,-6.3397,-6.3346,-6.3385,-6.4359,-6.4666,-6.4705,-6.5667,-6.5974,-6.5782,-6.4974,-6.4705,-6.4589,-6.3782,-6.4628,-6.5897,-6.5897,-6.6397,-6.7013,-6.709,-6.7667,-6.8129,-6.7398,-6.6013,-6.5013,-6.582,-6.5397,-6.5051,-6.582,-6.6013,-6.5974,-6.5897,-6.5974,-6.6013,-6.6013,-6.6051,-6.6128,-6.6128,-6.6128,-6.6128,-6.6128,-6.6821,-6.6974,-6.609,-6.659,-6.6744,-6.6167,-6.6782,-6.7282,-6.7436,-6.8129,-6.8513,-6.8513,-6.8423,-6.8423,-6.8513,-6.8513,-6.8052,-6.709,-6.709,-6.6667,-6.5897,-6.5897,-6.5897,-6.5897,-6.5897,-6.5936,-6.6013,-6.6013,-6.6013,-6.6013,-6.6013,-6.6436,-6.7013,-6.6282,-6.6513,-6.7205,-6.4414,-6.4414,-6.4297,-6.4297,-6.4297,-6.4297,-6.4297,-6.4297,-6.4297,-6.4297,-6.4453,-6.4492,-6.4336,-6.4453,-6.4844,-6.5547,-6.6211,-6.6523,-6.6367,-6.6328,-6.6328,-6.6328,-6.6523,-6.6441,-6.6095,-6.5961,-6.589,-6.589,-6.4909,-6.4431,-6.4431,-6.4413,-6.4031,-6.3376,-6.4037,-6.3935,-6.3308,-6.3308,-6.3308,-6.3346,-6.4051,-6.3897,-6.3462,-6.5013,-6.5205,-6.4782,-6.6282,-6.6436,-6.5859,-6.5667,-6.5628,-6.559,-6.5397,-6.559,-6.5897,-6.5897,-6.6013,-6.6282,-6.6936,-6.7244,-6.7513,-6.7975,-6.7321,-6.659,-6.6782,-6.6667,-6.659,-6.6782,-6.6821,-6.6628,-6.6013,-6.6397,-6.6821,-6.6821,-6.7398,-6.7859,-6.7859,-6.7859,-6.7859,-6.7859,-6.8629,-6.8513,-6.6974,-6.6436,-6.6628,-6.7782,-6.8013,-6.8706,-7.0014,-6.9667,-6.9436,-6.9436,-6.8783,-6.8744,-6.9398,-6.9436,-6.8629,-6.709,-6.709,-6.6667,-6.5897,-6.5897,-6.5897,-6.5897,-6.5897,-6.6244,-6.6821,-6.6821,-6.6821,-6.6821,-6.6821,-6.6936,-6.709,-6.6898,-6.7359,-6.8129,-6.5469,-6.5547,-6.5547,-6.5547,-6.5547,-6.5547,-6.5547,-6.5547,-6.5547,-6.5547,-6.5547,-6.5547,-6.5547,-6.5547,-6.5703,-6.6172,-6.664,-6.6874,-6.6745,-6.6834,-6.6873,-6.6745,-6.6743,-6.6692,-6.6616,-6.6354,-6.6252,-6.6252,-6.5556,-6.5205,-6.5205,-6.5205,-6.4974,-6.4551,-6.5013,-6.4974,-6.4551,-6.4551,-6.4551,-6.4589,-6.5051,-6.4936,-6.4628,-6.5551,-6.5859,-6.5897,-6.6782,-6.659,-6.582,-6.5436,-6.5282,-6.5282,-6.5282,-6.5551,-6.5897,-6.5897,-6.6167,-6.6667,-6.7475,-6.8013,-6.8436,-6.8898,-6.8667,-6.8244,-6.7821,-6.7398,-6.7205,-6.7628,-6.7705,-6.759,-6.7167,-6.7436,-6.7705,-6.7705,-6.809,-6.8385,-6.8385,-6.8385,-6.8385,-6.8385,-6.9167,-6.936,-6.8436,-6.759,-6.7475,-6.8308,-6.8783,-6.9398,-7.0283,-7.0283,-7.0283,-7.0283,-6.9821,-6.9821,-7.0283,-7.0283,-6.9629,-6.8321,-6.8321,-6.7898,-6.709,-6.709,-6.709,-6.709,-6.709,-6.7321,-6.7705,-6.7705,-6.7705,-6.7667,-6.7244,-6.759,-6.8244,-6.7398,-6.7898,-6.8975,-6.6875,-6.6914,-6.6914,-6.6914,-6.6914,-6.6914,-6.6914,-6.7031,-6.707,-6.6914,-6.7031,-6.707,-6.6914,-6.6914,-6.6914,-6.6914,-6.6914,-6.6833,-6.6678,-6.6902,-6.6981,-6.6814,-6.6794,-6.6779,-6.672,-6.6307,-6.6109,-6.6109,-6.5978,-6.5897,-6.5897,-6.5897,-6.5897,-6.5897,-6.5897,-6.5897,-6.5897,-6.5897,-6.5897,-6.5897,-6.5897,-6.5897,-6.5897,-6.6051,-6.6513,-6.7128,-6.7436,-6.7128,-6.6436,-6.5551,-6.5166,-6.5013,-6.5013,-6.5436,-6.5897,-6.5897,-6.6359,-6.7128,-6.8129,-6.8936,-6.9552,-6.9821,-6.9898,-6.9706,-6.9013,-6.8167,-6.7744,-6.8475,-6.8629,-6.859,-6.8436,-6.8513,-6.8629,-6.8629,-6.8744,-6.8821,-6.8821,-6.8821,-6.8821,-6.8821,-6.936,-6.9706,-6.9706,-6.8898,-6.8462,-6.8629,-6.9283,-6.9744,-6.9898,-7.0552,-7.0898,-7.0898,-7.0898,-7.0898,-7.0898,-7.0898,-7.0552,-6.9898,-7.0052,-6.9513,-6.8385,-6.8385,-6.8385,-6.8385,-6.8385,-6.8475,-6.8629,-6.8629,-6.8629,-6.8552,-6.7821,-6.8436,-6.9552,-6.8244,-6.8667,-6.9783,-6.6758,-6.6914,-6.6914,-6.6914,-6.6914,-6.6914,-6.6914,-6.7539,-6.7734,-6.6992,-6.7578,-6.7734,-6.6992,-6.6914,-6.6914,-6.6914,-6.6914,-6.6875,-6.6874,-6.7436,-6.7754,-6.7745,-6.7574,-6.7397,-6.7295,-6.6495,-6.6109,-6.6109,-6.5978,-6.5897,-6.5897,-6.5897,-6.5897,-6.5897,-6.5897,-6.5897,-6.5897,-6.5897,-6.5897,-6.5897,-6.5897,-6.5897,-6.5974,-6.6667,-6.7013,-6.7282,-6.8821,-6.9283,-6.9052,-6.8167,-6.7398,-6.6744,-6.6744,-6.6359,-6.5897,-6.5897,-6.5974,-6.6397,-6.7975,-6.8513,-6.8936,-7.0398,-7.0744,-7.0706,-7.0591,-6.9937,-6.9398,-6.9513,-6.9513,-6.9283,-6.8552,-6.9013,-6.9513,-6.9513,-7.0129,-7.0552,-7.0552,-7.0552,-7.0552,-7.0552,-7.0052,-6.9706,-6.9706,-6.8898,-6.8706,-6.9475,-6.9629,-7.0014,-7.0706,-7.0821,-7.0898,-7.0898,-7.0898,-7.0898,-7.0898,-7.0898,-7.086,-7.0744,-7.1514,-7.0667,-6.8385,-6.8385,-6.8385,-6.8385,-6.8385,-6.8821,-6.9513,-6.9513,-6.9513,-6.9513,-6.9398,-6.9475,-6.9744,-7.0206,-7.0552,-7.0629,-6.6836,-6.6914,-6.7031,-6.7539,-6.7617,-6.7773,-6.8281,-6.8281,-6.8047,-6.7695,-6.7539,-6.75,-6.7617,-6.8047,-6.828,-6.8183,-6.8239,-6.8235,-6.8011,-6.8401,-6.8548,-6.8292,-6.8202,-6.8139,-6.8074,-6.7608,-6.7143,-6.6653,-6.6165,-6.5897,-6.5897,-6.5897,-6.5897,-6.5897,-6.6359,-6.6551,-6.659,-6.709,-6.7321,-6.7321,-6.7321,-6.7321,-6.7359,-6.7705,-6.8129,-6.8667,-6.9436,-6.9706,-6.959,-6.8706,-6.8129,-6.7744,-6.7244,-6.6859,-6.6551,-6.6551,-6.6551,-6.6936,-6.8667,-6.9129,-6.9398,-7.0591,-7.1283,-7.1629,-7.1629,-7.136,-7.0975,-7.0475,-7.036,-7.0244,-6.986,-7.0129,-7.036,-7.036,-7.0667,-7.0898,-7.0898,-7.0898,-7.0898,-7.0898,-7.0591,-7.036,-7.036,-7.0014,-6.9975,-7.036,-7.0821,-7.1245,-7.1591,-7.2091,-7.236,-7.236,-7.236,-7.2129,-7.1629,-7.2129,-7.2129,-7.1629,-7.2514,-7.2091,-7.0514,-7.0514,-7.0514,-7.0514,-7.0014,-7.0014,-7.036,-7.036,-7.036,-7.0321,-6.9898,-6.9706,-6.9821,-7.0591,-7.0898,-7.086]},{"header":{"parameterUnit":"m.s-1","parameterCategory":1,"la1":30.6,"la2":28.766,"lo1":-90.7593,"lo2":-88.6598,"dy":0.0162,"dx":0.0183,"nx":116,"ny":114,"refTime":"2024-02-27T18:00:00:Z","depth":0,"parameterNumber":3,"parameterNumberName":"V-component_of_WINDS"},"data":[0.0,0.0,0.0,0.0,0.0,0.0,0.0,0.0,0.0,0.0,0.0,0.0,0.0,0.0,0.0,0.0,0.0,0.0,0.0,0.0,0.0,0.0,0.0,0.0,0.0,0.0,0.0,0.0,0.0,0.0,0.0,0.0,0.0,0.0,0.0,0.0,0.0,0.0,0.0,0.0,0.0,0.0,0.0,0.0,0.0,0.0,0.0,0.0,0.0,0.0,0.0,0.0,0.0,0.0,0.0,0.0,0.0,0.0,0.0,0.0,0.0,0.0,0.0,0.0,0.0,0.0,0.0,0.0,0.0,0.0,0.0,0.0,0.0,0.0,0.0,0.0,0.0,0.0,0.0,0.0,0.0,0.0,0.0,0.0,0.0,0.0,0.0,0.0,0.0,0.0,0.0,0.0,0.0,0.0,0.0,0.0,0.0,0.0,0.0,0.0,0.0,0.0,0.0,0.0,0.0,0.0,0.0,0.0,0.0,0.0,0.0,0.0,0.0,0.0,0.0,0.0,0.0,0.0,0.0,0.0,0.0,0.0,0.0,0.0,0.0,0.0,0.0,0.0,0.0,0.0,0.0,0.0,0.0,0.0,0.0,0.0,0.0,0.0,0.0,0.0,0.0,0.0,0.0,0.0,0.0,0.0,0.0,0.0,0.0,0.0,0.0,0.0,0.0,0.0,0.0,0.0,0.0,0.0,0.0,0.0,0.0,0.0,0.0,0.0,0.0,0.0,0.0,0.0,0.0,0.0,0.0,0.0,0.0,0.0,0.0,0.0,0.0,0.0,0.0,0.0,0.0,0.0,0.0,0.0,0.0,0.0,0.0,0.0,0.0,0.0,0.0,0.0,0.0,0.0,0.0,0.0,0.0,0.0,0.0,0.0,0.0,0.0,0.0,0.0,0.0,0.0,0.0,0.0,0.0,0.0,0.0,0.0,0.0,0.0,0.0,0.0,0.0,0.0,0.0,0.0,0.0,0.0,0.0,0.0,0.0,0.0,0.0,0.0,0.0,0.0,0.0,0.0,0.0,0.0,0.0,0.0,0.0,0.0,0.0,0.0,0.0,0.0,0.0,0.0,0.0,0.0,0.0,0.0,0.0,0.0,0.0,0.0,0.0,0.0,0.0,0.0,0.0,0.0,0.0,0.0,0.0,0.0,0.0,0.0,0.0,0.0,0.0,0.0,0.0,0.0,0.0,0.0,0.0,0.0,0.0,0.0,0.0,0.0,0.0,0.0,0.0,0.0,0.0,0.0,0.0,0.0,0.0,0.0,0.0,0.0,0.0,0.0,0.0,0.0,0.0,0.0,0.0,0.0,0.0,0.0,0.0,0.0,0.0,0.0,0.0,0.0,0.0,0.0,0.0,0.0,0.0,0.0,0.0,0.0,0.0,0.0,0.0,0.0,0.0,0.0,0.0,0.0,0.0,0.0,0.0,0.0,0.0,0.0,0.0,0.0,0.0,0.0,0.0,0.0,0.0,0.0,0.0,0.0,0.0,0.0,0.0,0.0,0.0,0.0,0.0,0.0,0.0,0.0,0.0,0.0,0.0,0.0,0.0,0.0,0.0,0.0,0.0,0.0,0.0,0.0,0.0,0.0,0.0,0.0,0.0,0.0,0.0,0.0,0.0,0.0,0.0,0.0,0.0,0.0,0.0,0.0,0.0,0.0,0.0,0.0,0.0,0.0,0.0,0.0,0.0,0.0,0.0,0.0,0.0,0.0,0.0,0.0,0.0,0.0,0.0,0.0,0.0,0.0,0.0,0.0,0.0,0.0,0.0,0.0,0.0,0.0,0.0,0.0,0.0,0.0,0.0,0.0,0.0,0.0,0.0,0.0,0.0,0.0,0.0,0.0,0.0,0.0,0.0,0.0,0.0,0.0,0.0,0.0,0.0,0.0,0.0,0.0,0.0,0.0,0.0,0.0,0.0,0.0,0.0,0.0,0.0,0.0,0.0,0.0,0.0,0.0,0.0,0.0,0.0,0.0,0.0,0.0,0.0,0.0,0.0,0.0,0.0,0.0,0.0,0.0,0.0,0.0,0.0,0.0,0.0,0.0,0.0,0.0,0.0,0.0,0.0,0.0,0.0,0.0,0.0,0.0,0.0,0.0,0.0,0.0,0.0,0.0,0.0,0.0,0.0,0.0,0.0,0.0,0.0,0.0,0.0,0.0,0.0,0.0,0.0,0.0,0.0,0.0,0.0,0.0,0.0,0.0,0.0,0.0,0.0,0.0,0.0,0.0,0.0,0.0,0.0,0.0,0.0,0.0,0.0,0.0,0.0,0.0,0.0,0.0,0.0,0.0,0.0,0.0,0.0,0.0,0.0,0.0,0.0,0.0,0.0,0.0,0.0,0.0,0.0,0.0,0.0,0.0,0.0,0.0,0.0,0.0,0.0,0.0,0.0,0.0,0.0,0.0,0.0,0.0,0.0,0.0,0.0,0.0,0.0,0.0,0.0,0.0,0.0,0.0,0.0,0.0,0.0,0.0,0.0,0.0,0.0,0.0,0.0,0.0,0.0,0.0,0.0,0.0,0.0,0.0,0.0,0.0,0.0,0.0,0.0,0.0,0.0,0.0,0.0,0.0,0.0,0.0,0.0,0.0,0.0,0.0,0.0,0.0,0.0,0.0,0.0,0.0,0.0,0.0,0.0,0.0,0.0,0.0,0.0,0.0,0.0,0.0,0.0,0.0,0.0,0.0,0.0,0.0,0.0,0.0,0.0,0.0,0.0,0.0,0.0,0.0,0.0,0.0,0.0,0.0,0.0,0.0,0.0,0.0,0.0,0.0,0.0,0.0,0.0,0.0,0.0,0.0,0.0,0.0,0.0,0.0,0.0,0.0,0.0,0.0,0.0,0.0,0.0,0.0,0.0,0.0,0.0,0.0,0.0,0.0,0.0,0.0,0.0,0.0,0.0,0.0,0.0,0.0,0.0,0.0,0.0,0.0,0.0,0.0,0.0,0.0,0.0,0.0,0.0,0.0,0.0,0.0,0.0,0.0,0.0,0.0,0.0,0.0,0.0,0.0,0.0,0.0,0.0,0.0,0.0,0.0,0.0,0.0,0.0,0.0,0.0,0.0,0.0,0.0,0.0,0.0,0.0,0.0,0.0,0.0,0.0,0.0,0.0,0.0,0.0,0.0,0.0,0.0,0.0,0.0,0.0,0.0,0.0,0.0,0.0,0.0,0.0,0.0,0.0,0.0,0.0,0.0,0.0,0.0,0.0,0.0,0.0,0.0,0.0,0.0,0.0,0.0,0.0,0.0,0.0,0.0,0.0,0.0,0.0,0.0,0.0,0.0,0.0,0.0,0.0,0.0,0.0,0.0,0.0,0.0,0.0,0.0,0.0,0.0,0.0,0.0,0.0,0.0,0.0,0.0,0.0,0.0,0.0,0.0,0.0,0.0,0.0,0.0,0.0,0.0,0.0,0.0,0.0,0.0,0.0,0.0,0.0,0.0,0.0,0.0,0.0,0.0,0.0,0.0,0.0,0.0,0.0,0.0,0.0,0.0,0.0,0.0,0.0,0.0,0.0,0.0,0.0,0.0,0.0,0.0,0.0,0.0,0.0,0.0,0.0,0.0,0.0,0.0,0.0,0.0,0.0,0.0,0.0,0.0,0.0,0.0,0.0,0.0,0.0,0.0,0.0,0.0,0.0,0.0,0.0,0.0,0.0,0.0,0.0,0.0,0.0,0.0,0.0,0.0,0.0,0.0,0.0,0.0,0.0,0.0,0.0,0.0,0.0,0.0,0.0,0.0,0.0,0.0,0.0,0.0,0.0,0.0,0.0,0.0,0.0,0.0,0.0,0.0,0.0,0.0,0.0,0.0,0.0,0.0,0.0,0.0,0.0,0.0,0.0,0.0,0.0,0.0,0.0,0.0,0.0,0.0,0.0,0.0,0.0,0.0,0.0,0.0,0.0,0.0,0.0,0.0,0.0,0.0,0.0,0.0,0.0,0.0,0.0,0.0,0.0,0.0,0.0,0.0,0.0,0.0,0.0,0.0,0.0,0.0,0.0,0.0,0.0,0.0,0.0,0.0,0.0,0.0,0.0,0.0,0.0,0.0,0.0,0.0,0.0,0.0,0.0,0.0,0.0,0.0,0.0,0.0,0.0,0.0,0.0,0.0,0.0,0.0,0.0,0.0,0.0,0.0,0.0,0.0,0.0,0.0,0.0,0.0,0.0,0.0,0.0,0.0,0.0,0.0,0.0,0.0,0.0,0.0,0.0,0.0,0.0,0.0,0.0,0.0,0.0,0.0,0.0,0.0,0.0,0.0,0.0,0.0,0.0,0.0,0.0,0.0,0.0,0.0,0.0,0.0,0.0,0.0,0.0,0.0,0.0,0.0,0.0,0.0,0.0,0.0,0.0,0.0,0.0,0.0,0.0,0.0,0.0,0.0,0.0,0.0,0.0,0.0,0.0,0.0,0.0,0.0,0.0,0.0,0.0,0.0,0.0,0.0,0.0,0.0,0.0,0.0,0.0,0.0,0.0,0.0,0.0,0.0,0.0,0.0,0.0,0.0,0.0,0.0,0.0,0.0,0.0,0.0,0.0,0.0,0.0,0.0,0.0,0.0,0.0,0.0,0.0,0.0,0.0,0.0,0.0,0.0,0.0,0.0,0.0,0.0,0.0,0.0,0.0,0.0,0.0,0.0,0.0,0.0,0.0,0.0,0.0,0.0,0.0,0.0,0.0,0.0,0.0,0.0,0.0,0.0,0.0,0.0,0.0,0.0,0.0,0.0,0.0,0.0,0.0,0.0,0.0,0.0,0.0,0.0,0.0,0.0,0.0,0.0,0.0,0.0,0.0,0.0,0.0,0.0,0.0,0.0,0.0,0.0,0.0,0.0,0.0,0.0,0.0,0.0,0.0,0.0,0.0,0.0,0.0,0.0,0.0,0.0,0.0,0.0,0.0,0.0,0.0,0.0,0.0,0.0,0.0,0.0,0.0,0.0,0.0,0.0,0.0,0.0,0.0,0.0,0.0,0.0,0.0,0.0,0.0,0.0,0.0,0.0,0.0,0.0,0.0,0.0,0.0,0.0,0.0,0.0,0.0,0.0,0.0,0.0,0.0,0.0,0.0,0.0,0.0,0.0,0.0,0.0,0.0,0.0,0.0,0.0,0.0,0.0,0.0,0.0,0.0,0.0,0.0,0.0,0.0,0.0,0.0,0.0,0.0,0.0,0.0,0.0,0.0,0.0,0.0,0.0,0.0,0.0,0.0,0.0,0.0,0.0,0.0,0.0,0.0,0.0,0.0,0.0,0.0,0.0,0.0,0.0,0.0,0.0,0.0,0.0,0.0,0.0,0.0,0.0,0.0,0.0,0.0,0.0,0.0,0.0,0.0,0.0,0.0,0.0,0.0,0.0,0.0,0.0,0.0,0.0,0.0,0.0,0.0,0.0,0.0,0.0,0.0,0.0,0.0,0.0,0.0,0.0,0.0,0.0,0.0,0.0,0.0,0.0,0.0,0.0,0.0,0.0,0.0,0.0,0.0,0.0,0.0,0.0,0.0,0.0,0.0,0.0,0.0,0.0,0.0,0.0,0.0,0.0,0.0,0.0,0.0,0.0,0.0,0.0,0.0,0.0,0.0,0.0,0.0,0.0,0.0,0.0,0.0,0.0,0.0,0.0,0.0,0.0,0.0,0.0,0.0,0.0,0.0,0.0,0.0,0.0,0.0,0.0,0.0,0.0,0.0,0.0,0.0,0.0,0.0,0.0,0.0,0.0,0.0,0.0,0.0,0.0,0.0,0.0,0.0,0.0,0.0,0.0,0.0,0.0,0.0,0.0,0.0,0.0,0.0,0.0,0.0,0.0,0.0,0.0,0.0,0.0,0.0,0.0,0.0,0.0,0.0,0.0,0.0,0.0,0.0,0.0,0.0,0.0,0.0,0.0,0.0,0.0,0.0,0.0,0.0,0.0,0.0,0.0,0.0,0.0,0.0,0.0,0.0,0.0,0.0,0.0,0.0,0.0,0.0,0.0,0.0,0.0,0.0,0.0,0.0,0.0,0.0,0.0,0.0,0.0,0.0,0.0,0.0,0.0,0.0,0.0,0.0,0.0,0.0,0.0,0.0,0.0,-2.0432,-2.1047,0.0,0.0,0.0,0.0,0.0,0.0,0.0,0.0,0.0,0.0,0.0,0.0,0.0,0.0,0.0,0.0,0.0,0.0,0.0,0.0,0.0,0.0,0.0,0.0,0.0,0.0,-2.6386,-2.6386,-2.6386,-2.6386,-2.6386,-2.6386,-2.6386,-2.6386,-2.6386,-2.668,-2.6331,-2.5256,-2.2947,-1.9943,-1.6285,-1.4234,-1.3258,-1.3193,0.0,0.0,0.0,0.0,0.0,0.0,0.0,0.0,0.0,0.0,0.0,0.0,0.0,0.0,0.0,0.0,0.0,0.0,0.0,0.0,0.0,0.0,0.0,0.0,0.0,0.0,0.0,0.0,0.0,0.0,0.0,0.0,0.0,0.0,0.0,0.0,0.0,0.0,0.0,0.0,0.0,0.0,0.0,0.0,0.0,0.0,0.0,0.0,0.0,0.0,0.0,0.0,0.0,0.0,0.0,0.0,0.0,0.0,0.0,0.0,0.0,0.0,0.0,0.0,0.0,0.0,0.0,0.0,0.0,0.0,-1.6503,-1.7442,0.0,0.0,0.0,0.0,0.0,0.0,0.0,0.0,0.0,0.0,0.0,0.0,0.0,0.0,0.0,0.0,0.0,0.0,0.0,0.0,0.0,0.0,0.0,-2.5555,-2.5453,-2.5793,-2.5819,-2.5819,-2.5819,-2.6228,-2.6386,-2.6386,-2.6386,-2.6386,-2.6386,-2.672,-2.5754,-2.348,-2.0618,-1.6859,-1.2427,-1.0406,-1.0526,-1.237,-1.23,0.0,0.0,0.0,0.0,0.0,0.0,0.0,0.0,0.0,0.0,0.0,0.0,0.0,0.0,0.0,0.0,0.0,0.0,0.0,0.0,0.0,0.0,0.0,0.0,0.0,0.0,0.0,0.0,0.0,0.0,0.0,0.0,0.0,0.0,0.0,0.0,0.0,0.0,0.0,0.0,0.0,0.0,0.0,0.0,0.0,0.0,0.0,0.0,0.0,0.0,0.0,0.0,0.0,0.0,0.0,0.0,0.0,0.0,0.0,0.0,0.0,0.0,0.0,-1.4102,-1.4007,-1.386,-1.1572,-1.0366,-1.033,-1.1855,-1.2418,-1.2402,-1.4451,0.0,0.0,0.0,0.0,0.0,0.0,0.0,0.0,0.0,0.0,0.0,0.0,0.0,0.0,0.0,0.0,0.0,0.0,0.0,0.0,0.0,-2.3918,-2.3014,-2.3504,-2.354,-2.354,-2.354,-2.533,-2.6386,-2.6386,-2.6386,-2.6386,-2.6386,-2.6921,-2.5928,-2.3186,-1.8585,-1.4918,-1.2121,-1.0139,-0.9374,-0.9664,-0.8228,0.0,0.0,0.0,0.0,0.0,0.0,0.0,0.0,0.0,0.0,0.0,0.0,0.0,0.0,0.0,0.0,0.0,0.0,0.0,0.0,0.0,0.0,0.0,0.0,0.0,0.0,0.0,0.0,0.0,0.0,0.0,0.0,0.0,0.0,0.0,0.0,0.0,0.0,0.0,0.0,0.0,0.0,0.0,-1.3431,-1.3431,0.0,0.0,0.0,0.0,0.0,0.0,0.0,0.0,0.0,0.0,0.0,0.0,0.0,-1.4306,-1.4326,-1.4177,-1.4102,-1.4102,-1.3946,-1.3736,-1.3401,-1.1277,-1.0133,-0.9744,-0.8308,0.0,-0.7637,-0.7966,0.0,0.0,0.0,0.0,0.0,0.0,0.0,0.0,0.0,0.0,0.0,0.0,0.0,0.0,0.0,0.0,0.0,0.0,0.0,0.0,0.0,-2.2853,-2.2029,-2.1318,-2.2544,-2.3293,-2.3152,-2.5311,-2.656,-2.64,-2.6386,-2.6386,-2.6386,-2.664,-2.4882,-2.0924,-1.6142,-1.3251,-1.206,-0.8885,-0.7402,-0.7292,-0.4235,-0.4897,-0.8315,-0.9536,0.0,0.0,0.0,0.0,0.0,0.0,0.0,0.0,0.0,0.0,0.0,0.0,0.0,0.0,0.0,0.0,0.0,0.0,0.0,0.0,0.0,0.0,0.0,0.0,0.0,0.0,0.0,0.0,0.0,0.0,0.0,0.0,0.0,0.0,0.0,0.0,0.0,0.0,0.0,-1.3329,-1.3437,-1.3186,-1.2393,-1.1851,0.0,0.0,0.0,0.0,0.0,0.0,0.0,0.0,0.0,-1.4299,-1.4299,-1.4299,-1.4299,-1.415,-1.4075,-1.4068,-1.3749,-1.3526,-1.3307,-1.0916,-0.9111,-0.7852,-0.5567,-0.3979,-0.3118,-0.5615,-0.7069,-0.7859,0.0,0.0,0.0,0.0,-1.1689,-1.1554,0.0,0.0,0.0,0.0,0.0,0.0,0.0,0.0,0.0,0.0,0.0,0.0,-2.2472,-2.1745,-2.0784,-1.9297,-2.1231,-2.2576,-2.2439,-2.5042,-2.6573,-2.6507,-2.6426,-2.6386,-2.6386,-2.5126,-2.2746,-1.9049,-1.4414,-1.2115,-1.1925,-0.8421,-0.6788,-0.6664,-0.2613,-0.2677,-0.5994,-0.7548,-0.8915,0.0,0.0,0.0,0.0,0.0,0.0,0.0,0.0,0.0,0.0,0.0,0.0,0.0,0.0,0.0,0.0,0.0,0.0,0.0,0.0,0.0,0.0,0.0,0.0,0.0,0.0,0.0,0.0,0.0,0.0,0.0,0.0,0.0,0.0,0.0,0.0,0.0,0.0,-1.3315,-1.3238,-1.2227,-1.102,-1.0073,0.0,0.0,0.0,0.0,0.0,0.0,-1.0624,-1.1255,-1.2414,-1.421,-1.4299,-1.4299,-1.4299,-1.4109,-1.4014,-1.4007,-1.3559,-1.3302,-1.3132,-1.0588,-0.8563,-0.6965,-0.4654,-0.2791,-0.1574,-0.3864,-0.5063,-0.5444,-0.5449,-0.5703,-0.6402,-0.8117,-0.8666,-0.8868,0.0,0.0,0.0,0.0,0.0,0.0,0.0,0.0,0.0,0.0,0.0,-2.3719,-2.2449,-2.0334,-1.8468,-1.7116,-1.8802,-2.0171,-2.066,-2.408,-2.6239,-2.6774,-2.6533,-2.6386,-2.6386,-2.1782,-1.9124,-1.8651,-1.4048,-1.185,-1.177,-0.9882,-0.9016,-0.8893,-0.474,-0.325,-0.3734,-0.3857,-0.6298,-1.0044,0.0,0.0,0.0,0.0,0.0,0.0,0.0,0.0,0.0,0.0,0.0,0.0,0.0,0.0,0.0,0.0,0.0,0.0,0.0,0.0,0.0,0.0,0.0,0.0,0.0,0.0,0.0,0.0,0.0,0.0,0.0,0.0,0.0,0.0,0.0,0.0,0.0,0.0,0.0,-1.0073,-1.0117,0.0,0.0,0.0,0.0,-0.7047,-0.9193,-1.053,-1.0717,-1.2863,-1.421,-1.4299,-1.4299,-1.4299,-1.4299,-1.4,-1.3851,-1.3844,-1.3397,-1.3037,-1.268,-1.0386,-0.9188,-0.867,-0.6404,-0.5386,-0.5026,-0.1702,-0.1403,-0.3056,-0.3086,-0.4178,-0.6008,-0.7717,-0.8292,-0.8549,0.0,0.0,0.0,0.0,0.0,0.0,0.0,0.0,-2.493,-2.5304,-2.501,-2.4248,-2.2945,-2.2066,-2.1007,-1.957,-2.1283,-2.2542,-2.2804,-2.5138,-2.66,-2.6814,-2.6547,-2.6119,-2.5558,-2.0944,-1.8458,-1.8313,-1.418,-1.2176,-1.2188,-1.0233,-0.8615,-0.7232,-0.4378,-0.3246,-0.3649,-0.5036,-0.6467,-0.8131,-1.1188,-1.283,0.0,0.0,0.0,0.0,0.0,0.0,0.0,0.0,0.0,0.0,0.0,0.0,0.0,0.0,0.0,0.0,0.0,0.0,0.0,0.0,0.0,0.0,0.0,0.0,0.0,0.0,0.0,0.0,0.0,0.0,0.0,0.0,0.0,0.0,0.0,0.0,0.0,-0.9813,-0.7537,0.0,-0.47,-0.3312,-0.3153,-0.4688,-0.5662,-0.7449,-1.0535,-1.1522,-1.2686,-1.421,-1.4299,-1.4251,-1.4156,-1.3946,-1.3743,-1.3553,-1.3207,-1.2881,-1.2576,-1.1555,-1.0243,-0.8743,-0.7868,-0.6701,-0.5383,-0.4058,-0.3914,-0.4526,-0.4538,-0.4914,-0.578,-0.7458,-0.8092,-0.8365,0.0,0.0,0.0,0.0,0.0,0.0,0.0,0.0,-2.481,-2.5304,-2.5197,-2.452,-2.3099,-2.3084,-2.2574,-2.0971,-2.2627,-2.3892,-2.4234,-2.5669,-2.6667,-2.6961,-2.6507,-2.5515,-2.3943,-2.0303,-1.7971,-1.7018,-1.3831,-1.2311,-1.2352,-1.1053,-0.9729,-0.8308,-0.6297,-0.5528,-0.59,-0.7413,-0.8001,-0.8173,-1.1289,-1.2888,-1.3534,0.0,0.0,0.0,0.0,0.0,0.0,0.0,0.0,0.0,0.0,0.0,0.0,0.0,0.0,0.0,0.0,0.0,0.0,0.0,0.0,0.0,0.0,0.0,0.0,0.0,0.0,0.0,0.0,0.0,0.0,0.0,0.0,0.0,0.0,-1.1928,-1.0535,-0.8968,-0.6364,-0.4083,-0.2382,-0.0886,-0.0978,-0.3383,-0.4362,-0.65,-1.0446,-1.1433,-1.2686,-1.421,-1.4299,-1.4224,-1.4075,-1.3871,-1.3648,-1.3397,-1.2996,-1.2678,-1.242,-1.2067,-1.1106,-0.9572,-0.9408,-0.8521,-0.7272,-0.7237,-0.7155,-0.7082,-0.5895,-0.5393,-0.5633,-0.7388,-0.803,-0.824,0.0,0.0,0.0,0.0,0.0,0.0,0.0,-2.501,-2.4743,-2.505,-2.5104,-2.4544,-2.2965,-2.3234,-2.2905,-2.1366,-2.2665,-2.3868,-2.4717,-2.5554,-2.6439,-2.7201,-2.6465,-2.4649,-2.1763,-1.9768,-1.7517,-1.499,-1.3183,-1.2223,-1.2155,-1.2366,-1.2508,-1.2302,-1.062,-0.9916,-1.0063,-1.0539,-1.06,-1.0403,-1.0397,-1.1757,-1.3944,0.0,0.0,0.0,0.0,0.0,0.0,0.0,0.0,0.0,0.0,0.0,0.0,0.0,0.0,0.0,0.0,0.0,0.0,0.0,0.0,0.0,0.0,0.0,0.0,0.0,0.0,0.0,0.0,0.0,0.0,0.0,0.0,0.0,-1.305,-1.3267,-1.1794,-0.723,-0.6865,-0.5138,-0.0443,-0.0091,-0.1105,-0.355,-0.5903,-0.8309,-1.0728,-1.3046,-1.4299,-1.4299,-1.4292,-1.4217,-1.4061,-1.377,-1.3539,-1.3363,-1.2779,-1.242,-1.2257,-1.1823,-1.1531,-1.1369,-1.1008,-1.088,-1.086,-1.0778,-1.0717,-1.0332,-0.6935,-0.5562,-0.5763,-0.7431,-0.8097,-0.8368,0.0,0.0,0.0,0.0,0.0,0.0,0.0,-2.4877,-2.4823,-2.5331,-2.5585,-2.5699,-2.5698,-2.6186,-2.6415,-2.6255,-2.6217,-2.6406,-2.6845,-2.6703,-2.66,-2.6627,-2.5585,0.0,-2.3809,-2.0139,-1.7971,-1.7185,-1.4022,-1.242,-1.2379,-1.2461,-1.1751,-1.0349,-0.9962,-1.0044,-1.034,-1.0575,-1.1701,-1.3222,-1.3114,-1.4223,-1.6009,0.0,0.0,0.0,0.0,0.0,0.0,0.0,0.0,0.0,0.0,0.0,0.0,0.0,0.0,0.0,0.0,0.0,0.0,0.0,0.0,0.0,0.0,0.0,0.0,0.0,0.0,0.0,0.0,0.0,0.0,0.0,-1.4077,-1.3112,-1.3112,-1.1979,-0.9978,-0.717,-0.5491,-0.3378,-0.0277,-0.1663,-0.3781,-0.615,-0.8561,-1.0955,-1.3368,-1.3998,-1.4299,-1.4299,-1.419,-1.4014,-1.3756,-1.3559,-1.322,-1.2745,-1.2583,-1.2311,-1.1952,-1.1721,-1.1477,-1.1212,-1.1029,-1.082,-1.0778,-1.0738,-1.0717,-1.0591,-0.9619,-0.9273,-0.931,-0.9782,-0.9975,-1.0047,0.0,0.0,0.0,0.0,0.0,0.0,0.0,-2.4743,-2.481,-2.5264,-2.5798,-2.6319,-2.6774,-2.7348,-2.7762,-2.7936,-2.7415,-2.7201,-2.7495,-2.6961,0.0,0.0,0.0,-2.4438,-2.3516,-2.0067,-1.7856,-1.703,-1.3976,-1.2474,-1.2413,-1.2542,-1.1978,-1.0941,-1.1224,-1.1591,-1.1859,-1.2132,-1.306,-1.438,-1.5323,-1.6278,-1.7332,-1.7895,-2.0395,-2.3656,-2.4215,-2.5471,-2.68,-2.6172,0.0,0.0,0.0,0.0,0.0,0.0,0.0,0.0,0.0,0.0,0.0,0.0,0.0,0.0,0.0,0.0,0.0,0.0,0.0,0.0,0.0,0.0,0.0,0.0,-1.472,-1.3403,-1.3532,-1.2501,-1.1009,-0.8853,-0.7495,-0.5821,-0.3464,-0.4489,-0.643,-0.8805,-1.0224,-1.2074,-1.4336,-1.4434,-1.436,-1.4299,-1.415,-1.3933,-1.3634,-1.341,-1.3064,-1.2596,-1.2406,-1.2182,-1.1918,-1.1579,-1.1335,-1.122,-1.0941,-1.0806,-1.0717,-1.0717,-1.0717,0.0,0.0,0.0,0.0,0.0,-1.0622,-1.0636,0.0,0.0,0.0,0.0,0.0,0.0,0.0,-2.4589,-2.4743,-2.5037,-2.5838,-2.6493,-2.6747,-2.7321,-2.7696,-2.7696,-2.7188,-2.6987,-2.7241,0.0,0.0,-2.5638,-2.5331,-2.43,-2.2405,-1.9962,-1.7731,-1.5906,-1.3605,-1.2474,-1.2372,-1.2617,-1.2759,-1.2834,-1.3383,-1.3715,-1.3885,-1.4177,-1.4299,-1.4476,-1.6896,-1.7921,-1.8383,-2.0209,-2.2448,-2.4807,-2.6531,-2.6921,-2.6533,-2.6213,0.0,0.0,0.0,0.0,0.0,0.0,0.0,0.0,0.0,0.0,0.0,0.0,0.0,0.0,0.0,0.0,0.0,0.0,0.0,0.0,0.0,0.0,0.0,0.0,-1.5143,-1.3777,-1.4055,-1.4143,-1.3375,-1.1161,-1.1095,-1.0292,-0.7878,-0.7841,-0.8892,-1.1071,-1.1501,-1.2409,-1.446,-1.4509,0.0,0.0,0.0,-1.3905,-1.3607,-1.3302,-1.2983,-1.2651,-1.225,-1.2047,-1.1993,-1.1493,-1.1234,-1.1145,-1.0846,-1.0717,-1.0717,-1.0717,-1.0704,-1.0656,-1.0541,-1.048,-1.0473,-1.0487,-1.0493,-1.0514,0.0,0.0,0.0,0.0,0.0,0.0,0.0,-2.4796,-2.4743,-2.5037,-2.5838,-2.6413,-2.6466,-2.7201,-2.7696,-2.7696,-2.7375,-2.7201,0.0,0.0,-2.6092,-2.6213,-2.5945,-2.5511,-2.4801,-2.1079,-1.8875,-1.8485,-1.4602,-1.2739,-1.2834,-1.2759,-1.2922,-1.3281,-1.3519,-1.3777,-1.4041,-1.4224,-1.4299,-1.4476,-1.6896,-1.879,-2.0416,-2.2437,-2.4613,-2.6695,-2.6587,-2.7094,-2.7805,-2.7188,-2.4501,-2.1222,-2.058,0.0,0.0,0.0,0.0,0.0,0.0,0.0,0.0,0.0,0.0,0.0,0.0,0.0,0.0,0.0,0.0,0.0,0.0,0.0,0.0,-1.9506,-1.6584,-1.4048,-1.4231,-1.457,-1.3884,-1.1423,-1.1186,-1.0254,-0.794,-0.9526,-1.0938,-1.1477,-1.3109,-1.4205,-1.4608,-1.4468,-1.4326,-1.4299,-1.4027,-1.3743,-1.3451,-1.3152,-1.2725,-1.2189,0.0,0.0,-1.1694,-1.1328,-1.1234,-1.1145,-1.0846,-1.0717,-1.0717,-1.0717,-1.0582,-1.0371,-1.046,-1.0419,-1.0337,-1.0453,-1.0493,-1.0493,0.0,0.0,0.0,0.0,0.0,0.0,0.0,-2.4863,-2.497,-2.5264,-2.5812,-2.6279,-2.6573,-2.7001,-2.7255,-2.7255,-2.6987,0.0,0.0,-2.6413,0.0,-2.66,-2.6333,-2.6172,-2.6172,-2.1783,-1.9573,-1.9573,-1.5081,-1.299,-1.3064,-1.3064,-1.3186,-1.341,-1.3715,-1.3933,-1.4082,-1.4238,-1.4992,-1.629,-1.854,-2.0816,-2.2854,-2.3844,-2.5741,-2.7752,-2.7375,-2.7549,-2.7689,-2.6071,-2.3407,-2.0544,-1.9182,-1.6302,-1.3403,0.0,0.0,0.0,0.0,0.0,0.0,0.0,0.0,0.0,0.0,0.0,0.0,0.0,0.0,-1.9654,-2.1771,0.0,-1.9334,-2.0537,-1.7079,-1.4265,-1.4489,-1.4841,-1.4579,-1.3288,-1.3204,-1.2856,-1.1735,-1.2713,-1.3483,-1.3477,-1.4442,-1.5011,-1.4862,-1.4645,-1.4482,-1.4407,-1.4041,-1.3736,-1.3519,-1.3146,-1.2773,-1.2393,-1.2169,-1.1986,-1.183,-1.145,-1.1233,-1.122,-1.0928,-1.0792,-1.0717,-1.0717,-1.0588,-1.0392,-1.0466,-1.031,-1.0066,-1.0215,-1.0317,-1.0399,0.0,0.0,0.0,0.0,0.0,0.0,0.0,-2.4877,-2.5117,-2.5464,-2.5772,-2.6159,-2.668,-2.6787,-2.6827,-2.6827,0.0,0.0,0.0,0.0,0.0,0.0,0.0,-2.672,-2.6907,-2.282,-2.0446,-2.0038,-1.5926,-1.376,-1.3302,-1.3403,-1.3478,-1.3546,-1.3912,-1.4089,-1.421,-1.4766,-1.6034,-1.8017,-2.0789,-2.3041,-2.4776,-2.5203,-2.6588,-2.8221,-2.8221,-2.7909,-2.7258,-2.4782,-2.2356,-1.9907,-1.7692,-1.5455,-1.3729,-1.3573,-1.3749,0.0,0.0,0.0,0.0,0.0,0.0,0.0,0.0,0.0,-1.4344,-1.6701,-1.9109,-2.1264,-2.306,-2.1913,-2.0587,-2.0304,-1.6976,-1.4482,-1.4746,-1.5038,-1.5181,-1.5072,-1.5296,-1.5452,-1.5452,-1.5567,-1.5588,-1.5466,-1.5398,-1.5248,-1.4984,-1.4794,-1.4638,-1.4516,-1.4075,-1.377,-1.3634,-1.3186,-1.2854,-1.2637,-1.225,-1.2108,-1.1965,-1.1572,-1.1307,-1.122,-1.0982,-1.0766,-1.0717,-1.0717,-1.0629,-1.0493,-1.0493,-1.0256,-0.9924,-1.0046,-1.0188,-1.0331,0.0,0.0,0.0,0.0,0.0,0.0,0.0,0.0,-2.489,-2.5438,-2.5772,-2.6079,-2.64,-2.6667,-2.6827,-2.6827,0.0,0.0,0.0,0.0,0.0,0.0,0.0,0.0,0.0,0.0,-2.2571,-2.0483,-1.7942,-1.5622,-1.3763,-1.3654,-1.3743,-1.4,-1.4048,-1.415,-1.4448,-1.6545,-1.7588,-1.8191,-2.2525,-2.4434,-2.4947,-2.7012,-2.7968,-2.8221,-2.8221,-2.7872,-2.7046,-2.5228,-2.2657,-2.0036,-1.8366,-1.616,-1.4197,-1.4041,0.0,-1.36,-1.3247,-1.2996,-1.2949,-1.3431,-1.3295,-1.3234,0.0,0.0,-1.4443,-1.6971,-1.9456,-2.1165,-2.1312,-2.118,-2.0529,-1.8646,-1.6279,-1.4753,-1.4923,-1.5201,-1.5377,-1.5364,-1.5513,-1.5615,-1.5615,-1.5628,-1.5635,-1.5615,-1.5364,-1.514,-1.4977,-1.4692,-1.4529,-1.4509,-1.4075,-1.377,-1.3634,-1.3186,-1.2752,-1.2338,-1.2149,-1.1925,-1.166,-1.1477,-1.1307,-1.1145,-1.0867,-1.0738,-1.0717,-1.0717,-1.0629,-1.0493,-1.0493,-1.0385,-1.0229,-1.0249,-1.0344,-1.0453,0.0,0.0,0.0,0.0,0.0,0.0,0.0,0.0,0.0,0.0,-2.5518,-2.5812,-2.6106,-2.64,-2.6573,0.0,0.0,0.0,0.0,0.0,0.0,0.0,0.0,0.0,0.0,0.0,0.0,0.0,0.0,0.0,-1.5934,-1.4606,-1.4034,-1.4082,-1.4346,-1.5237,-1.6614,-1.7491,-1.9499,-2.2186,-2.3966,-2.5556,-2.6842,-2.7799,-2.8114,-2.7883,-2.7883,-2.696,0.0,0.0,-2.0712,-1.8367,-1.6481,-1.5073,-1.4156,-1.4089,-1.398,0.0,-1.3302,-1.3146,-1.3119,0.0,-1.3288,-1.3573,-1.3946,-1.4,-1.5038,-1.8899,-2.047,-2.1622,-2.2909,-2.2136,-2.0569,0.0,-1.6242,-1.4923,-1.5072,-1.5357,-1.5513,-1.5418,-1.5696,-1.5859,-1.5771,-1.5845,-1.5825,-1.5649,-1.5438,-1.5215,-1.4984,-1.4679,-1.4509,-1.4509,-1.4075,-1.377,-1.3634,-1.3186,-1.282,-1.2542,-1.2216,-1.1999,-1.187,-1.1633,-1.1389,-1.1145,-1.0846,-1.0717,-1.0717,-1.0717,-1.0683,-1.0622,-1.0622,-1.0588,-1.0514,-1.0344,-1.0371,-1.048,0.0,0.0,0.0,0.0,0.0,0.0,0.0,0.0,0.0,0.0,-2.5264,-2.5531,-2.5996,-2.6213,0.0,0.0,0.0,0.0,0.0,0.0,0.0,0.0,0.0,0.0,0.0,0.0,0.0,0.0,0.0,0.0,0.0,0.0,0.0,0.0,0.0,-1.6128,-1.8373,-1.8963,-2.158,-2.5248,-2.5675,-2.6863,-2.8257,-2.8167,-2.7883,-2.7696,-2.7696,-2.6185,0.0,0.0,-1.9081,-1.6889,-1.4856,-1.4163,-1.4055,-1.3973,-1.3892,-1.3736,-1.3342,0.0,0.0,-1.3098,-1.3471,-1.3926,-1.4007,-1.466,-1.6442,-2.0424,-2.1832,-2.26,-2.3578,-2.2457,-2.0431,-1.7583,-1.5913,-1.5079,-1.5221,-1.5472,-1.5601,-1.5486,-1.5723,-1.5886,-1.5859,-1.5995,-1.5961,-1.5662,-1.554,-1.5323,-1.4991,-1.4719,-1.4557,-1.4516,-1.4075,-1.377,-1.3634,-1.3186,-1.284,-1.2603,-1.2237,-1.202,-1.1932,-1.1633,-1.1348,-1.109,-1.0833,-1.0717,-1.0717,-1.0717,-1.0717,-1.0717,-1.0717,-1.0717,-1.0697,-1.048,-1.0466,-1.0548,0.0,0.0,0.0,0.0,0.0,0.0,0.0,0.0,0.0,0.0,0.0,0.0,0.0,0.0,0.0,0.0,0.0,0.0,0.0,0.0,0.0,0.0,0.0,0.0,0.0,0.0,0.0,0.0,0.0,0.0,0.0,0.0,0.0,0.0,0.0,0.0,0.0,-2.1245,-2.364,-2.5806,-2.7946,-2.8758,-2.8524,-2.7936,-2.7709,-2.7696,-2.7696,0.0,0.0,0.0,-1.8708,-1.6121,-1.4622,-1.4075,0.0,-1.3729,-1.3431,-1.3227,-1.3356,0.0,-1.3464,-1.3736,-1.3939,-1.4143,-1.4428,-1.6474,-1.8864,-2.0969,-2.3304,-2.4194,-2.178,-2.1316,-1.9958,-1.5517,-1.4984,-1.5228,-1.5384,-1.554,-1.5635,-1.5635,-1.5513,-1.554,0.0,-1.5995,-1.5961,-1.5662,-1.5635,-1.5438,-1.4991,-1.4821,-1.4665,-1.4516,-1.4075,-1.377,-1.3634,-1.3186,-1.2739,-1.2298,-1.2142,-1.1911,-1.1626,-1.1314,-1.1097,-1.088,-1.0785,-1.0717,-1.0717,-1.0717,-1.0717,-1.0717,-1.0717,-1.0717,-1.0717,-1.0711,-1.0711,-1.069,0.0,0.0,0.0,0.0,0.0,0.0,0.0,0.0,0.0,0.0,0.0,0.0,0.0,0.0,0.0,0.0,0.0,0.0,0.0,0.0,0.0,0.0,0.0,0.0,0.0,0.0,0.0,0.0,0.0,0.0,0.0,0.0,0.0,0.0,0.0,0.0,0.0,0.0,0.0,0.0,-2.863,-2.8698,-2.8564,-2.815,-2.7749,-2.7237,0.0,0.0,0.0,0.0,0.0,-1.4488,-1.3899,-1.3777,-1.3715,-1.3417,-1.3322,-1.3295,-1.3146,-1.3471,-1.3844,-1.3838,-1.4183,-1.459,-1.4889,-1.6827,-1.9118,-2.1292,-2.3414,-2.4041,-2.1553,-2.1104,-1.9665,-1.5276,-1.4923,-1.5235,-1.5391,-1.5622,-1.571,-1.5513,-1.5615,0.0,0.0,0.0,0.0,-1.5642,-1.5364,-1.5086,-1.4828,-1.4584,-1.4428,-1.4373,-1.4027,-1.3722,-1.3478,-1.3132,-1.2732,-1.2284,-1.1938,-1.166,-1.1457,-1.1158,-1.0927,-1.0873,-1.0785,-1.0717,-1.0717,-1.0717,-1.0717,-1.0717,-1.0717,-1.0717,-1.0717,-1.0717,-1.0717,-1.0512,0.0,0.0,0.0,0.0,0.0,0.0,0.0,0.0,0.0,0.0,0.0,0.0,0.0,0.0,0.0,0.0,0.0,0.0,0.0,0.0,0.0,0.0,0.0,0.0,0.0,0.0,0.0,0.0,0.0,0.0,0.0,0.0,0.0,0.0,0.0,0.0,0.0,0.0,0.0,0.0,0.0,0.0,-2.839,-2.7869,-2.7442,0.0,0.0,0.0,0.0,0.0,0.0,-1.4695,-1.4695,-1.5112,-1.5401,-1.4653,-1.4415,-1.4206,-1.3528,-1.3702,-1.4156,-1.4163,-1.4529,-1.4964,-1.5208,-1.7779,-2.04,-2.1618,-2.3457,-2.4063,-2.142,-2.0233,-1.8492,-1.4932,-1.4685,-1.5052,-1.5364,-1.5527,-1.5601,-1.5574,-1.5594,-1.5581,0.0,0.0,0.0,-1.5466,-1.5262,-1.4991,-1.4672,-1.4475,-1.4353,-1.4299,-1.3953,-1.3648,-1.3403,-1.2996,-1.2569,-1.2121,-1.1728,-1.1457,-1.1301,-1.1056,-1.0853,-1.0793,-1.0765,-1.0717,-1.0717,-1.0717,-1.0717,-1.0717,-1.0717,-1.0717,-1.0717,-1.0717,-1.0717,-1.0452,0.0,0.0,0.0,0.0,0.0,0.0,0.0,0.0,0.0,0.0,0.0,0.0,0.0,0.0,0.0,0.0,0.0,0.0,0.0,0.0,0.0,0.0,0.0,0.0,0.0,0.0,0.0,0.0,0.0,0.0,0.0,0.0,0.0,0.0,0.0,0.0,0.0,0.0,0.0,0.0,0.0,0.0,-2.8154,-2.7215,0.0,0.0,0.0,0.0,0.0,0.0,0.0,0.0,-1.6828,-1.7861,-1.8739,-1.7124,-1.6383,-1.5723,-1.4238,-1.4082,-1.4394,-1.4692,-1.4984,-1.5242,-1.5391,-1.9158,-2.247,-2.1829,-2.3425,-2.3971,0.0,0.0,-1.6465,-1.4447,-1.434,-1.4746,-1.533,-1.5303,-1.5384,0.0,0.0,0.0,0.0,0.0,0.0,-1.5153,0.0,-1.5113,-1.4543,-1.4502,-1.4434,-1.4292,-1.3858,-1.3546,-1.3376,-1.2773,-1.225,-1.183,-1.1525,-1.1301,-1.1158,-1.1002,-1.0793,-1.0717,-1.0717,-1.0717,-1.0717,-1.0717,-1.0717,-1.0717,-1.0717,-1.0717,-1.0717,-1.0717,-1.0717,-1.0452,0.0,0.0,0.0,0.0,0.0,0.0,0.0,0.0,0.0,0.0,0.0,0.0,0.0,0.0,0.0,0.0,0.0,0.0,0.0,0.0,0.0,0.0,0.0,0.0,0.0,0.0,0.0,0.0,0.0,0.0,0.0,0.0,0.0,0.0,0.0,0.0,0.0,0.0,0.0,0.0,0.0,0.0,-2.8444,0.0,0.0,0.0,0.0,0.0,0.0,0.0,0.0,0.0,0.0,-1.8594,-1.7545,-1.7073,-1.5766,-1.4387,-1.4119,-1.4312,-1.4699,-1.4997,-1.5296,-1.5533,-1.5574,-1.7844,-1.9794,-1.9123,-2.051,-2.1055,0.0,0.0,0.0,-1.4454,-1.4597,0.0,-1.5371,-1.5662,0.0,-1.571,0.0,-1.5628,-1.5486,-1.5364,0.0,0.0,-1.478,-1.4672,-1.4523,-1.4414,-1.4285,-1.4136,-1.3804,-1.3451,-1.3078,-1.2359,-1.1945,-1.1823,-1.1416,-1.1199,-1.122,-1.0894,-1.0758,-1.0717,-1.0717,-1.0717,-1.0717,-1.0717,-1.0717,-1.0717,-1.0717,-1.0717,-1.0717,-1.0717,-1.0717,-1.0246,0.0,0.0,0.0,0.0,0.0,0.0,0.0,0.0,0.0,0.0,0.0,0.0,0.0,0.0,0.0,0.0,0.0,0.0,0.0,0.0,0.0,0.0,0.0,0.0,0.0,0.0,0.0,0.0,0.0,0.0,0.0,0.0,0.0,0.0,0.0,0.0,0.0,0.0,0.0,0.0,0.0,0.0,0.0,0.0,0.0,0.0,0.0,0.0,0.0,0.0,0.0,-2.1998,-2.321,-2.1871,-1.9702,-1.9063,0.0,-1.511,-1.455,-1.4645,-1.5004,-1.5309,-1.556,-1.5987,-1.6796,-1.8041,-1.9063,-1.9193,-1.9212,0.0,-1.6816,-1.5788,0.0,0.0,0.0,0.0,-1.535,-1.5628,-1.5798,0.0,-1.5791,0.0,-1.5432,-1.5296,-1.5059,0.0,-1.4624,-1.4557,-1.4428,-1.4346,-1.4231,-1.4075,-1.3715,-1.322,-1.2576,-1.2074,-1.1796,-1.1735,-1.1348,-1.1234,-1.122,-1.0853,-1.0717,-1.0717,0.0,-1.0717,-1.0717,-1.0717,-1.0717,-1.0717,-1.0717,-1.0717,-1.0717,-1.0717,-1.0717,-1.018,0.0,0.0,0.0,0.0,0.0,0.0,0.0,0.0,0.0,0.0,0.0,0.0,0.0,0.0,0.0,0.0,0.0,0.0,0.0,0.0,0.0,0.0,0.0,0.0,0.0,0.0,0.0,0.0,0.0,0.0,0.0,0.0,0.0,0.0,0.0,0.0,0.0,0.0,0.0,0.0,0.0,0.0,0.0,0.0,0.0,0.0,0.0,0.0,0.0,0.0,-2.6179,-2.4644,-2.7061,-2.5758,-2.2988,-2.1708,-1.9159,-1.6569,-1.5167,-1.5018,-1.5289,-1.5594,-1.5744,-1.6321,-1.8263,-1.8489,-1.8715,-2.001,0.0,-1.6422,-1.5964,-1.4294,-1.3146,-1.3614,0.0,-1.4618,-1.5364,-1.5472,-1.5622,-1.6035,-1.5839,-1.5601,-1.5425,-1.5147,-1.4841,-1.4536,-1.4618,-1.457,-1.4312,-1.4299,-1.4204,-1.3987,-1.3526,-1.2888,-1.2149,-1.1891,-1.1742,-1.1613,-1.1307,-1.1234,-1.122,-1.0853,-1.0717,-1.0717,-1.0717,-1.0717,-1.0717,-1.0717,-1.0717,-1.0717,-1.0717,-1.0717,-1.0717,-1.0717,-1.0717,-1.018,0.0,0.0,0.0,0.0,0.0,0.0,0.0,0.0,0.0,0.0,-2.5812,0.0,0.0,0.0,0.0,0.0,0.0,0.0,0.0,0.0,0.0,0.0,0.0,0.0,0.0,0.0,0.0,0.0,0.0,0.0,0.0,0.0,0.0,0.0,0.0,0.0,0.0,0.0,0.0,0.0,0.0,0.0,0.0,0.0,0.0,0.0,0.0,0.0,0.0,0.0,-2.791,-2.78,-2.8332,-2.5763,-2.2591,-2.206,-1.8897,-1.5489,-1.5329,-1.533,-1.5445,-1.5744,-1.5744,-1.6166,-1.7992,-1.6842,0.0,0.0,-1.5562,-1.376,-1.3447,-1.3283,-1.3322,-1.3905,0.0,0.0,0.0,-1.5778,-1.5852,0.0,-1.5927,-1.571,-1.5438,-1.5147,0.0,0.0,-1.4428,-1.4353,-1.4306,-1.4299,-1.4061,-1.3532,-1.2956,-1.2467,-1.2067,-1.1796,-1.1647,-1.1613,-1.1307,-1.1234,-1.122,-1.0853,-1.0717,-1.0717,-1.0717,0.0,-1.0717,-1.0717,-1.0717,-1.0717,-1.0717,-1.0717,-1.0717,-1.0717,-1.0717,-1.018,0.0,0.0,0.0,0.0,0.0,0.0,0.0,0.0,0.0,-2.6921,-2.6694,-2.6466,0.0,0.0,0.0,0.0,0.0,0.0,0.0,0.0,0.0,0.0,0.0,0.0,0.0,0.0,0.0,0.0,0.0,0.0,0.0,0.0,0.0,0.0,0.0,0.0,0.0,0.0,0.0,0.0,0.0,0.0,0.0,0.0,0.0,0.0,0.0,0.0,0.0,0.0,-2.8457,-2.8858,-2.9018,-2.5908,-2.2232,-2.2262,-1.8896,-1.5248,-1.556,-1.5642,-1.571,-1.6015,-1.5866,-1.6088,-1.7805,0.0,0.0,0.0,-1.4741,-1.2996,-1.2773,0.0,0.0,0.0,0.0,0.0,0.0,0.0,0.0,0.0,-1.5764,-1.5506,0.0,-1.4909,-1.4638,-1.4421,-1.434,-1.4299,-1.4299,-1.4075,-1.3709,-1.3186,-1.2664,-1.2244,-1.1945,-1.1647,-1.1497,-1.1497,-1.1192,-1.105,-1.1043,-1.0819,-1.0717,-1.0717,-1.0717,-1.0717,-1.0717,-1.0717,-1.0717,-1.0717,-1.0717,-1.0717,-1.0731,-1.0812,-1.0785,-1.0326,0.0,0.0,0.0,0.0,0.0,0.0,0.0,-2.5999,-2.6226,-2.7696,-2.7642,-2.7348,-2.7041,-2.6747,-2.6533,0.0,0.0,0.0,0.0,0.0,0.0,0.0,0.0,0.0,0.0,0.0,0.0,-2.0647,0.0,0.0,0.0,0.0,0.0,0.0,0.0,0.0,0.0,0.0,0.0,0.0,0.0,0.0,0.0,0.0,0.0,0.0,0.0,0.0,0.0,0.0,-2.8457,-2.8798,-2.8588,-2.5518,-2.2091,-2.2303,-1.8989,-1.5364,-1.575,-1.59,-1.6008,-1.6252,-1.6362,-1.6605,-1.7762,-1.6425,0.0,0.0,-1.4627,-1.2969,-1.2847,0.0,0.0,0.0,0.0,0.0,0.0,0.0,0.0,0.0,0.0,0.0,-1.4997,-1.4692,0.0,-1.4312,-1.4706,-1.4773,-1.4251,-1.3797,-1.3356,-1.2976,-1.2461,-1.2074,-1.183,-1.1504,-1.1362,-1.1389,-1.109,-1.088,-1.0873,-1.0792,-1.0717,-1.0717,-1.0717,-1.0717,-1.0717,-1.0717,-1.0717,-1.0717,-1.0717,-1.0738,-1.0785,-1.084,-1.0806,-1.0518,0.0,0.0,0.0,0.0,0.0,0.0,0.0,-2.6346,-2.6841,-2.8323,-2.8257,-2.8033,-2.7655,-2.7362,-2.6974,0.0,0.0,0.0,0.0,0.0,0.0,0.0,0.0,0.0,0.0,0.0,0.0,-2.0343,-1.6483,0.0,0.0,0.0,0.0,0.0,0.0,-2.8221,0.0,0.0,0.0,0.0,0.0,0.0,0.0,0.0,0.0,0.0,0.0,0.0,0.0,0.0,0.0,-2.7963,-2.5995,-2.4085,-2.2465,-2.2202,0.0,0.0,-1.5805,-1.6056,-1.6273,-1.63,-1.7523,-1.8666,-1.8126,0.0,0.0,-1.6666,-1.4786,-1.3152,-1.3132,0.0,0.0,0.0,0.0,0.0,0.0,0.0,0.0,0.0,0.0,0.0,0.0,-1.4692,-1.4455,-1.4312,-1.5976,-1.6144,-1.4176,-1.3532,-1.3139,-1.305,-1.225,-1.1857,-1.183,-1.1402,-1.1253,-1.1389,-1.109,-1.088,-1.0873,-1.0792,-1.0717,-1.0717,-1.0717,-1.0717,0.0,-1.0717,-1.0717,-1.0717,-1.0717,-1.0739,-1.086,-1.0873,-1.0873,-1.0657,0.0,0.0,0.0,0.0,0.0,0.0,0.0,-2.6613,-2.7054,-2.8898,-2.8724,-2.8444,-2.8497,-2.8243,-2.7615,0.0,0.0,0.0,0.0,0.0,0.0,0.0,0.0,0.0,0.0,0.0,-2.0607,-2.0873,-1.649,0.0,0.0,0.0,0.0,0.0,0.0,-2.8221,-2.8221,0.0,0.0,0.0,0.0,0.0,0.0,0.0,0.0,0.0,0.0,0.0,0.0,0.0,0.0,0.0,-2.5118,-2.3035,0.0,0.0,-1.7728,-1.5554,-1.5791,-1.6137,-1.6842,-1.8341,-1.8882,-1.8945,-1.86,0.0,0.0,-1.5158,-1.3906,-1.3173,-1.3173,0.0,0.0,0.0,0.0,0.0,0.0,0.0,0.0,0.0,0.0,0.0,0.0,0.0,-1.4703,-1.5917,-1.6487,-1.6851,-1.7156,-1.5788,-1.426,-1.251,-1.1952,-1.1613,-1.143,-1.1165,-1.1063,-1.1124,-1.0914,-1.0812,-1.0812,-1.0751,-1.0717,-1.0717,-1.0717,-1.0717,0.0,-1.0717,-1.0717,-1.0717,-1.0717,-1.0812,-1.0894,-1.1043,-1.1023,-1.0826,0.0,0.0,0.0,0.0,0.0,0.0,-2.6987,-2.6787,-2.7161,-2.8991,-2.8778,-2.8644,-2.9125,-2.8671,-2.7989,-2.7121,0.0,0.0,0.0,0.0,0.0,0.0,0.0,0.0,0.0,0.0,-1.9628,-2.0086,-1.6187,-1.6641,0.0,0.0,-2.3727,-2.8221,0.0,0.0,0.0,0.0,0.0,0.0,0.0,0.0,0.0,0.0,0.0,0.0,0.0,0.0,0.0,0.0,0.0,0.0,0.0,0.0,0.0,0.0,-1.6697,-1.5357,-1.5696,-1.6117,-1.687,-1.8823,-1.9069,-1.8673,0.0,0.0,0.0,-1.4098,-1.339,-1.3241,-1.3241,0.0,0.0,0.0,0.0,0.0,0.0,0.0,0.0,0.0,0.0,-1.4041,0.0,-1.4061,-1.4807,-1.6734,-1.716,-1.7566,-1.811,-1.729,-1.5582,-1.2963,-1.1907,-1.1335,-1.1234,-1.0975,-1.0833,-1.088,-1.0725,-1.0717,-1.0717,-1.0717,-1.0717,-1.0717,-1.0717,-1.0717,0.0,-1.0717,-1.0717,-1.0724,-1.0772,-1.088,-1.1023,-1.1124,-1.1097,-1.0954,0.0,0.0,0.0,0.0,0.0,0.0,0.0,-2.6827,-2.7255,-2.8457,-2.8337,-2.8569,-2.9379,-2.8417,-2.7949,-2.8537,0.0,0.0,0.0,0.0,0.0,0.0,0.0,0.0,0.0,0.0,-1.7312,-1.7312,-1.5264,-1.6641,-2.1221,-2.1221,-2.3727,-2.8221,0.0,0.0,0.0,0.0,0.0,0.0,0.0,0.0,-2.8221,0.0,0.0,0.0,0.0,0.0,0.0,0.0,0.0,0.0,0.0,0.0,0.0,0.0,-1.6359,-1.5072,-1.552,-1.5967,-1.6347,-1.6483,-1.7712,-1.818,0.0,0.0,0.0,-1.3957,-1.3403,-1.3397,-1.3397,0.0,0.0,0.0,0.0,0.0,0.0,0.0,0.0,0.0,0.0,-1.3302,-1.3607,-1.3634,-1.4397,-1.627,-1.8328,0.0,-1.565,-1.7269,-1.716,-1.4728,-1.2226,-1.1023,-1.1227,-1.0873,-1.0799,-1.088,-1.0725,-1.0717,-1.0717,-1.0717,-1.0717,-1.0717,-1.0717,-1.0717,0.0,-1.0717,-1.0717,-1.0738,-1.082,-1.1036,-1.1227,-1.1234,-1.1227,-1.0931,0.0,0.0,0.0,0.0,0.0,0.0,0.0,-2.6052,-2.6346,-2.7535,-2.7428,-2.7655,-2.8764,-2.8177,-2.7856,-2.8257,0.0,0.0,0.0,0.0,0.0,0.0,0.0,0.0,0.0,-1.8712,-1.7371,-1.767,-1.5403,-1.6641,-2.1221,-2.1221,-2.3727,-2.8221,-2.8221,-2.8221,0.0,0.0,0.0,0.0,0.0,-2.8221,-2.8221,0.0,0.0,0.0,0.0,0.0,0.0,0.0,0.0,0.0,0.0,0.0,0.0,-1.5379,-1.471,-1.4713,-1.4957,-1.5432,-1.6223,-1.7979,-1.8522,-1.8292,-1.7428,0.0,0.0,-1.4098,-1.3471,-1.3403,-1.3403,0.0,0.0,0.0,0.0,0.0,0.0,0.0,0.0,0.0,0.0,-1.3743,0.0,0.0,-1.6344,-1.8399,-1.9948,-2.0405,-1.9485,-1.8193,-1.6004,-1.2521,-1.142,-1.0921,-1.086,-1.0765,-1.0744,-1.0792,-1.0744,-1.0717,-1.0717,-1.0717,-1.0717,-1.0717,-1.0717,-1.0717,-1.0717,-1.0717,-1.0717,-1.0738,-1.082,-1.1036,-1.1234,-1.1234,-1.1234,-1.1069,0.0,0.0,0.0,0.0,0.0,0.0,0.0,-2.5625,-2.5812,-2.6667,-2.6613,-2.6987,-2.8297,-2.7896,-2.7789,-2.843,0.0,0.0,0.0,0.0,0.0,0.0,0.0,0.0,-2.047,-1.7631,-1.63,-1.6559,-1.6098,-1.7764,-2.1266,-2.2392,-2.4781,-2.8221,-2.8221,-2.8221,0.0,0.0,0.0,0.0,-2.8221,-2.8221,-2.8221,0.0,0.0,0.0,0.0,0.0,0.0,0.0,0.0,0.0,0.0,0.0,0.0,0.0,-1.3885,-1.4326,0.0,-1.5099,-1.5834,-1.7473,-1.7389,0.0,0.0,0.0,0.0,0.0,0.0,0.0,0.0,0.0,0.0,0.0,0.0,0.0,0.0,0.0,0.0,-1.3369,0.0,0.0,0.0,-1.5392,-1.7136,-1.998,-2.068,-2.0604,-1.9844,-1.8079,-1.5247,-1.1365,-1.0989,-1.0752,-1.0724,-1.0717,-1.069,-1.0636,-1.069,-1.069,-1.0636,-1.0697,-1.0717,-1.0717,-1.0717,-1.0717,0.0,-1.0717,-1.0751,-1.0745,-1.0847,-1.1036,-1.1158,-1.1104,-1.1084,-1.0988,0.0,0.0,0.0,0.0,0.0,0.0,0.0,0.0,0.0,0.0,-2.5919,-2.6532,-2.7926,-2.7604,-2.7669,0.0,0.0,0.0,0.0,0.0,0.0,0.0,0.0,0.0,-1.9829,-1.6388,-1.4626,-1.4758,-1.7478,-1.9784,-2.172,-2.4314,-2.6463,-2.8221,-2.8221,-2.8221,0.0,0.0,0.0,-2.8221,-2.8221,-2.8221,0.0,0.0,0.0,0.0,0.0,0.0,0.0,0.0,0.0,0.0,0.0,0.0,0.0,0.0,0.0,0.0,0.0,-1.5172,-1.5334,-1.5282,-1.4988,-1.4613,0.0,0.0,0.0,0.0,0.0,0.0,0.0,0.0,0.0,0.0,0.0,0.0,0.0,-1.5468,0.0,0.0,-1.2773,0.0,-1.5585,-1.565,-1.7132,-2.1055,-2.0789,-1.9594,-1.7588,-1.6998,-1.4981,-1.1002,-1.0725,-1.0717,-1.0704,-1.0704,-1.0629,-1.048,-1.0629,-1.0629,-1.0493,-1.0649,-1.0717,0.0,-1.0717,-1.0717,-1.0717,-1.0717,-1.0812,-1.088,-1.088,-1.1036,-1.1214,-1.1002,-1.088,-1.065,0.0,0.0,0.0,0.0,0.0,0.0,0.0,0.0,0.0,0.0,-2.5478,-2.5838,-2.6492,-2.6547,-2.6894,0.0,0.0,0.0,0.0,0.0,0.0,0.0,0.0,0.0,-1.5549,-1.653,-1.7,-1.704,-1.9434,-2.17,-2.3914,-2.4585,-2.6105,-2.8221,-2.8221,-2.8221,0.0,0.0,-2.8221,-2.8221,-2.8221,-2.8087,0.0,0.0,0.0,0.0,-2.7362,-2.7175,0.0,0.0,0.0,0.0,0.0,0.0,0.0,0.0,-1.3702,-1.4235,-1.6309,0.0,-1.6766,-1.4846,-1.5579,-1.6254,0.0,0.0,0.0,0.0,0.0,0.0,0.0,0.0,0.0,0.0,0.0,0.0,-1.3711,0.0,0.0,-1.3145,-1.3173,-1.3777,-1.5289,-1.6788,-1.8577,-2.0865,-2.1799,-2.08,-1.7479,-1.6763,-1.4702,-1.0845,-1.0738,-1.0663,-1.0548,-1.0548,-1.0473,-1.0331,-1.0473,-1.0527,-1.0493,-1.0649,-1.0717,-1.0717,-1.0717,-1.0717,-1.0717,-1.0717,-1.0812,-1.088,-1.088,-1.1036,-1.1214,-1.1002,-1.088,-1.084,0.0,0.0,0.0,0.0,0.0,0.0,0.0,0.0,0.0,0.0,0.0,0.0,0.0,0.0,0.0,0.0,0.0,0.0,0.0,0.0,0.0,0.0,0.0,-1.6625,-1.5602,-1.7061,-1.7805,-1.789,-2.1474,-2.3749,-2.4855,-2.6044,-2.7183,-2.8221,-2.8221,-2.8221,-2.8221,-2.8221,-2.8221,-2.8221,-2.8221,0.0,0.0,0.0,0.0,0.0,-2.7268,-2.6987,0.0,-2.6774,-2.3767,-1.9927,0.0,0.0,0.0,0.0,-1.4421,-1.5717,-1.7076,-1.7638,-1.7476,-1.6087,-1.6631,-1.6702,-1.4182,0.0,0.0,0.0,0.0,0.0,0.0,0.0,0.0,0.0,-1.479,0.0,0.0,0.0,-1.2915,-1.3057,-1.3756,-1.4884,0.0,-1.8299,-2.0011,-2.1697,-2.2242,-2.0822,-1.7016,-1.6374,-1.44,-1.0747,-1.0555,-1.0541,-1.0595,-1.0527,-1.0419,-1.0283,-1.0426,-1.046,-1.0399,-1.0622,-1.0717,-1.0717,-1.0717,-1.0717,-1.0717,-1.0717,-1.0812,-1.0873,-1.0806,-1.0934,-1.105,-1.09,-1.0799,-1.0717,0.0,0.0,0.0,0.0,0.0,0.0,0.0,0.0,0.0,0.0,0.0,0.0,0.0,0.0,0.0,0.0,0.0,0.0,0.0,0.0,0.0,0.0,0.0,-1.6641,-1.6836,-1.7853,-1.8357,-1.8522,-2.3622,-2.5962,-2.556,-2.793,-2.8724,-2.8234,-2.8274,-2.8274,-2.8221,-2.8221,-2.8221,-2.8221,-2.8221,0.0,0.0,0.0,0.0,0.0,0.0,0.0,0.0,-2.6096,-2.3279,-1.9796,-1.9712,0.0,0.0,0.0,0.0,0.0,-1.8162,-1.8335,-1.8226,-1.82,-1.8246,-1.749,-1.4671,0.0,0.0,0.0,0.0,0.0,0.0,-1.7176,0.0,0.0,0.0,0.0,-1.2782,-1.2569,-1.2657,-1.2895,-1.4245,0.0,-1.8045,-1.9525,-2.1035,-2.2682,-2.2084,-2.0108,-1.6588,-1.5693,-1.3797,-1.0616,-1.0351,-1.0399,-1.0649,-1.05,-1.0351,-1.0209,-1.0358,-1.0358,-1.0256,-1.0548,-1.0683,-1.0683,0.0,0.0,-1.0724,-1.0744,-1.0833,-1.0867,-1.0739,-1.0766,-1.086,-1.0778,-1.0636,-1.0456,0.0,0.0,0.0,0.0,0.0,0.0,0.0,0.0,0.0,0.0,0.0,0.0,0.0,0.0,0.0,0.0,0.0,0.0,0.0,0.0,0.0,-1.8331,-1.5794,-1.4485,-1.478,-1.8618,-2.0722,-2.0752,-2.5928,-2.847,-2.8343,-2.8844,-2.8724,-2.8234,-2.8417,-2.839,-2.8221,-2.8221,-2.8221,-2.8221,-2.8221,0.0,0.0,0.0,0.0,0.0,0.0,0.0,0.0,-2.3523,-2.129,-1.9184,-1.7288,0.0,0.0,0.0,0.0,0.0,-2.201,-2.1747,-2.0301,-2.0199,-2.124,-2.1082,-1.6909,0.0,0.0,0.0,0.0,0.0,0.0,-1.6092,-1.735,0.0,0.0,-1.3026,0.0,0.0,-1.2861,-1.2779,0.0,-1.5856,-1.7484,-1.9228,-2.088,-2.239,-2.0806,-1.8827,-1.6522,-1.453,-1.2596,-1.0552,-1.0351,-1.0304,-1.0344,-1.0195,-1.0039,-0.9897,-0.9984,-1.0044,-1.0031,-1.0392,-1.0527,-1.0534,0.0,-1.0717,-1.0731,-1.0793,-1.086,-1.088,-1.0853,-1.086,-1.086,-1.0778,-1.0704,-1.0247,0.0,0.0,0.0,0.0,0.0,0.0,0.0,0.0,0.0,0.0,0.0,0.0,0.0,0.0,0.0,0.0,0.0,0.0,0.0,0.0,0.0,-1.7281,-1.6377,-1.5312,-1.4258,-1.8835,-2.1342,-2.1663,-2.6821,-2.9366,-2.9513,-2.9192,-2.81,-2.6546,-2.784,-2.7578,-2.6418,-2.7617,-2.8221,-2.8221,0.0,0.0,0.0,0.0,0.0,0.0,0.0,0.0,0.0,0.0,-2.1133,-1.9165,-1.7029,0.0,0.0,0.0,0.0,0.0,-2.3061,-2.3669,-2.3505,-2.2377,-2.2069,-2.0972,-1.7339,0.0,0.0,0.0,0.0,0.0,0.0,0.0,-1.6498,-1.4743,0.0,-1.7102,-1.6233,-1.4948,-1.4489,0.0,0.0,-1.7185,-1.8828,-2.0672,-2.1833,-2.2165,-2.0426,-1.8436,-1.6172,-1.4125,-1.2163,-1.032,-1.0107,-1.0032,-1.0032,-0.9964,-0.9869,-0.9883,-1.01,-1.0175,-1.0181,-1.048,-1.0616,-1.0616,0.0,-1.0717,-1.0724,-1.0799,-1.0759,-1.0759,-1.0759,-1.0759,-1.0799,-1.0568,-1.048,-0.998,0.0,0.0,0.0,0.0,0.0,0.0,0.0,0.0,0.0,0.0,0.0,0.0,0.0,0.0,0.0,0.0,0.0,0.0,0.0,0.0,-1.6416,-1.7222,-1.7366,-1.6914,-1.5757,-2.0076,-2.2592,-2.303,-2.7696,-2.9763,-2.9274,-2.8767,-2.7009,-2.436,-2.6509,-2.6468,-2.4861,-2.7194,-2.8221,-2.8221,0.0,0.0,0.0,0.0,0.0,0.0,0.0,0.0,0.0,0.0,0.0,0.0,0.0,0.0,0.0,-1.722,-2.0262,-2.356,-2.376,-2.4681,-2.5197,-2.3651,0.0,0.0,-1.7343,-1.6551,0.0,0.0,0.0,0.0,0.0,-1.5547,0.0,-1.7258,-1.8922,-1.965,-1.8319,-1.6824,-1.6194,-1.7038,-1.7785,-1.8702,-2.0074,-2.1741,-2.2539,-2.2031,-2.0302,-1.8276,-1.5801,-1.3933,-1.2011,-1.0053,-0.9897,-0.9822,-0.9822,-0.9822,-0.9883,-0.9936,-1.0114,-1.0195,-1.0236,-1.05,-1.0636,-1.067,-1.0704,-1.0717,-1.0724,-1.0792,-1.0785,-1.0724,-1.0799,-1.0785,-1.069,-1.0426,-1.031,-0.9792,0.0,0.0,0.0,0.0,0.0,0.0,0.0,0.0,0.0,0.0,0.0,0.0,0.0,0.0,0.0,0.0,0.0,0.0,0.0,0.0,-1.4791,-1.7026,-1.7383,-1.8509,-2.0673,-2.3953,-2.5682,-2.5717,-2.9592,-3.0084,-2.7319,-2.7125,-2.5094,-2.173,-2.4262,-2.5086,-2.4861,-2.7194,-2.8221,-2.8207,-2.7843,0.0,0.0,0.0,0.0,0.0,0.0,0.0,0.0,0.0,0.0,0.0,0.0,0.0,-1.6975,-1.9095,-2.1292,-2.3564,-2.5581,-2.4669,-2.315,-2.2937,-2.2393,0.0,-1.7663,-1.6368,-1.5333,-1.357,0.0,0.0,0.0,-1.5185,-1.6409,-2.0391,-1.8296,-1.6173,-1.6035,0.0,-1.733,-1.518,-1.8001,-1.9992,-1.9831,-2.145,-2.2325,-2.2004,-2.0129,-1.8029,-1.579,-1.3933,-1.2011,-1.0053,-0.9897,-0.9822,-0.9822,-0.9822,-0.9829,-0.9836,-0.9849,-0.993,-1.0011,-1.0236,-1.0385,-1.0514,-1.0656,-1.0717,-1.0744,-1.1016,-1.0968,-1.0744,-1.1023,-1.0962,-1.0704,-1.0534,-1.0392,-0.9805,0.0,0.0,0.0,0.0,0.0,0.0,0.0,0.0,0.0,0.0,0.0,0.0,0.0,0.0,0.0,0.0,0.0,0.0,0.0,-1.3458,-1.5203,-1.891,-1.9475,-2.1376,-2.4962,-2.5628,-2.634,-2.7071,-2.9968,-3.0029,-2.7498,-2.6494,-2.3707,-1.9618,-2.3249,-2.3909,-2.2555,-2.6323,-2.7762,-2.7671,-2.7482,-2.7255,0.0,0.0,0.0,0.0,0.0,0.0,0.0,0.0,-1.9232,-1.9025,0.0,0.0,0.0,-1.9664,-2.2419,-2.5253,-2.5699,-2.5335,-2.4108,-2.1223,-2.1222,0.0,0.0,-1.6627,-1.5876,-1.3647,-1.4121,-1.5336,-1.6757,0.0,-1.9445,-2.0877,-2.1066,-2.1003,-2.078,-2.0089,-1.9537,-1.9528,-1.9658,-2.0138,-2.1116,-2.1738,-2.2031,-2.1802,-1.9856,-1.778,-1.5721,-1.4619,-1.2812,-0.9971,-1.0815,-1.0838,-0.9822,-0.9822,-0.9822,-0.9822,-0.9856,-0.993,-0.9997,-1.0304,-1.0439,-1.05,-1.0656,-1.0717,-1.0731,-1.0839,-1.0819,-1.0731,-1.0846,-1.0819,-1.069,-1.0453,-1.0324,-0.9792,0.0,0.0,0.0,0.0,0.0,0.0,0.0,0.0,0.0,0.0,0.0,0.0,0.0,0.0,0.0,0.0,0.0,0.0,-1.3166,-1.3458,-1.5615,-2.0066,-2.0668,-2.3011,-2.7599,-2.7345,-2.7509,-2.844,-3.0408,-2.9632,-2.6233,-2.5127,-2.1815,-1.7154,-2.1484,-2.2427,-2.1057,-2.5641,-2.7442,-2.7255,-2.7161,-2.7001,0.0,0.0,0.0,0.0,0.0,0.0,0.0,0.0,-1.9878,0.0,0.0,0.0,0.0,0.0,-2.3492,-2.6146,-2.5651,-2.5598,-2.4739,-2.0781,0.0,0.0,-1.7154,-1.652,-1.6179,-1.4683,-1.516,-1.6121,-1.6944,0.0,0.0,0.0,-2.1882,-2.2839,-2.2537,-2.1595,-2.1052,-2.1191,-2.0642,-2.0659,-2.1739,-2.1844,-2.1724,-2.143,-2.003,-1.8034,-1.5494,-1.5491,-1.3844,-0.9943,-1.1374,-1.1434,-0.9822,-0.9822,-0.9822,-0.9822,-0.9862,-0.9963,-1.0127,-1.0331,-1.0473,-1.0568,-1.0677,-1.0717,-1.0724,-1.0772,-1.0792,-1.0785,-1.0683,-1.0649,-1.0616,-1.0317,-1.0209,-0.9727,0.0,0.0,0.0,0.0,0.0,0.0,0.0,0.0,0.0,0.0,0.0,0.0,0.0,0.0,0.0,0.0,0.0,0.0,-1.3173,-1.3458,-1.5615,-2.0066,-2.0516,-2.3163,-2.8478,-2.9165,-2.9619,-2.9927,-3.1089,-2.8662,-2.2983,-2.254,-1.9444,-1.4455,-1.873,-2.0675,-2.1037,-2.5442,-2.7255,-2.7228,-2.6934,-2.6814,-2.6787,0.0,0.0,0.0,0.0,0.0,0.0,0.0,-2.1076,-2.274,0.0,0.0,0.0,0.0,-2.4481,-2.597,-2.5585,-2.5304,-2.4547,0.0,0.0,0.0,-1.6641,-1.6082,-1.6187,-1.6816,-1.5968,-1.506,-1.4942,-1.619,0.0,-1.9562,-2.0098,-2.0192,-1.9665,-2.1234,-2.1512,-1.9024,-2.0664,-2.1857,-2.1641,-2.1614,-2.1494,-2.1122,-2.0842,-1.9038,-1.5257,-1.6556,-1.5113,-1.0004,-1.1382,-1.1442,-0.9822,-0.9822,-0.9822,-0.9822,-0.9822,-0.9985,-1.0276,-1.0283,-1.0439,-1.0717,-1.0717,-1.0717,-1.0731,-1.0813,-1.088,-1.0847,-1.0609,-1.0493,-1.046,-1.0098,-0.9984,-0.9522,0.0,0.0,0.0,0.0,0.0,0.0,0.0,0.0,0.0,0.0,0.0,0.0,0.0,0.0,0.0,0.0,0.0,0.0,-1.3173,-1.4818,-1.6979,-1.9926,-2.178,-2.4078,-2.696,-2.7829,-2.9085,-3.0835,-3.0782,-2.7921,-2.2519,-2.1649,-1.8631,-1.4146,-1.8749,-2.0571,-2.0568,-2.487,-2.6533,-2.6412,-2.6253,-2.6213,-2.6069,0.0,0.0,0.0,0.0,0.0,0.0,0.0,0.0,0.0,0.0,0.0,0.0,0.0,-2.4343,-2.5929,-2.5344,-2.5291,0.0,-2.2473,0.0,0.0,0.0,-1.7074,0.0,0.0,-1.6805,-1.6268,-1.8404,-1.8032,0.0,-2.0923,-2.161,-2.1581,-2.1082,-2.1477,-2.1462,-2.0503,-2.099,-2.1336,-2.1256,-2.1243,-2.1122,-2.0828,-2.0535,-1.9415,-1.7143,-1.8371,-1.6834,-1.1922,-1.3317,-1.2769,-0.9822,-0.9822,-0.9822,-0.9822,-0.9822,-0.9924,-1.0058,-1.0229,-1.0385,-1.0568,-1.067,-1.0717,-1.0724,-1.0772,-1.0785,-1.0765,-1.0568,-1.0493,-1.046,-1.0098,-0.9984,-0.9522,0.0,0.0,0.0,0.0,0.0,0.0,0.0,0.0,0.0,0.0,-1.3835,-1.3227,0.0,0.0,0.0,0.0,0.0,0.0,0.0,-1.5369,-1.7629,-1.9826,-2.2151,-2.4461,-2.6734,-2.7722,-2.8751,-2.982,-2.9593,-2.6846,-2.171,-2.1033,-1.8242,-1.4016,-1.8676,-2.048,-2.0292,-2.4554,-2.6159,-2.5785,-2.5785,-2.5785,-2.5566,0.0,0.0,0.0,0.0,0.0,0.0,0.0,0.0,0.0,0.0,0.0,0.0,-2.3906,-2.4752,-2.5705,-2.5344,-2.5211,0.0,-2.2589,-2.3108,-2.3476,-2.1035,0.0,0.0,0.0,-1.7192,-1.7187,-1.9122,-1.878,0.0,-2.0501,-2.1556,-2.1911,-2.1443,-2.1376,-2.1309,-2.1136,-2.1109,-2.1109,-2.1109,-2.1002,-2.0815,-2.0521,-2.0227,-1.9378,-1.7767,-1.9031,-1.7649,-1.2845,-1.4179,-1.3353,-0.991,-0.9795,-0.9768,-0.9822,-0.9768,-0.9876,-1.0141,-1.0236,-1.0392,-1.0588,-1.0677,-1.0717,-1.0717,-1.0717,-1.0683,-1.0616,-1.0466,-1.0371,-1.0283,-0.9984,-0.952,-0.8576,0.0,0.0,0.0,0.0,0.0,0.0,0.0,0.0,0.0,0.0,-1.4467,-1.3227,0.0,0.0,0.0,0.0,0.0,0.0,0.0,0.0,-1.7792,-1.9826,-2.2166,-2.461,-2.7255,-2.827,-2.8404,-2.7575,-2.7923,-2.566,-2.0784,-2.0617,-1.8268,-1.4323,-1.8605,-2.0402,-2.0436,-2.4547,-2.5959,-2.5478,-2.5478,-2.5312,-2.4929,-2.2983,0.0,0.0,0.0,0.0,0.0,0.0,0.0,0.0,0.0,0.0,0.0,-2.5678,-2.5531,-2.5545,0.0,0.0,0.0,-2.3,-2.239,0.0,-2.1731,-2.0615,-1.9135,-1.7279,0.0,-1.8227,-1.8363,-1.893,-1.9385,-1.9274,-2.0553,-2.1443,-2.1149,-2.1109,-2.1109,-2.1109,-2.1109,-2.1109,-2.1109,-2.0842,-2.0486,-2.0011,-1.9747,-1.8979,-1.7505,-1.8813,-1.7719,-1.3546,-1.446,-1.3478,-1.0273,-0.9821,-0.9686,-0.9802,-0.97,-0.9869,-1.0283,-1.0283,-1.0439,-1.0717,-1.0717,-1.0717,-1.0717,-1.0717,-1.0629,-1.048,-1.0337,-1.0188,-0.997,-0.9876,-0.8775,-0.7174,0.0,0.0,0.0,0.0,0.0,0.0,0.0,0.0,0.0,0.0,0.0,0.0,0.0,0.0,0.0,0.0,0.0,0.0,0.0,0.0,-1.942,-1.9907,-2.3632,-2.6174,-2.7255,-2.7068,-2.6867,-2.6667,-2.7428,-2.5293,-2.0394,-2.0136,-1.8727,-1.6492,-1.8976,-2.0918,-2.2533,-2.4572,-2.5291,-2.517,-2.517,-2.4237,-2.2553,-2.0647,-1.8739,0.0,0.0,0.0,0.0,0.0,0.0,0.0,-2.5557,-2.6159,-2.6266,-2.5678,-2.5678,0.0,0.0,0.0,0.0,0.0,-2.3897,-2.2451,-2.2194,-2.1555,-2.1192,-2.2007,-2.1417,-2.1032,-2.1715,-2.0674,-2.0015,-2.0876,-2.1356,-2.1443,-2.1149,-2.1109,-2.1109,-2.1109,-2.1109,-2.1109,-2.1109,-2.0842,-2.0041,-1.8508,-1.8179,-1.7972,-1.7777,-1.8225,-1.8046,-1.7155,-1.5991,-1.4288,-1.1913,-1.0461,-0.9734,-0.9659,-0.9795,-1.0066,-1.0283,-1.0283,-1.0439,-1.0717,-1.0717,-1.0717,-1.0717,-1.0717,-1.0629,-1.048,-1.0337,-1.0188,-0.997,-0.9876,-0.8775,-0.7174,0.0,0.0,0.0,0.0,0.0,0.0,0.0,0.0,0.0,0.0,0.0,0.0,0.0,0.0,0.0,0.0,-1.3071,-1.3132,-1.3281,-1.6366,-1.915,-2.1362,-2.4726,-2.668,-2.6841,-2.6547,-2.6319,-2.6186,-2.636,-2.4656,-2.129,-2.1039,-1.9886,-1.8209,-2.0344,-2.1823,-2.2662,-2.4534,-2.513,-2.4789,-2.3792,-2.2792,-2.1499,-1.8558,-1.6886,-1.5806,-1.3749,0.0,0.0,0.0,0.0,0.0,0.0,0.0,-2.6266,-2.5678,0.0,0.0,0.0,0.0,0.0,0.0,0.0,0.0,0.0,-2.3267,-2.3024,-2.3302,-2.2892,-2.2527,-2.2855,-2.1803,-2.1015,-2.1514,-2.1494,-2.1283,-2.1136,-2.1109,-2.1109,-2.1109,-2.1109,-2.1109,-2.1109,-2.0842,-2.0292,-1.9322,-1.825,-1.8103,-1.9173,-1.8491,-1.8125,-1.8187,-1.6439,-1.4492,-1.2329,-1.0583,-0.968,-0.9612,-0.9836,-1.0093,-1.0385,-1.046,-1.0575,-1.0717,-1.0717,-1.0717,-1.0717,-1.0717,-1.0588,-1.0385,-1.031,-1.0141,-0.9869,-0.9849,-0.8282,-0.608,0.0,0.0,0.0,0.0,0.0,0.0,0.0,0.0,0.0,0.0,0.0,0.0,0.0,0.0,-1.2922,0.0,0.0,0.0,-1.3125,-1.5538,-1.8894,-2.3389,-2.5512,-2.6533,-2.6386,-2.6293,-2.6119,-2.5879,-2.5291,-2.4073,-2.2241,-2.2109,-2.1,-1.9414,-2.1714,-2.2674,-2.274,-2.4494,-2.501,-2.4335,-2.2312,-2.1238,-2.0568,-1.6839,-1.5377,-1.5015,-1.334,-1.4241,-1.6736,-1.8876,0.0,0.0,0.0,0.0,-2.6132,-2.5598,0.0,0.0,0.0,0.0,0.0,0.0,0.0,0.0,0.0,0.0,0.0,-2.3086,-2.3073,-2.3126,-2.2712,-2.2245,-2.1817,-2.1588,-2.1269,-2.1109,-2.1109,-2.1109,-2.1109,-2.1109,-2.1109,-2.1109,-2.1109,-2.0842,-2.0482,-1.991,-1.8494,-1.8334,-1.9773,-1.8811,-1.8297,-1.8512,-1.652,-1.4566,-1.2645,-1.0614,-0.9598,-0.9571,-0.9795,-1.012,-1.0534,-1.0663,-1.0717,-1.0717,-1.0717,-1.0717,-1.0717,-1.069,-1.0521,-1.0276,-1.0249,-1.0066,-0.9822,-0.9822,-0.7917,-0.5284,0.0,0.0,0.0,0.0,0.0,0.0,0.0,0.0,0.0,0.0,-1.2908,-1.2935,0.0,-1.2773,-1.2759,-1.2759,-1.2759,-1.2827,-1.2976,0.0,0.0,-2.544,-2.5644,-2.5905,-2.6373,-2.5892,-2.5611,-2.5571,-2.4983,-2.3704,-2.1895,-2.1939,-2.1156,-1.9722,-2.1368,-2.321,-2.4993,-2.4541,-2.4329,-2.409,-2.1897,-1.9966,-1.8153,-1.6125,-1.4357,-1.293,-1.2756,-1.4245,-1.6528,-1.8573,-2.0711,0.0,0.0,0.0,-2.5558,-2.5237,0.0,0.0,0.0,0.0,0.0,0.0,0.0,0.0,0.0,0.0,0.0,0.0,-2.2968,-2.2686,-2.1936,-2.1735,-2.1574,-2.1216,-2.1136,-2.1109,-2.1109,-2.1109,-2.1109,-2.1109,-2.1109,-2.1109,-2.1109,-2.0842,-1.9524,-1.6592,-1.7388,-1.7577,-1.6403,-1.7689,-1.8994,-2.0296,-1.7043,-1.4931,-1.4306,-1.1197,-0.9544,-0.9415,-0.9964,-1.0385,-1.069,-1.0711,-1.0717,-1.0717,-1.0717,-1.0717,-1.0711,-1.0575,-1.0426,-1.0263,-1.0134,-0.9909,-0.9822,-0.9822,-0.8653,-0.6869,0.0,0.0,0.0,0.0,0.0,0.0,0.0,0.0,0.0,0.0,0.0,-1.2807,0.0,-1.2651,-1.2603,-1.2603,-1.2603,-1.3127,-1.4459,-1.7447,-2.0611,-2.381,-2.4957,-2.5638,-2.5892,-2.5491,-2.5277,-2.5277,-2.485,-2.3638,-2.1702,-2.3113,-2.2135,-1.9267,-2.0821,-2.2106,-2.3142,-2.3746,-2.3366,-2.2162,-2.0055,-1.8042,-1.6004,-1.4234,-1.3011,-1.2277,-1.2427,-1.3248,-1.4774,-1.796,-1.9751,-2.1179,-2.4341,0.0,0.0,0.0,0.0,0.0,0.0,0.0,0.0,0.0,0.0,0.0,0.0,0.0,0.0,0.0,-2.2619,-2.2498,-2.2111,-2.1911,-2.1697,-2.1403,-2.1216,-2.1109,-2.1109,-2.1109,-2.1109,-2.1109,-2.1109,-2.1109,-2.1109,-2.0093,-1.8855,-1.7371,-1.6988,-1.6988,-1.7243,-1.8058,-1.8704,-1.9112,-1.6564,-1.453,-1.3049,-1.073,-0.97,-0.989,-1.0236,-1.0514,-1.0717,-1.0717,-1.0717,-1.0717,-1.0717,-1.0717,-1.0711,-1.0555,-1.0412,-1.0263,-1.0107,-0.9896,-0.9822,-0.9822,-0.8775,-0.7296,0.0,0.0,0.0,0.0,0.0,0.0,0.0,0.0,0.0,0.0,0.0,0.0,0.0,0.0,0.0,0.0,-1.2386,-1.3348,-1.5454,-1.7758,-1.9976,-2.2007,-2.4227,-2.5371,-2.5291,-2.5157,-2.501,-2.4863,-2.4556,-2.3472,-2.1695,-2.3216,-2.2138,-1.8977,-2.1239,-2.2129,-2.2117,-2.3327,-2.2691,-2.0637,-1.8555,-1.6449,-1.4445,-1.2627,-1.1918,-1.1972,-1.2162,-1.24,-1.3241,-1.7491,-1.8926,-1.9765,-2.396,-2.5291,0.0,0.0,0.0,0.0,0.0,0.0,0.0,0.0,0.0,0.0,0.0,0.0,0.0,0.0,0.0,-2.2525,-2.2525,-2.2164,-2.1804,-2.1655,-2.1296,-2.1109,-2.1109,-2.1109,-2.1109,-2.1109,-2.1109,-2.1109,-2.1109,-1.9546,-1.8512,-1.8512,-1.7269,-1.7141,-1.8448,-1.8896,-1.8782,-1.7933,-1.6132,-1.4093,-1.1851,-1.0406,-0.9869,-1.0283,-1.0426,-1.0595,-1.0778,-1.0738,-1.0744,-1.0772,-1.0697,-1.0663,-1.0649,-1.046,-1.0317,-1.0209,-0.999,-0.9883,-0.9876,-0.9836,-0.9044,-0.8016,0.0,0.0,0.0,0.0,0.0,0.0,0.0,0.0,0.0,0.0,0.0,0.0,-1.2325,-1.2305,-1.2244,-1.2094,-1.2088,-1.2969,-1.5032,-1.7321,-1.9489,-2.1346,-2.3802,0.0,-2.469,-2.4943,-2.481,-2.4249,-2.3955,-2.3117,-2.1802,-2.1226,-2.0288,-1.9366,-2.315,-2.4727,-2.4422,-2.4008,-2.2576,-2.0474,-1.8042,-1.5872,-1.3882,-1.2134,-1.1518,-1.1681,-1.1972,-1.2176,-1.2934,-1.7161,-1.8592,-1.9359,-2.3389,-2.4676,-2.4636,0.0,0.0,0.0,0.0,0.0,0.0,0.0,0.0,0.0,0.0,0.0,0.0,0.0,0.0,0.0,-2.2846,-2.2217,-2.1641,-2.1614,-2.1296,-2.1109,-2.1109,-2.1109,-2.1109,-2.1109,-2.1109,-2.1109,-2.1109,-1.9546,-1.8512,-1.8512,-1.8436,-1.8384,-1.8512,-2.0068,-2.0002,-1.7933,-1.6132,-1.4161,-1.2038,-1.0508,-0.9964,-1.0283,-1.0426,-1.0649,-1.086,-1.0785,-1.0799,-1.0853,-1.0629,-1.0507,-1.048,-1.0188,-1.0004,-0.9984,-0.989,-0.9856,-0.9957,-0.9876,-0.9849,-0.964,0.0,0.0,0.0,0.0,0.0,0.0,0.0,0.0,0.0,0.0,0.0,0.0,0.0,-1.2142,-1.2121,-1.2067,-1.2149,-1.31,-1.5085,-1.7151,-1.9213,-2.1287,-2.3417,-2.4556,0.0,0.0,0.0,0.0,-2.4102,-2.374,-2.3117,-2.2989,-2.2777,-2.2384,-2.2522,-2.2399,-2.2043,-2.1818,-2.0427,-1.8255,-1.6063,-1.3974,-1.2123,-1.1497,-1.128,-1.1355,-1.1558,-1.1789,-1.2459,-1.5349,-1.7272,-1.8903,-2.1766,-2.3574,-2.4583,-2.4289,0.0,0.0,0.0,0.0,0.0,0.0,0.0,0.0,0.0,0.0,0.0,0.0,0.0,0.0,0.0,-2.2579,-2.2111,-2.2111,-2.1871,-2.167,-2.167,-2.151,-2.139,-2.139,-2.1229,-2.1109,-2.1109,-1.8512,-1.74,-1.8747,-1.7562,-1.7411,-1.8747,-2.0298,-1.9613,-1.6455,-1.5594,-1.3746,-1.0636,-1.0134,-1.012,-1.0419,-1.0568,-1.0697,-1.0799,-1.0744,-1.0697,-1.0643,-1.0446,-1.0405,-1.0466,-1.0175,-0.9984,-0.9984,-0.993,-0.9936,-0.999,-1.01,-1.0086,-0.9915,0.0,0.0,0.0,-1.3533,0.0,-1.4415,-1.2892,-1.2447,-1.2271,-1.2223,0.0,0.0,0.0,0.0,-1.1965,-1.1918,-1.2047,-1.27,-1.3964,-1.6573,-1.8717,-2.0269,-2.2898,0.0,0.0,0.0,0.0,0.0,0.0,0.0,0.0,-2.3861,-2.4008,-2.4123,-2.2686,-2.2006,-2.1824,-2.0971,-1.9368,-1.7157,-1.4988,-1.2966,-1.1158,-1.1111,-1.1151,-1.1253,-1.1355,-1.1552,-1.2067,-1.4253,-1.5994,-1.7689,-2.0603,-2.2904,-2.4449,-2.4262,-2.4275,0.0,-2.4342,0.0,0.0,0.0,0.0,0.0,0.0,0.0,0.0,0.0,0.0,0.0,0.0,0.0,0.0,-2.2445,-2.2178,-2.1991,-2.1991,-2.1817,-2.1762,-2.1762,-2.1443,-2.1296,-2.139,-1.8688,-1.7761,-1.9871,-1.8199,0.0,-1.9748,-2.0773,-1.9524,-1.5587,-1.4118,-1.2239,-0.9897,-1.0053,-1.0249,-1.0493,-1.0649,-1.0744,-1.0799,-1.0744,-1.0663,-1.0561,-1.0365,-1.0304,-1.0324,-1.0011,-0.9909,-0.9916,-0.997,-1.0017,-1.0141,-1.0243,-1.0243,-1.0188,-1.3363,-1.3275,-1.3173,-1.3166,-1.2922,-1.2678,-1.2522,-1.2372,-1.223,-1.2074,0.0,0.0,0.0,0.0,0.0,-1.1647,-1.1755,-1.1775,-1.1633,-1.5496,-1.7895,-1.7988,-2.2203,0.0,0.0,0.0,0.0,0.0,0.0,0.0,0.0,0.0,-2.3621,-2.4168,-2.3888,-2.3915,-2.3997,-2.1787,-1.9502,-1.7267,-1.4844,-1.2788,-1.1138,-1.0995,-1.1118,-1.1369,-1.1375,-1.1477,-1.1914,-1.4066,-1.4847,-1.5641,-2.0005,-2.2702,-2.4209,-2.4195,-2.4008,-2.3915,0.0,0.0,0.0,0.0,0.0,0.0,0.0,0.0,0.0,0.0,0.0,0.0,0.0,0.0,0.0,0.0,0.0,-2.2031,-2.2031,-2.2031,-2.2031,-2.2031,-2.1764,-2.1762,-2.1977,-2.0195,-1.9883,-2.1846,-2.0364,-2.0055,-2.1539,-2.1485,-1.9647,-1.566,-1.1808,-0.9903,-0.999,-1.0209,-1.0351,-1.05,-1.0649,-1.0799,-1.0867,-1.0785,-1.0717,-1.069,-1.0405,-1.0188,-0.997,-0.989,-0.9822,-0.9836,-0.9936,-1.0154,-1.0283,-1.029,-1.0378,-1.0473,-1.3247,-1.3288,-1.3268,-1.3057,-1.2861,-1.2644,-1.2386,-1.2223,-1.2067,0.0,0.0,0.0,-1.1681,-1.1681,-1.1748,-1.1925,-1.187,-1.1816,-1.1775,-1.4156,-1.5722,-1.5938,-1.9781,-2.2105,0.0,0.0,0.0,0.0,0.0,0.0,0.0,0.0,0.0,-2.3567,-2.3487,-2.3367,-2.3081,-1.9794,-1.797,-1.6827,-1.3227,-1.1478,-1.0989,-1.0839,-1.0833,-1.0921,-1.1029,-1.1165,-1.1398,-1.2223,-1.3609,-1.5641,-2.0005,-2.2702,-2.4168,-2.3955,-2.4128,-2.4342,-2.4075,0.0,0.0,0.0,0.0,0.0,-2.4168,-2.3981,-2.3834,0.0,0.0,0.0,0.0,0.0,0.0,0.0,0.0,0.0,0.0,0.0,-2.2953,-2.2953,-2.2498,-2.2205,-2.2298,-2.0468,-2.0239,0.0,-2.0642,-2.0288,-2.2418,-1.9412,-1.6988,-1.5525,-1.1867,-1.0059,-1.0215,-1.0256,-1.0405,-1.0656,-1.0697,-1.0744,-1.0778,-1.0738,-1.0602,-1.0399,-1.0317,-1.0127,-0.989,-0.9896,-0.9862,-0.9856,-1.0222,-1.0331,-1.0304,-1.0521,-1.0555,-1.0473,-1.3275,-1.3288,-1.3254,-1.3078,-1.2922,-1.2725,-1.2427,-1.225,-1.2081,0.0,0.0,0.0,-1.1619,-1.1674,-1.1755,-1.187,-1.1796,-1.1742,-1.1742,-1.3529,-1.4686,-1.501,-1.7918,0.0,0.0,0.0,0.0,0.0,0.0,0.0,0.0,0.0,0.0,-2.3126,-2.3006,-2.2846,-2.2455,-1.874,-1.7013,-1.653,-1.255,-1.0954,-1.1111,-1.0894,-1.0894,-1.1002,-1.1029,-1.1131,-1.1287,-1.1463,-1.3013,-1.547,-1.8829,-2.1329,-2.31,-2.3633,-2.4008,-2.4004,-2.2972,-2.2713,-2.2752,-2.3072,0.0,0.0,-2.3519,-2.3607,-2.3594,0.0,0.0,0.0,0.0,0.0,0.0,0.0,0.0,0.0,0.0,0.0,0.0,0.0,-2.3086,-2.2846,-2.2966,-2.1799,-2.162,-2.3137,-2.2005,-2.1358,-2.1734,-1.8127,-1.5663,-1.4598,-1.1689,-1.0215,-1.0365,-1.0371,-1.0487,-1.0717,-1.0717,-1.0717,-1.0717,-1.0656,-1.05,-1.0276,-1.0215,-1.0046,-0.9836,-0.9923,-0.9896,-0.9856,-1.0181,-1.0297,-1.031,-1.0541,-1.0609,-1.0568,0.0,-1.3241,-1.3152,-1.3166,-1.3057,-1.2861,-1.2569,-1.2393,-1.2196,0.0,-1.1782,-1.1694,-1.1694,-1.1775,-1.1789,-1.1681,-1.164,-1.1619,-1.1619,-1.3182,-1.4264,0.0,0.0,0.0,0.0,0.0,0.0,0.0,0.0,0.0,0.0,0.0,0.0,-2.2806,-2.2539,-2.2244,-2.1763,-1.8116,-1.6526,-1.6108,-1.2399,-1.1104,-1.1314,-1.0981,-1.1104,-1.1301,-1.1199,-1.124,-1.1348,-1.1362,-1.2884,-1.5156,-1.6855,-1.9036,-2.1351,-2.3001,-2.3549,-2.3184,-2.1606,-2.0861,-2.0603,-2.0793,-2.0822,0.0,-2.2345,-2.2935,-2.3193,-2.2926,0.0,0.0,0.0,0.0,0.0,0.0,0.0,0.0,0.0,0.0,0.0,0.0,0.0,0.0,-2.3794,-2.3554,-2.35,-2.3794,-2.3794,-2.2711,-2.0225,-1.7574,-1.5313,-1.339,-1.1342,-1.0365,-1.0487,-1.0493,-1.0568,-1.0717,-1.0717,-1.0717,-1.0717,-1.0582,-1.0432,-1.0276,-1.0134,-0.9916,-0.9829,-0.9909,-0.9883,-0.9836,-0.995,-1.0161,-1.0297,-1.0439,-1.0575,-1.0677,-1.3064,-1.3024,-1.3037,-1.3152,-1.3057,-1.2901,0.0,-1.2461,-1.2311,-1.2366,-1.225,-1.2162,-1.2162,-1.1965,-1.187,-1.1965,-1.1755,-1.1619,-1.1619,-1.2011,0.0,0.0,0.0,0.0,0.0,0.0,0.0,0.0,0.0,0.0,0.0,0.0,0.0,0.0,-2.2445,-2.1406,-1.9513,-1.7333,-1.5538,-1.3975,-1.1774,-1.0914,-1.0961,-1.09,-1.084,-1.088,-1.109,-1.1104,-1.105,-1.1172,-1.2634,-1.4446,-1.5184,-1.6885,-1.902,-2.1096,-2.1885,-2.1943,-2.1334,-2.0991,-2.0526,-1.9201,-1.9537,0.0,-2.0572,-2.1854,-2.2939,0.0,0.0,0.0,0.0,0.0,0.0,0.0,0.0,0.0,0.0,0.0,0.0,0.0,0.0,0.0,-2.4115,-2.3861,-2.3808,-2.4102,-2.3901,-2.2711,-2.0225,-1.7898,-1.5623,-1.3399,-1.1445,-1.0466,-1.0493,-1.0493,-1.0568,-1.0717,-1.0717,-1.0717,-1.0717,-1.069,-1.0527,-1.0276,-1.0249,-1.008,-0.9822,-0.9849,-0.9849,-0.9849,-1.0127,-1.0256,-1.0297,-1.0439,-1.0514,-1.0534,-1.2976,-1.2963,-1.3003,-1.3146,-1.3057,-1.2935,0.0,0.0,-1.2393,-1.2393,-1.2271,-1.2149,-1.2067,-1.1925,-1.183,-1.1843,-1.1708,-1.1619,-1.1619,-1.1687,0.0,0.0,0.0,0.0,0.0,0.0,0.0,0.0,0.0,0.0,0.0,0.0,0.0,0.0,0.0,-2.0886,-1.89,-1.705,-1.5252,-1.346,-1.156,-1.0813,-1.088,-1.088,-1.0833,-1.086,-1.1084,-1.1118,-1.1063,-1.1138,-1.1879,-1.3037,-1.4449,-1.5631,-1.6902,-1.8916,-1.9719,-1.9606,-1.8299,-1.7907,-1.7629,-1.6717,-1.6855,0.0,0.0,-1.9837,-2.017,-2.0866,0.0,0.0,0.0,0.0,0.0,0.0,0.0,0.0,0.0,0.0,0.0,0.0,0.0,0.0,-2.4636,-2.4502,-2.4422,-2.4422,-2.3259,-2.1571,-1.9338,-1.6927,-1.4569,-1.2406,-1.1301,-1.0683,-1.0609,-1.0609,-1.0643,-1.0717,-1.0717,-1.0677,-1.0602,-1.0534,-1.0378,-1.0161,-1.0086,-0.9964,-0.9822,-0.9822,-0.9869,-0.9889,-1.0107,-1.0215,-1.029,-1.0358,-1.0432,-1.0473,-1.2827,-1.2834,-1.2874,-1.3017,0.0,0.0,0.0,0.0,0.0,-1.2223,-1.1841,-1.1505,-1.133,-1.1212,-1.1141,-1.1077,-1.1331,-1.1545,-1.1572,-1.1606,-1.1619,0.0,0.0,-1.1701,0.0,0.0,0.0,0.0,0.0,0.0,0.0,0.0,0.0,0.0,0.0,0.0,0.0,0.0,0.0,-1.307,-1.1407,-1.0846,-1.0961,-1.09,-1.088,-1.0894,-1.105,-1.1077,-1.1077,-1.1077,-1.1179,-1.1636,-1.3642,-1.4301,-1.4824,-1.679,-1.7448,-1.7138,-1.5284,-1.4745,-1.4647,-1.4212,-1.4289,-1.5035,0.0,0.0,0.0,0.0,0.0,0.0,0.0,0.0,0.0,0.0,0.0,0.0,0.0,0.0,0.0,0.0,0.0,0.0,-2.4997,-2.505,-2.4957,-2.4663,-2.2485,-2.032,-1.8377,-1.5804,-1.3507,-1.1466,-1.1104,-1.0806,-1.0724,-1.0717,-1.0717,-1.0717,-1.0717,-1.0656,-1.0534,-1.0419,-1.0283,-1.0065,-0.9971,-0.989,-0.9863,-0.9836,-0.989,-0.995,-0.9977,-1.0161,-1.0317,-1.029,-1.0351,-1.0419,-1.2338,-1.2366,-1.2413,0.0,0.0,0.0,0.0,0.0,0.0,-1.1918,-1.0583,-0.964,-0.9492,-0.9222,-0.9037,-0.9062,-1.0372,-1.1274,-1.1409,-1.1545,-1.1619,0.0,0.0,0.0,-1.1647,0.0,0.0,0.0,0.0,0.0,0.0,0.0,0.0,0.0,-2.0092,0.0,0.0,0.0,-1.265,0.0,-1.0797,-1.0968,0.0,-1.0981,-1.088,-1.0867,-1.0812,-1.0772,-1.0772,0.0,-1.0873,-1.105,-1.1622,-1.1895,-1.2431,-1.475,-1.545,-1.5385,-1.5121,-1.4984,-1.4421,-1.2627,-1.329,-1.4401,-1.4439,0.0,-1.693,-1.6768,0.0,0.0,0.0,0.0,0.0,0.0,0.0,0.0,0.0,0.0,0.0,0.0,0.0,0.0,0.0,-2.493,-2.4957,-2.4663,-2.2485,-2.032,-1.8377,-1.5804,-1.3507,-1.1466,-1.1104,-1.0806,-1.0724,-1.0717,-1.0717,-1.0717,-1.0717,-1.0711,-1.0697,-1.0677,-1.0588,-1.0432,-1.029,-1.0148,-0.995,-0.9876,-0.9829,-0.9863,-0.9936,-1.0222,-1.0453,-1.0324,-1.029,-1.0297,-1.2142,-1.2155,0.0,0.0,0.0,0.0,0.0,0.0,0.0,0.0,0.0,-0.8814,-0.7486,-0.7141,-0.6986,-0.6985,-0.863,-0.9654,-0.9713,-1.0831,-1.1491,0.0,0.0,0.0,0.0,0.0,0.0,0.0,-1.5557,0.0,0.0,0.0,0.0,0.0,-1.9711,0.0,-1.5784,0.0,-1.2344,0.0,0.0,-1.0934,0.0,-1.1029,-1.088,-1.086,-1.0772,-1.0717,-1.0717,0.0,-1.0819,0.0,0.0,0.0,0.0,-1.2772,-1.3235,-1.3341,-1.3152,-1.3115,-1.2889,-1.1946,-1.223,-1.2963,-1.3755,-1.3825,-1.3947,-1.4756,0.0,0.0,0.0,0.0,0.0,0.0,-2.2743,0.0,0.0,0.0,0.0,0.0,0.0,0.0,0.0,0.0,0.0,0.0,-2.2485,-2.0388,-1.8571,-1.6168,-1.3809,-1.1719,-1.1362,-1.1131,-1.0975,-1.0975,-1.0934,-1.0853,-1.0853,-1.0717,-1.0466,-1.0548,-1.046,-1.0236,-1.027,-1.0195,-0.9984,-0.9916,-1.0005,-1.0086,-0.9997,-1.0181,-1.0365,-1.0304,-1.0283,-1.0256,-1.1932,-1.1938,-1.1972,0.0,0.0,0.0,0.0,0.0,0.0,0.0,-0.8113,-0.6896,-0.5357,-0.5055,-0.4933,-0.4944,-0.6617,-0.7641,-0.7705,-0.9556,-1.0601,-1.0563,-1.1206,-1.1579,-1.1497,0.0,0.0,0.0,0.0,0.0,0.0,0.0,0.0,0.0,0.0,-1.6818,-1.5079,0.0,-1.194,-1.0806,-1.0765,-1.0846,-1.1036,-1.0975,-1.0853,-1.0806,-1.0758,-1.0717,-1.0717,-1.0717,-1.0725,0.0,-1.1056,-1.1253,-1.1443,0.0,0.0,0.0,-1.1552,0.0,0.0,-1.1518,-1.1497,-1.1811,-1.2944,-1.2223,-1.1629,-1.2756,-1.2113,0.0,0.0,0.0,0.0,-2.0005,0.0,-2.2949,0.0,0.0,0.0,0.0,0.0,0.0,0.0,0.0,0.0,-2.4422,-2.2398,-2.0621,-1.9372,-1.6647,-1.4326,-1.27,-1.1823,-1.1314,-1.1234,-1.1234,-1.109,-1.088,-1.088,-1.0758,-1.0405,-1.0507,-1.0439,-1.0172,-1.031,-1.0276,-1.0098,-1.0017,-1.0141,-1.0263,-1.0107,-1.0141,-1.0276,-1.0236,-1.0243,-1.0236,-1.1606,-1.1633,-1.1633,-1.164,0.0,0.0,0.0,0.0,0.0,-0.8729,-0.5452,-0.3043,-0.3002,-0.2857,-0.2828,-0.2821,-0.4455,-0.555,-0.5679,-0.7484,-0.8538,-0.8423,-1.0453,-1.1484,-1.1255,0.0,0.0,0.0,0.0,0.0,0.0,0.0,0.0,0.0,0.0,-1.5139,-1.3267,-1.1672,-1.086,-1.0724,-1.0724,-1.0724,-1.0751,0.0,-1.0793,-1.0724,-1.0724,0.0,0.0,-1.0717,-1.0724,0.0,0.0,0.0,0.0,0.0,0.0,0.0,0.0,0.0,0.0,-1.1179,0.0,0.0,0.0,0.0,-1.12,-1.105,-1.1139,-1.1736,-1.352,-1.5555,-1.7623,-1.9539,0.0,0.0,0.0,0.0,0.0,0.0,0.0,0.0,0.0,0.0,-2.4409,-2.3848,-2.2188,-2.1152,-2.1152,-1.7301,-1.4979,-1.4783,-1.26,-1.1314,-1.1234,-1.1234,-1.109,-1.088,-1.088,-1.0799,-1.0704,-1.0711,-1.0711,-1.069,-1.0548,-1.048,-1.0453,-1.0105,-1.0141,-1.0263,-1.0107,-1.0141,-1.0263,-1.0051,-1.0154,-1.0236,-1.1457,-1.1389,-1.1382,-1.1586,-1.1538,-1.1083,0.0,-0.92,-0.7847,-0.5239,-0.3787,-0.2477,-0.1132,-0.0924,-0.092,-0.0895,-0.2536,-0.3616,-0.365,-0.5515,-0.6586,-0.6498,-0.8525,-0.9644,-0.9543,-1.0934,0.0,0.0,0.0,0.0,0.0,0.0,0.0,0.0,0.0,-1.495,0.0,0.0,0.0,0.0,0.0,-1.0717,-1.0724,0.0,-1.0765,-1.0717,-1.0717,-1.0717,0.0,-1.0717,-1.0717,-1.0731,-1.0778,-1.0799,-1.0887,-1.1009,-1.109,0.0,0.0,0.0,-1.1234,-1.1234,0.0,0.0,0.0,0.0,0.0,0.0,0.0,0.0,0.0,-1.3603,-1.5238,-1.5989,-1.8215,0.0,0.0,0.0,0.0,0.0,0.0,0.0,0.0,0.0,0.0,-2.3794,-2.3021,-2.2181,-2.1275,-1.8404,-1.6285,-1.5044,-1.2763,-1.1558,-1.1606,-1.1511,-1.1389,-1.124,-1.1138,-1.0907,-1.0575,-1.0677,-1.0663,-1.0575,-1.0622,-1.0582,-1.0473,-1.0283,-1.029,-1.0385,-1.0032,-1.0053,-1.0263,-1.0044,-1.0148,-1.0276,-1.147,-1.1307,-1.126,-1.1565,-1.0954,-1.006,-0.8909,-0.7544,-0.5705,-0.3212,-0.2389,-0.152,-0.0141,0.0,0.0,0.0,-0.1098,-0.1773,-0.1748,-0.3579,-0.4641,-0.4555,-0.6563,-0.7931,-0.8557,-0.9853,-1.0889,0.0,0.0,-1.38,0.0,0.0,0.0,0.0,0.0,-1.4041,-1.2289,-1.1238,-1.0772,0.0,0.0,-1.0717,0.0,0.0,-1.0717,-1.0717,0.0,-1.0717,-1.0717,-1.0717,-1.0717,-1.0717,-1.0717,-1.0785,-1.0799,-1.0799,-1.0894,-1.0934,-1.0989,-1.0928,0.0,-1.0982,-1.0962,0.0,-1.1063,0.0,-1.1077,0.0,0.0,0.0,0.0,0.0,0.0,0.0,0.0,0.0,0.0,-2.2131,0.0,0.0,0.0,0.0,0.0,-2.4048,-2.3888,-2.3474,-2.338,-2.2962,0.0,0.0,-1.7257,-1.6232,-1.3321,-1.1796,-1.183,-1.1742,-1.1592,-1.1389,-1.124,-1.0955,-1.0575,-1.0677,-1.0663,-1.0575,-1.0677,-1.0663,-1.0561,-1.0365,-1.0365,-1.0453,-1.0059,-1.0059,-1.0256,-1.0046,-1.0066,-1.0229,-1.1527,-1.1305,-1.1134,-1.1415,-0.9928,-0.8621,-0.841,-0.5295,-0.2891,-0.2783,-0.1142,0.0,0.0,0.0,0.0,0.0,0.0,0.0,0.0,-0.1727,-0.27,-0.2559,-0.4538,-0.6473,-0.8146,-0.8498,-0.9606,-1.1382,0.0,0.0,0.0,0.0,0.0,0.0,-1.3621,0.0,-1.0744,-1.0826,-1.0873,-1.0731,-1.0731,-1.0724,-1.0717,-1.0717,-1.0717,-1.0717,-1.0717,-1.0717,-1.0717,-1.0717,-1.0717,-1.0717,-1.0717,-1.0717,-1.0717,-1.0717,-1.0616,-1.0534,-1.067,-1.0507,-1.0358,-1.0629,-1.0595,0.0,0.0,0.0,-1.0975,0.0,0.0,0.0,0.0,0.0,0.0,0.0,0.0,0.0,0.0,0.0,-2.3875,0.0,0.0,0.0,-2.3821,-2.3754,-2.35,-2.2968,-2.314,0.0,0.0,0.0,-1.7968,-1.8071,-1.4194,-1.1993,-1.1857,-1.1837,-1.1687,-1.1402,-1.124,-1.1009,-1.0717,-1.0717,-1.0717,-1.0717,-1.0717,-1.0717,-1.0697,-1.0412,-1.0371,-1.0466,-1.0112,-1.0148,-1.0243,-0.9958,-0.9883,-1.0038,-1.1001,-1.0254,-0.9325,-0.9297,-0.886,-0.7603,-0.4785,-0.3461,-0.2285,-0.0917,-0.0282,0.0,0.0,0.0,0.0,0.0,0.0,0.0,0.0,-0.0491,-0.0706,-0.0694,-0.2564,-0.4498,-0.6249,-0.7903,-0.951,-1.1219,0.0,0.0,-1.4282,0.0,0.0,0.0,0.0,0.0,-1.0833,-1.1043,-1.1023,-1.0826,-1.0826,-1.0819,-1.0717,0.0,-1.0717,-1.0717,-1.0717,-1.0717,-1.0717,-1.0717,-1.0717,-1.0717,-1.0717,-1.0717,-1.0717,-1.0717,-1.069,-1.0643,-1.0568,-1.0493,-1.0432,-1.0399,-1.0439,-1.0514,0.0,0.0,0.0,0.0,0.0,0.0,0.0,0.0,0.0,0.0,0.0,0.0,-1.9495,-2.2124,-2.3794,-2.3875,-2.3941,-2.3928,-2.3781,-2.3567,-2.3273,-2.2954,-2.2939,0.0,0.0,0.0,0.0,-1.8211,-1.425,-1.2094,-1.2169,-1.1945,-1.1742,-1.1558,-1.1294,-1.1009,-1.0717,-1.0717,-1.0717,-1.0717,-1.0717,-1.0717,-1.0704,-1.0514,-1.046,-1.0473,-1.029,-1.0243,-1.0283,-1.031,-1.0276,-1.0263,-0.8664,-0.8083,-0.7166,-0.6177,-0.6069,-0.535,-0.3239,-0.2079,0.0,-0.0139,0.0,0.0,0.0,0.0,0.0,0.0,0.0,0.0,0.0,0.0,0.0,0.0,-0.1072,-0.25,-0.4262,-0.6301,-0.8213,-0.9908,0.0,0.0,-1.2858,0.0,0.0,0.0,0.0,-1.1703,0.0,-1.1009,-1.1023,-1.088,-1.088,-1.0793,0.0,-1.0717,-1.0717,-1.0717,-1.0717,-1.0717,-1.0717,-1.0717,-1.0717,-1.0717,-1.0717,-1.0717,-1.0717,-1.0717,-1.0629,-1.0521,-1.05,-1.0351,-1.0209,-1.0263,-1.0337,-1.0419,-1.048,-1.0609,-1.0765,0.0,-1.0759,-1.0785,0.0,0.0,0.0,0.0,0.0,0.0,-1.9009,-2.121,-2.2955,-2.371,-2.3768,-2.3714,-2.3594,-2.342,-2.3193,-2.2886,-2.2928,0.0,0.0,0.0,0.0,-1.8077,-1.4311,-1.2264,-1.2291,-1.2054,-1.1823,-1.1613,-1.1307,-1.1009,-1.0717,-1.0717,-1.0717,-1.0717,-1.0717,-1.0717,-1.0711,-1.0555,-1.0493,-1.0487,-1.0405,-1.0412,-1.048,-1.0561,-1.05,-1.0405,-0.5763,-0.5607,-0.4866,-0.3197,-0.2661,-0.2494,0.0,-0.1069,0.0,0.0,0.0,0.0,0.0,0.0,0.0,0.0,0.0,0.0,0.0,0.0,0.0,0.0,0.0,-0.0855,-0.2666,-0.4619,-0.65,0.0,0.0,0.0,0.0,0.0,0.0,0.0,0.0,0.0,0.0,-1.0921,-1.09,-1.088,-1.088,-1.0793,-1.0717,-1.0717,-1.0717,-1.0717,-1.0717,-1.0717,-1.0717,-1.0717,-1.0717,-1.0717,-1.0717,-1.0717,-1.0717,-1.0717,-1.0527,-1.0331,-1.0432,-1.0161,-0.991,-1.0161,-1.0236,-1.029,-1.0432,-1.0582,-1.0738,-1.0847,-1.0759,-1.0806,0.0,0.0,0.0,0.0,0.0,-1.5397,-1.7407,-1.9737,-2.1861,-2.358,-2.3554,0.0,-2.3284,-2.3287,-2.3153,-2.2954,0.0,0.0,0.0,0.0,0.0,-1.7945,-1.4386,-1.2433,-1.2291,0.0,-1.1904,-1.1586,-1.1301,-1.1009,-1.0717,-1.0717,-1.0717,-1.0717,-1.0717,-1.0717,-1.0711,-1.0575,-1.0521,-1.0521,-1.05,-1.0582,-1.0717,-1.0717,-1.0636,-1.0541,-0.5315,-0.443,-0.327,-0.2981,-0.1585,-0.0499,-0.0493,-0.0211,0.0,0.0,0.0,0.0,0.0,0.0,0.0,0.0,0.0,0.0,0.0,0.0,0.0,0.0,0.0,-0.0867,-0.2632,-0.4616,-0.6489,0.0,0.0,0.0,0.0,0.0,0.0,0.0,0.0,0.0,-1.1084,-1.1118,0.0,-1.088,-1.088,-1.0793,-1.0717,-1.0717,-1.0717,-1.0717,-1.0717,-1.0717,-1.0717,-1.0717,-1.0717,-1.0717,-1.0717,-1.0717,-1.0717,-1.0717,-1.0595,-1.0432,-1.0344,-1.0168,-0.993,-0.9917,-0.9998,-1.0127,-1.0283,-1.0426,-1.0609,-1.0826,-1.0759,-1.0772,-1.0955,0.0,0.0,0.0,0.0,0.0,-1.7554,-1.9764,-2.1861,-2.358,-2.2359,-2.1889,-2.3213,-2.31,-2.2926,0.0,0.0,0.0,0.0,0.0,0.0,0.0,-1.4449,0.0,0.0,0.0,-1.185,-1.143,-1.1246,-1.1009,-1.0717,-1.0717,-1.0717,-1.0717,-1.0717,-1.0717,-1.0717,-1.069,-1.0677,-1.067,-1.0541,-1.0582,-1.0717,-1.0717,-1.0704,-1.0683,-0.2541,-0.2011,-0.1384,-0.1384,-0.0645,0.0,0.0,0.0,0.0,0.0,0.0,0.0,0.0,0.0,0.0,0.0,0.0,0.0,0.0,0.0,0.0,0.0,0.0,-0.0433,-0.13,-0.4049,-0.5989,-0.691,0.0,0.0,0.0,0.0,0.0,0.0,0.0,-1.0914,0.0,0.0,0.0,-1.088,-1.088,-1.0793,-1.0717,-1.0717,-1.0717,-1.0717,-1.0717,-1.0717,-1.0717,-1.0717,-1.0717,-1.0717,-1.0717,-1.0717,-1.0717,-1.0717,-1.0561,-1.0365,-1.0297,-1.0107,-0.9849,-0.9836,-0.9876,-1.0031,-1.0243,-1.0392,-1.0555,-1.0785,-1.0772,-1.0765,-1.0853,-1.1124,0.0,0.0,0.0,0.0,-1.7931,-1.9371,-2.0759,-2.2472,-2.2714,-2.2623,-2.1994,0.0,0.0,0.0,0.0,0.0,0.0,0.0,0.0,0.0,0.0,0.0,0.0,0.0,0.0,-1.3036,-1.1817,-1.1009,-1.0717,-1.0717,-1.0717,-1.0717,-1.0717,-1.0717,-1.0717,-1.0717,-1.0717,-1.0711,-1.0636,-1.0656,-1.0717,-1.0717,-1.0717,-1.0717,0.0,0.0,0.0,0.0,0.0,0.0,0.0,0.0,0.0,0.0,0.0,0.0,0.0,0.0,0.0,0.0,0.0,0.0,0.0,0.0,0.0,0.0,0.0,0.0,0.0,-0.3176,-0.5115,0.0,0.0,0.0,0.0,0.0,0.0,0.0,0.0,0.0,0.0,0.0,-1.0853,-1.088,-1.0847,-1.0759,-1.0717,-1.0717,-1.0717,-1.0717,-1.0717,-1.0717,-1.0717,-1.0717,-1.0717,-1.0717,-1.0717,-1.0717,-1.0717,-1.0717,-1.0514,-1.0283,-1.0283,-1.0059,-0.9822,-0.9822,-0.9849,-1.0039,-1.0195,-1.0344,-1.0487,-1.0643,-1.0697,-1.0778,-1.0962,-1.1111,0.0,0.0,0.0,0.0,0.0,-1.8368,-1.9145,-2.0748,-2.2001,-2.1982,-2.0215,0.0,0.0,0.0,0.0,0.0,0.0,0.0,0.0,0.0,0.0,-1.5852,-1.548,0.0,-1.3336,-1.4497,-1.2249,-1.1009,-1.0717,-1.0717,-1.0717,-1.0717,-1.0717,-1.0717,-1.0717,-1.0717,-1.0717,-1.0717,-1.0717,-1.0717,-1.0717,-1.0717,-1.0717,-1.0717,0.0,0.0,0.0,0.0,0.0,0.0,0.0,0.0,0.0,0.0,0.0,0.0,0.0,0.0,0.0,0.0,0.0,0.0,0.0,0.0,0.0,0.0,0.0,0.0,0.0,-0.1952,-0.3822,0.0,0.0,-0.9186,0.0,0.0,0.0,0.0,0.0,0.0,0.0,-1.0799,-1.0819,-1.0867,-1.0799,-1.0731,-1.0717,-1.0717,-1.0717,-1.0717,-1.0717,-1.0717,-1.0717,-1.0717,-1.0717,-1.0717,-1.0717,-1.0717,-1.0717,-1.0717,-1.0514,-1.0283,-1.0283,-1.0059,-0.9822,-0.9822,-0.9829,-0.9883,-0.997,-1.0188,-1.0337,-1.048,-1.0622,-1.0806,-1.109,-1.1267,-1.1511,0.0,0.0,0.0,0.0,0.0,-1.7051,-1.8699,-1.734,-1.6768,-1.7878,-1.7855,0.0,0.0,-2.232,0.0,0.0,0.0,0.0,-1.7759,0.0,-1.7076,-1.5361,-1.5017,-1.4647,-1.4388,-1.2197,-1.1009,-1.0717,-1.0717,-1.0717,-1.0717,-1.0717,-1.0717,-1.0717,-1.0717,-1.0717,-1.0717,-1.0717,-1.0717,-1.0717,-1.0717,-1.0717,-1.0717,0.0,0.0,0.0,0.0,0.0,0.0,0.0,0.0,0.0,0.0,0.0,0.0,0.0,0.0,0.0,0.0,0.0,0.0,0.0,0.0,0.0,0.0,0.0,0.0,0.0,-0.1801,-0.3663,0.0,0.0,0.0,0.0,0.0,0.0,0.0,0.0,-0.9863,-1.088,-1.0813,-1.0826,-1.0867,-1.0778,-1.0772,-1.0779,-1.0758,-1.0717,-1.0717,-1.0717,-1.0717,-1.0717,-1.0717,-1.0717,-1.0717,-1.0717,-1.0717,-1.0717,-1.0717,-1.0514,-1.0283,-1.0283,-1.0059,-0.9822,-0.9822,-0.9822,-0.9863,-0.995,-1.0168,-1.0324,-1.046,-1.0616,-1.0785,-1.0995,-1.1233,-1.1504,-1.1864,0.0,0.0,0.0,0.0,0.0,-1.6883,-1.7284,-1.7141,-1.6232,-1.7126,0.0,0.0,0.0,0.0,0.0,0.0,0.0,-1.7769,0.0,-1.7453,-1.543,-1.4031,-1.3741,-1.4697,-1.2285,-1.1056,-1.0786,-1.0765,-1.0717,-1.0717,-1.0717,-1.0717,-1.0717,-1.0717,-1.0717,-1.0717,-1.0717,-1.0717,-1.0717,-1.0717,-1.0717,-1.0717,0.0,0.0,0.0,0.0,0.0,0.0,0.0,0.0,0.0,0.0,0.0,0.0,0.0,0.0,0.0,0.0,0.0,0.0,0.0,0.0,0.0,0.0,0.0,0.0,0.0,-0.1236,-0.2817,-0.4748,-0.6032,0.0,0.0,0.0,0.0,0.0,-0.8821,-0.9251,-1.1002,-1.0853,-1.084,-1.0867,-1.0778,-1.0785,-1.0799,-1.0758,-1.0717,-1.0717,-1.0717,-1.0717,-1.0717,-1.0717,-1.0717,-1.0717,-1.0717,-1.0717,-1.0717,-1.0717,-1.0514,-1.0283,-1.0283,-1.0059,-0.9822,-0.9822,-0.9822,-0.9849,-0.9896,-1.0134,-1.0331,-1.0521,-1.0643,-1.0765,-1.0853,-1.1192,-1.1491,-1.1782,0.0,0.0,0.0,-1.508,0.0,-1.4827,-1.6019,-1.6142,-1.4285,-1.5931,0.0,0.0,0.0,0.0,0.0,0.0,0.0,0.0,0.0,0.0,0.0,-1.3868,-1.3664,-1.4847,-1.2396,-1.1151,-1.1002,-1.0853,-1.0765,-1.0717,-1.0717,-1.0717,-1.0717,-1.0717,-1.0717,-1.0717,-1.0717,-1.0717,-1.0717,-1.0717,-1.0717,-1.0717,0.0,0.0,0.0,0.0,0.0,0.0,0.0,0.0,0.0,0.0,0.0,0.0,0.0,0.0,0.0,0.0,0.0,0.0,0.0,0.0,0.0,0.0,0.0,0.0,0.0,0.0,-0.0886,-0.2728,0.0,0.0,-0.5474,0.0,-0.6498,-0.834,-0.8131,-0.9228,-1.1138,-1.0846,-1.0812,-1.0867,-1.0778,-1.0724,-1.0724,-1.0717,-1.0717,-1.0717,-1.0717,-1.0717,-1.0717,-1.0717,-1.0717,-1.0717,-1.0717,-1.0717,-1.0717,-1.0717,-1.0514,-1.0283,-1.0283,-1.0059,-0.9822,-0.9822,-0.9822,-0.9822,-0.9822,-1.0059,-1.0365,-1.0656,-1.0717,-1.0765,-1.0853,-1.1192,-1.1491,-1.1782,0.0,0.0,0.0,-1.2501,0.0,-1.2388,-1.2237,-1.208,-1.185,-1.3566,0.0,0.0,0.0,0.0,0.0,0.0,0.0,-1.8401,-1.821,0.0,-1.5819,-1.5344,-1.5044,-1.4847,-1.2514,-1.1307,-1.1158,-1.1009,-1.086,-1.0717,-1.0717,-1.0717,-1.0717,-1.0717,-1.0717,-1.0717,-1.0717,-1.0717,-1.0717,-1.0717,-1.0717,-1.0717,0.0,0.0,0.0,0.0,0.0,0.0,0.0,0.0,0.0,0.0,0.0,0.0,0.0,0.0,0.0,0.0,0.0,0.0,0.0,0.0,0.0,0.0,0.0,0.0,0.0,0.0,-0.0878,-0.2721,0.0,0.0,0.0,-0.4119,-0.5288,-0.8277,-0.7039,-0.8158,-1.1016,-1.1023,-1.0995,-1.0867,-1.0778,-1.0785,-1.0799,-1.0758,-1.0717,-1.0717,-1.0717,-1.0717,-1.0717,-1.0717,-1.0717,-1.0717,-1.0717,-1.0717,-1.0717,-1.0717,-1.0582,-1.0426,-1.0426,-1.0209,-0.9916,-0.9916,-0.9897,-0.9849,-0.9889,-1.0209,-1.048,-1.0677,-1.0717,-1.0799,-1.105,-1.1341,-1.164,-1.1938,-1.2277,0.0,-1.2372,0.0,-1.2264,-1.2006,-1.2026,-1.1999,-1.1843,-1.2335,0.0,0.0,0.0,0.0,0.0,0.0,0.0,0.0,-1.7141,0.0,-1.3571,-1.3205,-1.3067,-1.3008,-1.1937,-1.1307,-1.1227,-1.1118,-1.1016,-1.0806,-1.0806,-1.0752,-1.0717,-1.0717,-1.0717,-1.0717,-1.0717,-1.0717,-1.0717,-1.0717,-1.0717,-1.0717,0.0,0.0,0.0,0.0,0.0,0.0,0.0,0.0,0.0,0.0,0.0,0.0,0.0,0.0,0.0,0.0,0.0,0.0,0.0,0.0,0.0,0.0,0.0,0.0,0.0,0.0,0.0,-0.1692,-0.1692,-0.2294,-0.3356,-0.2228,-0.3337,-0.6271,-0.5812,-0.7259,-0.9992,-1.073,-1.0941,-1.0786,-1.0758,-1.0778,-1.0853,-1.0758,-1.0717,-1.0717,-1.0717,-1.0717,-1.0717,-1.0717,-1.0717,-1.0717,-1.0717,-1.0717,-1.0717,-1.0717,-1.0609,-1.0493,-1.0493,-1.0317,-1.0134,-1.0134,-1.0066,-1.0032,-1.0181,-1.0358,-1.0534,-1.069,-1.0717,-1.0778,-1.0962,-1.1287,-1.1613,-1.1857,-1.2142,-1.2305,-1.2216,0.0,-1.2067,0.0,0.0,0.0,0.0,-1.2006,-1.2533,0.0,0.0,0.0,0.0,0.0,0.0,-1.7275,-1.5479,0.0,-1.2589,-1.2237,-1.2033,-1.1972,-1.1579,-1.1341,-1.1246,-1.1192,-1.1084,-1.088,-1.082,-1.0806,-1.0717,-1.0717,-1.0717,-1.0717,-1.0717,-1.0717,-1.0717,-1.0717,-1.0717,-1.0717,0.0,0.0,0.0,0.0,0.0,0.0,0.0,0.0,0.0,0.0,0.0,0.0,0.0,0.0,0.0,0.0,0.0,0.0,0.0,0.0,0.0,0.0,0.0,0.0,0.0,0.0,0.0,0.0,0.0,0.0,0.0,0.0,-0.1035,-0.2929,-0.4681,-0.6473,-0.8405,-1.0034,-1.0731,-1.0717,-1.0717,-1.0717,-1.0717,-1.0717,-1.0717,-1.0717,-1.0717,-1.0717,-1.0717,-1.0717,-1.0717,-1.0717,-1.0717,-1.0717,-1.0717,-1.0717,-1.0622,-1.0507,-1.0507,-1.0405,-1.0297,-1.0297,-1.0297,-1.0331,-1.046,-1.05,-1.0548,-1.069,-1.0717,-1.0724,-1.0731,-1.1084,-1.143,-1.1592,-1.1857,-1.2047,-1.2047,-1.1925,-1.1884,0.0,0.0,0.0,-1.2277,-1.2291,-1.2237,0.0,0.0,0.0,0.0,0.0,-1.5027,-1.5793,-1.3649,-1.2562,-1.2698,-1.2264,-1.1965,-1.1796,-1.1525,-1.1389,-1.1389,-1.1246,-1.1097,-1.0887,-1.0806,-1.0731,-1.0717,-1.0717,-1.0717,-1.0717,-1.0717,-1.0717,-1.0717,-1.0717,-1.0717,-1.0717,0.0,0.0,0.0,0.0,0.0,0.0,0.0,0.0,0.0,0.0,0.0,0.0,0.0,0.0,0.0,0.0,0.0,0.0,0.0,0.0,0.0,0.0,0.0,0.0,0.0,0.0,0.0,0.0,0.0,0.0,0.0,0.0,-0.1016,-0.2848,-0.4706,-0.6469,-0.8179,-1.0053,-1.0759,-1.0717,-1.0717,-1.0717,-1.0717,-1.0717,-1.0717,-1.0717,-1.0717,-1.0717,-1.0717,-1.0717,-1.0717,-1.0717,-1.0717,-1.0717,-1.0717,-1.0717,-1.0697,-1.0663,-1.0663,-1.0555,-1.0439,-1.0439,-1.0439,-1.0453,-1.0487,-1.0582,-1.0677,-1.0711,-1.0717,-1.0758,-1.0806,-1.107,-1.1307,-1.1572,-1.1769,-1.1884,-1.1884,-1.1857,-1.1843,0.0,-1.1993,-1.2121,-1.2277,-1.2291,-1.2318,0.0,0.0,0.0,0.0,-1.2989,-1.3756,-1.5522,-1.359,-1.2467,-1.2393,-1.2054,-1.1755,-1.1497,-1.1423,-1.1389,-1.1389,-1.1355,-1.1253,-1.1104,-1.0955,-1.0759,-1.0717,-1.0717,-1.0717,-1.0717,-1.0717,-1.0717,-1.0717,-1.0717,-1.0717,-1.0717,0.0,0.0,0.0,0.0,0.0,0.0,0.0,0.0,0.0,0.0,0.0,0.0,0.0,0.0,0.0,0.0,0.0,0.0,0.0,0.0,0.0,0.0,0.0,0.0,0.0,0.0,0.0,0.0,0.0,0.0,0.0,-0.0874,-0.1349,-0.156,-0.427,-0.6024,-0.6964,-0.88,-0.9984,-1.0717,-1.0717,-1.0717,-1.0717,-1.0717,-1.0717,-1.0717,-1.0717,-1.0717,-1.0731,-1.0799,-1.0778,-1.0731,-1.0806,-1.0778,-1.0717,-1.0717,-1.0717,-1.0717,-1.0717,-1.0656,-1.0595,-1.0595,-1.0595,-1.0595,-1.0595,-1.0663,-1.0717,-1.0717,-1.0717,-1.0765,-1.0853,-1.1016,-1.1165,-1.1463,-1.1525,-1.1572,-1.1714,-1.1674,-1.1708,-1.1911,-1.2013,-1.2149,-1.2366,-1.2386,-1.242,-1.2494,-1.2352,0.0,-1.24,-1.2332,-1.288,-1.4091,-1.3035,-1.2433,-1.2291,-1.185,-1.1586,-1.1491,-1.1355,-1.1362,-1.1491,-1.1348,-1.124,-1.122,-1.0934,-1.0799,-1.0717,-1.0717,-1.0717,-1.0717,-1.0717,-1.0717,-1.0717,-1.0717,-1.0765,-1.0759,0.0,0.0,0.0,0.0,0.0,0.0,0.0,0.0,0.0,0.0,0.0,0.0,0.0,0.0,0.0,0.0,0.0,0.0,0.0,0.0,0.0,0.0,0.0,0.0,0.0,0.0,0.0,0.0,0.0,0.0,-0.0067,-0.1881,-0.1758,-0.0137,-0.4044,-0.5669,-0.5522,-0.7536,-0.9305,-1.0717,-1.0717,-1.0717,-1.0717,-1.0717,-1.0717,-1.0717,-1.0717,-1.0731,-1.0772,-1.084,-1.0806,-1.0806,-1.0847,-1.0793,-1.0751,-1.0724,-1.0717,-1.0717,-1.0717,-1.0717,-1.0717,-1.0717,-1.0717,-1.0717,-1.0717,-1.0717,-1.0717,-1.0717,-1.0717,-1.0758,-1.0826,-1.0847,-1.1002,-1.128,-1.1212,-1.1233,-1.1545,0.0,-1.1586,-1.2087,-1.2081,-1.2203,-1.2474,-1.2501,-1.2494,-1.2474,-1.2467,-1.2406,-1.2264,-1.2257,-1.2311,-1.2433,-1.2433,-1.2366,-1.2223,-1.1667,-1.1457,-1.1586,-1.1321,-1.1335,-1.1572,-1.1294,-1.1234,-1.1145,-1.0846,-1.0717,-1.0717,-1.0717,-1.0717,-1.0717,-1.0717,-1.0717,-1.0717,-1.0717,-1.0752,-1.088,0.0,0.0,0.0,0.0,0.0,0.0,0.0,0.0,0.0,0.0,0.0,0.0,0.0,0.0,0.0,0.0,0.0,0.0,0.0,0.0,0.0,0.0,0.0,0.0,0.0,0.0,0.0,0.0,0.0,0.0,-0.0067,-0.1881,-0.1749,-0.0202,-0.5295,-0.6773,-0.558,-0.8917,-1.0452,-1.0717,-1.0717,-1.0717,-1.0717,-1.0717,-1.0717,-1.0717,-1.0717,-1.0806,-1.0847,-1.0873,-1.1016,-1.1077,-1.0982,-1.0867,-1.082,-1.0758,-1.0717,-1.0717,-1.0717,-1.0717,-1.0717,-1.0717,-1.0717,-1.0717,-1.0717,-1.0717,-1.0717,-1.0717,-1.0717,-1.0724,-1.0751,-1.0758,-1.0812,-1.0921,-1.0927,-1.1084,-1.1382,0.0,-1.1701,-1.2026,-1.2176,-1.2318,-1.2488,-1.2501,-1.2454,-1.2332,-1.2325,-1.2257,-1.2108,-1.2094,-1.2108,-1.2128,-1.2128,-1.2054,-1.1904,-1.1558,-1.1402,-1.1423,-1.1382,-1.1382,-1.1423,-1.1246,-1.1234,-1.1145,-1.0846,-1.0717,-1.0717,-1.0717,-1.0717,-1.0717,-1.0717,-1.0717,-1.0717,-1.0717,-1.0752,-1.088,0.0,0.0,0.0,0.0,0.0,0.0,0.0,0.0,0.0,0.0,0.0,0.0,0.0,0.0,0.0,0.0,0.0,0.0,0.0,0.0,0.0,0.0,0.0,0.0,0.0,0.0,0.0,0.0,-0.1009,-0.1478,-0.1545,-0.4289,-0.4623,-0.3088,-0.6494,-0.7564,-0.6898,-0.8568,-0.9775,-1.0717,-1.0717,-1.0717,-1.0717,-1.0717,-1.0717,-1.0731,-1.0812,-1.082,-1.0907,-1.1131,-1.1124,-1.105,-1.1063,-1.0955,-1.0812,-1.0744,-1.0717,-1.0717,-1.0717,-1.0717,-1.0717,-1.0717,-1.0717,-1.0717,-1.0717,-1.0717,-1.0717,-1.0717,-1.0717,-1.0772,-1.0928,-1.0894,-1.0894,-1.1036,-1.0995,0.0,0.0,-1.1402,-1.1606,-1.1904,-1.2074,-1.2196,-1.2257,-1.2264,-1.2237,-1.2176,-1.2169,-1.2135,-1.2067,-1.1979,-1.1938,-1.1938,-1.1938,-1.1904,-1.183,-1.1538,-1.1436,-1.1511,-1.143,-1.1436,-1.1504,-1.1267,-1.1234,-1.122,-1.0934,-1.0846,-1.0846,-1.0846,-1.0846,-1.0766,-1.0751,-1.0717,-1.0731,-1.0812,-1.0934,-1.1077,0.0,0.0,0.0,0.0,0.0,0.0,0.0,0.0,0.0,0.0,0.0,0.0,0.0,0.0,0.0,0.0,0.0,0.0,0.0,0.0,0.0,0.0,0.0,0.0,0.0,-0.0404,-0.0605,-0.0605,-0.2417,-0.3354,-0.3356,-0.6093,-0.6698,-0.5496,-0.7231,-0.803,-0.803,-0.8435,-0.9437,-1.0717,-1.0717,-1.0717,-1.0717,-1.0717,-1.0744,-1.0785,-1.084,-1.0927,-1.1084,-1.1314,-1.126,-1.1111,-1.1151,-1.1009,-1.0806,-1.0738,-1.0717,-1.0717,-1.0717,-1.0717,-1.0731,-1.0765,-1.0744,-1.0731,-1.0765,-1.0744,-1.0731,-1.0765,-1.0744,-1.0812,-1.1111,-1.1043,-1.0914,-1.1097,0.0,0.0,0.0,-1.1355,-1.1592,-1.1857,-1.2054,-1.2149,-1.2121,-1.2115,-1.2088,-1.2013,-1.2006,-1.1993,-1.1959,-1.1843,-1.1782,-1.1782,-1.1782,-1.1796,-1.183,-1.1572,-1.1504,-1.1619,-1.1497,-1.1504,-1.1613,-1.1341,-1.1199,-1.1158,-1.105,-1.0914,-1.088,-1.088,-1.088,-1.0867,-1.0778,-1.0744,-1.0785,-1.084,-1.1063,-1.1233,0.0,0.0,0.0,0.0,0.0,0.0,0.0,0.0,0.0,0.0,0.0,0.0,0.0,0.0,0.0,0.0,0.0,0.0,0.0,0.0,0.0,0.0,0.0,0.0,0.0,-0.1613,-0.2484,-0.2484,-0.4292,-0.5228,-0.5228,-0.5496,-0.5496,-0.5496,-0.7231,-0.803,-0.8097,-0.9775,-1.0585,-1.0717,-1.0717,-1.0717,-1.0717,-1.0717,-1.0806,-1.0867,-1.088,-1.1124,-1.1362,-1.1382,-1.147,-1.1525,-1.1246,-1.1151,-1.1077,-1.0799,-1.0717,-1.0717,-1.0717,-1.0717,-1.0751,-1.0826,-1.0759,-1.0758,-1.0833,-1.0819,-1.0758,-1.0833,-1.0819,-1.0812,-1.1111,-1.1043,-1.0887,-1.0894,0.0,0.0,-1.1227,-1.1531,-1.1857,-1.2026,-1.2298,-1.242,-1.2284,-1.2271,-1.2155,-1.187,-1.185,-1.1789,-1.166,-1.164,-1.1633,-1.1633,-1.1633,-1.1701,-1.183,-1.1681,-1.1606,-1.1619,-1.1606,-1.1606,-1.1613,-1.145,-1.1294,-1.1234,-1.1151,-1.107,-1.088,-1.088,-1.088,-1.0867,-1.0778,-1.0806,-1.0867,-1.088,-1.1131,-1.1375,0.0,0.0,0.0,0.0,0.0,0.0,0.0,0.0,0.0,0.0,0.0,0.0,0.0,0.0,0.0,0.0,0.0,0.0,0.0,0.0,0.0,0.0,0.0,0.0,0.0,-0.1747,-0.2148,-0.1009,-0.5025,-0.5893,-0.3756,-0.596,-0.7031,-0.7031,-0.7698,-0.8634,-0.9709,-1.0386,-1.0717,-1.0717,-1.0717,-1.0717,-1.0717,-1.0717,-1.0745,-1.0894,-1.105,-1.1212,-1.1402,-1.1497,-1.1511,-1.1457,-1.1341,-1.124,-1.1124,-1.0921,-1.0793,-1.0793,-1.0793,-1.0793,-1.0806,-1.0867,-1.084,-1.0806,-1.0867,-1.0833,-1.0786,-1.0745,-1.0907,-1.1029,-1.1214,-1.1192,-1.1226,-1.1226,0.0,-1.1307,-1.1307,-1.1531,-1.1721,-1.1782,-1.1965,-1.2033,-1.1891,-1.187,-1.1823,-1.1708,-1.1701,-1.1714,-1.1748,-1.1748,-1.1708,-1.1619,-1.1619,-1.1647,-1.1701,-1.1647,-1.1619,-1.1619,-1.1619,-1.1619,-1.1613,-1.1463,-1.1307,-1.1165,-1.126,-1.1219,-1.1084,-1.1084,-1.1084,-1.1063,-1.0921,-1.0833,-1.09,-1.1158,-1.1294,-1.1402,0.0,0.0,0.0,0.0,0.0,0.0,0.0,0.0,0.0,0.0,0.0,0.0,0.0,0.0,0.0,0.0,0.0,0.0,0.0,0.0,0.0,0.0,0.0,0.0,0.0,-0.1747,-0.2083,-0.0874,-0.5091,-0.596,-0.3622,-0.6027,-0.7498,-0.803,-0.803,-0.9039,-1.0717,-1.0717,-1.0717,-1.0717,-1.0717,-1.0717,-1.0724,-1.0772,-1.0887,-1.1036,-1.1179,-1.1335,-1.1477,-1.1586,-1.1518,-1.1389,-1.1389,-1.1287,-1.1145,-1.1043,-1.1016,-1.1016,-1.1016,-1.105,-1.109,-1.109,-1.105,-1.1029,-1.1077,-1.105,-1.0995,-1.0941,-1.1056,-1.1261,-1.1287,-1.1355,-1.1389,-1.1389,-1.143,-1.1443,-1.1396,-1.1558,-1.1687,-1.1687,-1.1816,-1.1843,-1.1701,-1.1687,-1.1667,-1.1619,-1.1619,-1.166,-1.1755,-1.1762,-1.1721,-1.1619,-1.1619,-1.1619,-1.1619,-1.1619,-1.1619,-1.1619,-1.1619,-1.1619,-1.1613,-1.1511,-1.1382,-1.1246,-1.1396,-1.1375,-1.1233,-1.1233,-1.1233,-1.1219,-1.107,-1.1043,-1.1111,-1.1314,-1.1423,-1.1477,0.0,0.0,0.0,0.0,0.0,0.0,0.0,0.0,0.0,0.0,0.0,0.0,0.0,0.0,0.0,0.0,0.0,0.0,0.0,0.0,0.0,0.0,0.0,0.0,0.0,-0.1814,-0.2685,-0.2685,-0.4562,-0.5432,-0.5432,-0.5432,-0.6364,-0.803,-0.803,-0.9039,-1.0717,-1.0717,-1.0717,-1.0717,-1.0724,-1.0724,-1.0738,-1.0826,-1.1036,-1.1255,-1.1335,-1.1491,-1.1619,-1.1619,-1.1518,-1.1396,-1.1396,-1.1287,-1.1234,-1.1234,-1.1234,-1.1234,-1.1234,-1.1274,-1.1396,-1.1389,-1.1274,-1.1275,-1.1355,-1.1274,-1.1206,-1.1355,-1.1267,-1.126,-1.1558,-1.1497,-1.1396,-1.1396,-1.1518,-1.1565,-1.1416,-1.1647,-1.183,-1.183,-1.1965,-1.1999,-1.1843,-1.183,-1.1775,-1.1633,-1.1619,-1.1619,-1.1619,-1.1619,-1.1619,-1.1619,-1.1619,-1.1619,-1.1619,-1.1619,-1.1619,-1.1619,-1.1619,-1.1619,-1.1619,-1.1619,-1.1538,-1.1402,-1.1552,-1.1531,-1.1389,-1.1389,-1.1389,-1.1375,-1.1226,-1.126,-1.1389,-1.1396,-1.1491,-1.1619,0.0,0.0,0.0,0.0,0.0,0.0,0.0,0.0,0.0,0.0,0.0,0.0,0.0,0.0,0.0,0.0,0.0,0.0,0.0,0.0,0.0,0.0,0.0,0.0,0.0,-0.3092,-0.4141,-0.2834,-0.717,-0.795,-0.5573,-0.6863,-0.7636,-0.8035,-0.8117,-0.9125,-1.0717,-1.0717,-1.0717,-1.0731,-1.0772,-1.0752,-1.0751,-1.1002,-1.1124,-1.1255,-1.1335,-1.1491,-1.1619,-1.1619,-1.1592,-1.1552,-1.1552,-1.1443,-1.1321,-1.1321,-1.1321,-1.1321,-1.1321,-1.1436,-1.1525,-1.1416,-1.1355,-1.1335,-1.1382,-1.1355,-1.1307,-1.1246,-1.1362,-1.1477,-1.1463,-1.1511,-1.1552,-1.1552,-1.1592,-1.1606,-1.1558,-1.1626,-1.1681,-1.1681,-1.1809,-1.1843,-1.1694,-1.1775,-1.1775,-1.1633,-1.1708,-1.1816,-1.1925,-1.1823,-1.1769,-1.1769,-1.1674,-1.1667,-1.1769,-1.1667,-1.1619,-1.1619,-1.1619,-1.1619,-1.1619,-1.1619,-1.1538,-1.1402,-1.1552,-1.1531,-1.1389,-1.1389,-1.1389,-1.1389,-1.1341,-1.1348,-1.1402,-1.1511,-1.1579,-1.1619,0.0,0.0,0.0,0.0,0.0,0.0,0.0,0.0,0.0,0.0,0.0,0.0,0.0,0.0,0.0,0.0,0.0,0.0,0.0,0.0,0.0,0.0,0.0,0.0,0.0,-0.2995,-0.3983,-0.2869,-0.6923,-0.779,-0.5722,-0.7511,-0.8303,-0.8236,-0.9064,-1.0017,-1.0894,-1.0894,-1.0894,-1.09,-1.0995,-1.0975,-1.0921,-1.1165,-1.1253,-1.1274,-1.1423,-1.1538,-1.1613,-1.1552,-1.1531,-1.1518,-1.1457,-1.1457,-1.1484,-1.1484,-1.1525,-1.1565,-1.1565,-1.1681,-1.1755,-1.1606,-1.1477,-1.1409,-1.147,-1.1436,-1.1382,-1.1348,-1.1491,-1.1592,-1.1497,-1.1558,-1.1619,-1.1619,-1.1619,-1.1619,-1.1619,-1.1619,-1.1619,-1.1619,-1.1742,-1.1775,-1.1633,-1.1748,-1.1775,-1.1633,-1.1748,-1.187,-1.1965,-1.1938,-1.1925,-1.1925,-1.1837,-1.1837,-1.1925,-1.1837,-1.1762,-1.1701,-1.1701,-1.1674,-1.1619,-1.1619,-1.1565,-1.1484,-1.1579,-1.1565,-1.1484,-1.1484,-1.1484,-1.1484,-1.1484,-1.1518,-1.1565,-1.1606,-1.1653,-1.1701,0.0,0.0,0.0,0.0,0.0,0.0,0.0,0.0,0.0,0.0,0.0,0.0,0.0,0.0,0.0,0.0,0.0,0.0,0.0,0.0,0.0,0.0,0.0,-0.0071,-0.0282,-0.2178,-0.3159,-0.3159,-0.5248,-0.6291,-0.636,-0.797,-0.8735,-0.8793,-1.048,-1.1241,-1.1234,-1.1234,-1.1234,-1.1234,-1.1179,-1.1241,-1.1248,-1.1348,-1.1402,-1.1409,-1.1579,-1.1633,-1.1599,-1.1457,-1.1409,-1.1389,-1.1246,-1.1396,-1.1619,-1.1619,-1.1708,-1.1816,-1.183,-1.1932,-1.2013,-1.1884,-1.164,-1.1463,-1.1606,-1.1531,-1.147,-1.1606,-1.164,-1.1633,-1.1619,-1.1633,-1.164,-1.164,-1.1647,-1.166,-1.166,-1.166,-1.166,-1.166,-1.1782,-1.1809,-1.1653,-1.1742,-1.1769,-1.1667,-1.1775,-1.1864,-1.1891,-1.2013,-1.2081,-1.2081,-1.2142,-1.2142,-1.2081,-1.2081,-1.1999,-1.183,-1.183,-1.1755,-1.1619,-1.1619,-1.1619,-1.1619,-1.1619,-1.1626,-1.164,-1.164,-1.164,-1.164,-1.164,-1.1714,-1.1816,-1.1687,-1.1728,-1.185,0.0,0.0,0.0,0.0,0.0,0.0,0.0,0.0,0.0,0.0,0.0,0.0,0.0,0.0,0.0,0.0,0.0,0.0,0.0,0.0,0.0,0.0,0.0,-0.0725,-0.2236,-0.4179,-0.5186,-0.5186,-0.8545,-1.0205,-1.0205,-1.0562,-1.0715,-1.0606,-1.1147,-1.1274,-1.1234,-1.1234,-1.1234,-1.1241,-1.1294,-1.1267,-1.1261,-1.1463,-1.1497,-1.1423,-1.1687,-1.1714,-1.1613,-1.1579,-1.1572,-1.1565,-1.1531,-1.1565,-1.1619,-1.1619,-1.164,-1.1687,-1.1803,-1.1857,-1.1904,-1.1986,-1.187,-1.1742,-1.1775,-1.1755,-1.1742,-1.1775,-1.1782,-1.1748,-1.164,-1.1708,-1.1782,-1.1782,-1.1884,-1.1965,-1.1965,-1.1965,-1.1965,-1.1965,-1.2101,-1.2081,-1.1809,-1.1714,-1.1748,-1.1952,-1.1993,-1.2115,-1.2345,-1.2284,-1.2244,-1.2244,-1.2128,-1.2121,-1.2237,-1.2244,-1.2101,-1.183,-1.183,-1.1755,-1.1619,-1.1619,-1.1619,-1.1619,-1.1619,-1.1681,-1.1782,-1.1782,-1.1782,-1.1782,-1.1782,-1.1803,-1.183,-1.1796,-1.1877,-1.2013,0.0,0.0,0.0,0.0,0.0,0.0,0.0,0.0,0.0,0.0,0.0,0.0,0.0,0.0,0.0,0.0,0.0,-0.0365,-0.1311,-0.051,-0.0438,-0.1311,-0.1384,-0.1892,-0.2909,-0.5732,-0.7183,-0.7183,-1.009,-1.1497,-1.1497,-1.1497,-1.1457,-1.1382,-1.1463,-1.1457,-1.1382,-1.1382,-1.1382,-1.1389,-1.147,-1.145,-1.1396,-1.1558,-1.1613,-1.1619,-1.1775,-1.1742,-1.1606,-1.1538,-1.1511,-1.1511,-1.1511,-1.1558,-1.1619,-1.1619,-1.1667,-1.1755,-1.1898,-1.1993,-1.2067,-1.2149,-1.2108,-1.2033,-1.1959,-1.1884,-1.185,-1.1925,-1.1938,-1.1918,-1.1843,-1.1891,-1.1938,-1.1938,-1.2006,-1.2135,-1.2135,-1.2135,-1.2135,-1.2135,-1.2196,-1.223,-1.2067,-1.1918,-1.1898,-1.2121,-1.2128,-1.2237,-1.2393,-1.2393,-1.2393,-1.2393,-1.2311,-1.2311,-1.2393,-1.2393,-1.2277,-1.2047,-1.2047,-1.1972,-1.183,-1.183,-1.183,-1.183,-1.183,-1.187,-1.1938,-1.1938,-1.1938,-1.1932,-1.1857,-1.1918,-1.2033,-1.1884,-1.1972,-1.2162,0.0,0.0,0.0,0.0,0.0,0.0,0.0,0.0,0.0,0.0,0.0,0.0,0.0,0.0,0.0,0.0,0.0,-0.0656,-0.2328,-0.1241,-0.1242,-0.2844,-0.3281,-0.3573,-0.3935,-0.7042,-0.8703,-0.8703,-1.0671,-1.1619,-1.1619,-1.1619,-1.1619,-1.1619,-1.1619,-1.1619,-1.1619,-1.1619,-1.1619,-1.1619,-1.1619,-1.1619,-1.1619,-1.1647,-1.1728,-1.1837,-1.1891,-1.1837,-1.1714,-1.1558,-1.1491,-1.1463,-1.1463,-1.1538,-1.1619,-1.1619,-1.1701,-1.1837,-1.2013,-1.2155,-1.2264,-1.2311,-1.2325,-1.2291,-1.2169,-1.202,-1.1945,-1.2074,-1.2101,-1.2094,-1.2067,-1.2081,-1.2101,-1.2101,-1.2121,-1.2135,-1.2135,-1.2135,-1.2135,-1.2135,-1.223,-1.2291,-1.2291,-1.2149,-1.2149,-1.2101,-1.2216,-1.2298,-1.2325,-1.244,-1.2501,-1.2501,-1.2501,-1.2501,-1.2501,-1.2501,-1.244,-1.2325,-1.2352,-1.2257,-1.2135,-1.2135,-1.2135,-1.2135,-1.2135,-1.2074,-1.2101,-1.2101,-1.2101,-1.2088,-1.1959,-1.2067,-1.2264,-1.2033,-1.2108,-1.2305,0.0,0.0,0.0,0.0,0.0,0.0,0.0,0.0,0.0,0.0,0.0,0.0,0.0,0.0,0.0,0.0,0.0,-0.0146,-0.0365,-0.1839,-0.281,-0.3032,-0.4651,-0.6341,-0.8039,-0.8459,-0.8703,-0.8703,-1.0671,-1.1619,-1.1619,-1.1619,-1.1619,-1.1619,-1.1619,-1.1619,-1.1619,-1.1619,-1.1619,-1.1619,-1.1619,-1.1619,-1.1633,-1.1755,-1.1816,-1.1864,-1.2135,-1.2216,-1.2176,-1.202,-1.1884,-1.1769,-1.1769,-1.1701,-1.1619,-1.1619,-1.1633,-1.1708,-1.1986,-1.2081,-1.2155,-1.2413,-1.2474,-1.2467,-1.2447,-1.2332,-1.2237,-1.2257,-1.2257,-1.2216,-1.2088,-1.2169,-1.2257,-1.2257,-1.2366,-1.244,-1.244,-1.244,-1.244,-1.244,-1.2352,-1.2291,-1.2291,-1.2149,-1.2115,-1.225,-1.2277,-1.2345,-1.2467,-1.2488,-1.2501,-1.2501,-1.2501,-1.2501,-1.2501,-1.2501,-1.2494,-1.2474,-1.261,-1.2461,-1.2135,-1.2135,-1.2135,-1.2135,-1.2135,-1.2135,-1.2257,-1.2257,-1.2257,-1.2257,-1.2237,-1.225,-1.2298,-1.2379,-1.244,-1.2454,0.0,0.0,0.0,0.0,0.0,0.0,0.0,0.0,0.0,0.0,0.0,0.0,0.0,0.0,-0.0447,-0.1637,-0.067,-0.0968,-0.3192,-0.3211,-0.4118,-0.6425,-0.7319,-0.8216,-0.9038,-1.0104,-1.0559,-1.0408,-1.1221,-1.1619,-1.1619,-1.1619,-1.1619,-1.1619,-1.1701,-1.1735,-1.1742,-1.183,-1.187,-1.187,-1.187,-1.187,-1.1877,-1.1938,-1.2013,-1.2108,-1.2244,-1.2291,-1.2271,-1.2115,-1.2013,-1.1945,-1.1857,-1.1789,-1.1735,-1.1735,-1.1735,-1.1803,-1.2108,-1.2189,-1.2237,-1.2447,-1.2569,-1.263,-1.263,-1.2583,-1.2515,-1.2427,-1.2406,-1.2386,-1.2318,-1.2366,-1.2406,-1.2406,-1.2461,-1.2501,-1.2501,-1.2501,-1.2501,-1.2501,-1.2447,-1.2406,-1.2406,-1.2345,-1.2338,-1.2406,-1.2488,-1.2562,-1.2623,-1.2712,-1.2759,-1.2759,-1.2759,-1.2718,-1.263,-1.2718,-1.2718,-1.263,-1.2786,-1.2712,-1.2433,-1.2433,-1.2433,-1.2433,-1.2345,-1.2345,-1.2406,-1.2406,-1.2406,-1.24,-1.2325,-1.2291,-1.2311,-1.2447,-1.2501,-1.2494]}]]